[[{"header":{"parameterUnit":"m.s-1","parameterCategory":1,"la1":30.6,"la2":29.2853,"lo1":-89.7004,"lo2":-87.6739,"dx":0.0162,"dy":0.0183,"nx":112,"ny":82,"refTime":"2022-12-24T18:00:00:Z","depth":0,"parameterNumber":2,"parameterNumberName":"U-component_of_WINDS"},"data":[0.0,0.0,0.0,0.0,0.0,0.0,0.0,0.0,0.0,0.0,0.0,0.0,0.0,0.0,0.0,0.0,0.0,0.0,0.0,0.0,0.0,0.0,0.0,0.0,0.0,0.0,0.0,0.0,0.0,0.0,0.0,0.0,0.0,0.0,0.0,0.0,0.0,0.0,0.0,0.0,0.0,0.0,0.0,0.0,0.0,0.0,0.0,0.0,0.0,0.0,0.0,0.0,0.0,0.0,0.0,0.0,0.0,0.0,0.0,0.0,0.0,0.0,0.0,0.0,0.0,0.0,0.0,0.0,0.0,0.0,0.0,0.0,0.0,0.0,0.0,0.0,0.0,0.0,0.0,0.0,0.0,0.0,0.0,0.0,0.0,0.0,0.0,0.0,0.0,0.0,5.6576,6.3512,7.1413,7.6592,7.7592,7.5476,7.0783,6.2974,0.0,0.0,0.0,0.0,0.0,0.0,0.0,0.0,0.0,0.0,0.0,0.0,0.0,0.0,0.0,0.0,0.0,0.0,0.0,0.0,0.0,0.0,0.0,0.0,0.0,0.0,0.0,0.0,0.0,0.0,0.0,0.0,0.0,0.0,0.0,0.0,0.0,0.0,0.0,0.0,0.0,0.0,0.0,0.0,0.0,0.0,0.0,0.0,0.0,0.0,0.0,0.0,0.0,0.0,0.0,0.0,0.0,0.0,0.0,0.0,0.0,0.0,0.0,0.0,0.0,0.0,0.0,0.0,0.0,0.0,0.0,0.0,0.0,0.0,0.0,0.0,0.0,0.0,0.0,0.0,0.0,0.0,0.0,0.0,0.0,0.0,0.0,0.0,0.0,0.0,0.0,0.0,0.0,0.0,0.0,0.0,0.0,0.0,0.0,0.0,0.0,0.0,0.0,0.0,5.8872,7.2417,7.5802,7.7746,7.9285,7.7746,7.3129,6.4743,0.0,0.0,0.0,0.0,0.0,0.0,0.0,0.0,0.0,0.0,0.0,0.0,0.0,0.0,0.0,0.0,0.0,0.0,0.0,0.0,0.0,0.0,0.0,0.0,0.0,0.0,0.0,0.0,0.0,0.0,0.0,0.0,0.0,0.0,0.0,0.0,0.0,0.0,0.0,0.0,0.0,0.0,0.0,0.0,0.0,0.0,0.0,0.0,0.0,0.0,0.0,0.0,0.0,0.0,0.0,0.0,0.0,0.0,0.0,0.0,0.0,0.0,0.0,0.0,0.0,0.0,0.0,0.0,0.0,0.0,0.0,0.0,0.0,0.0,0.0,0.0,0.0,0.0,0.0,0.0,0.0,0.0,0.0,0.0,0.0,0.0,0.0,0.0,0.0,0.0,0.0,0.0,0.0,0.0,0.0,0.0,0.0,0.0,0.0,0.0,0.0,0.0,0.0,5.7359,6.4688,7.5562,7.7438,7.8631,8.0362,7.8554,7.4053,6.6436,5.9588,0.0,0.0,0.0,0.0,0.0,0.0,0.0,0.0,0.0,0.0,0.0,0.0,0.0,0.0,0.0,0.0,0.0,0.0,0.0,0.0,0.0,0.0,0.0,0.0,0.0,0.0,0.0,0.0,0.0,0.0,0.0,0.0,0.0,0.0,0.0,0.0,0.0,0.0,0.0,0.0,0.0,0.0,0.0,0.0,0.0,0.0,0.0,0.0,0.0,0.0,0.0,0.0,0.0,0.0,0.0,0.0,0.0,0.0,0.0,0.0,0.0,0.0,0.0,0.0,0.0,0.0,0.0,0.0,0.0,0.0,0.0,0.0,0.0,0.0,0.0,0.0,0.0,0.0,0.0,0.0,0.0,0.0,0.0,0.0,0.0,0.0,0.0,0.0,0.0,0.0,0.0,0.0,0.0,0.0,0.0,0.0,0.0,0.0,0.0,0.0,0.0,0.0,6.4666,7.0369,7.6908,7.8477,7.9708,8.1246,7.94,7.5014,6.7552,6.1127,0.0,0.0,0.0,0.0,0.0,0.0,0.0,0.0,0.0,0.0,0.0,0.0,0.0,0.0,0.0,0.0,0.0,0.0,0.0,0.0,0.0,0.0,0.0,0.0,0.0,0.0,0.0,0.0,0.0,0.0,0.0,0.0,0.0,0.0,0.0,0.0,0.0,0.0,0.0,0.0,0.0,0.0,0.0,0.0,0.0,0.0,0.0,0.0,0.0,0.0,0.0,0.0,0.0,0.0,0.0,0.0,0.0,0.0,0.0,0.0,0.0,0.0,0.0,0.0,0.0,0.0,0.0,0.0,0.0,0.0,0.0,0.0,0.0,0.0,0.0,0.0,0.0,0.0,0.0,0.0,0.0,0.0,0.0,0.0,0.0,0.0,0.0,0.0,0.0,0.0,0.0,0.0,0.0,0.0,0.0,0.0,0.0,0.0,0.0,0.0,0.0,0.0,6.6146,7.3844,7.7985,7.99,8.1285,8.2131,8.1362,7.6899,6.7667,6.2204,0.0,0.0,0.0,0.0,0.0,0.0,0.0,0.0,0.0,0.0,0.0,0.0,0.0,0.0,0.0,0.0,0.0,0.0,0.0,0.0,0.0,0.0,0.0,0.0,0.0,0.0,0.0,0.0,0.0,0.0,0.0,0.0,0.0,0.0,0.0,0.0,0.0,0.0,0.0,0.0,0.0,0.0,0.0,0.0,0.0,0.0,0.0,0.0,0.0,0.0,0.0,0.0,0.0,0.0,0.0,0.0,0.0,0.0,0.0,0.0,0.0,0.0,0.0,0.0,0.0,0.0,0.0,0.0,0.0,0.0,0.0,0.0,0.0,0.0,0.0,0.0,0.0,0.0,0.0,0.0,0.0,0.0,0.0,0.0,0.0,0.0,0.0,0.0,0.0,0.0,0.0,0.0,0.0,0.0,0.0,0.0,0.0,0.0,0.0,0.0,0.0,0.0,6.5834,7.3023,7.8707,8.0362,8.1631,8.2978,8.1362,7.7207,6.9937,0.0,0.0,0.0,0.0,0.0,0.0,0.0,0.0,0.0,0.0,0.0,0.0,0.0,0.0,0.0,0.0,0.0,0.0,0.0,0.0,0.0,0.0,0.0,0.0,0.0,0.0,0.0,0.0,0.0,0.0,0.0,0.0,0.0,0.0,0.0,0.0,0.0,0.0,0.0,0.0,0.0,0.0,0.0,0.0,0.0,0.0,0.0,0.0,0.0,0.0,0.0,0.0,0.0,0.0,0.0,0.0,0.0,0.0,0.0,0.0,0.0,0.0,0.0,0.0,0.0,0.0,0.0,0.0,0.0,0.0,0.0,0.0,0.0,0.0,0.0,0.0,0.0,0.0,0.0,0.0,0.0,0.0,0.0,0.0,0.0,0.0,0.0,0.0,0.0,0.0,0.0,0.0,0.0,0.0,0.0,0.0,0.0,0.0,0.0,0.0,0.0,0.0,5.8812,6.6978,7.4207,7.9631,8.1208,8.2477,8.3901,8.19,7.7823,7.1321,0.0,0.0,0.0,0.0,0.0,0.0,0.0,0.0,0.0,0.0,0.0,0.0,0.0,0.0,0.0,0.0,0.0,0.0,0.0,0.0,0.0,0.0,0.0,0.0,0.0,0.0,0.0,0.0,0.0,0.0,0.0,0.0,0.0,0.0,0.0,0.0,0.0,0.0,0.0,0.0,0.0,0.0,0.0,0.0,0.0,0.0,0.0,0.0,0.0,0.0,0.0,0.0,0.0,0.0,0.0,0.0,0.0,0.0,0.0,0.0,0.0,0.0,0.0,0.0,0.0,0.0,0.0,0.0,0.0,0.0,0.0,0.0,0.0,0.0,0.0,0.0,0.0,0.0,0.0,0.0,0.0,0.0,0.0,0.0,0.0,0.0,0.0,0.0,0.0,0.0,0.0,0.0,0.0,0.0,0.0,0.0,0.0,0.0,0.0,0.0,0.0,0.0,5.9191,7.0003,7.8284,8.0862,8.2631,8.3978,8.4863,8.3324,7.9054,0.0,0.0,0.0,0.0,0.0,0.0,0.0,0.0,0.0,0.0,0.0,0.0,0.0,0.0,0.0,0.0,0.0,0.0,0.0,0.0,0.0,0.0,0.0,0.0,0.0,0.0,0.0,0.0,0.0,0.0,0.0,0.0,0.0,0.0,0.0,0.0,0.0,0.0,0.0,0.0,0.0,0.0,0.0,0.0,0.0,0.0,0.0,0.0,0.0,0.0,0.0,0.0,0.0,0.0,0.0,0.0,0.0,0.0,0.0,0.0,0.0,0.0,0.0,0.0,0.0,0.0,0.0,0.0,0.0,0.0,0.0,0.0,0.0,0.0,0.0,0.0,0.0,0.0,0.0,0.0,0.0,0.0,0.0,0.0,0.0,0.0,0.0,0.0,0.0,0.0,0.0,0.0,0.0,0.0,0.0,0.0,0.0,0.0,0.0,0.0,0.0,0.0,0.0,6.0861,7.0731,7.8707,8.2439,8.3862,8.5093,8.6555,8.4555,7.9939,7.2283,0.0,0.0,0.0,0.0,0.0,0.0,0.0,0.0,0.0,0.0,0.0,0.0,0.0,0.0,0.0,0.0,0.0,0.0,0.0,0.0,0.0,0.0,0.0,0.0,0.0,0.0,0.0,0.0,0.0,0.0,0.0,0.0,0.0,0.0,0.0,0.0,0.0,0.0,0.0,0.0,0.0,0.0,0.0,0.0,0.0,0.0,0.0,0.0,0.0,0.0,0.0,0.0,0.0,0.0,0.0,0.0,0.0,0.0,0.0,0.0,0.0,0.0,0.0,0.0,0.0,0.0,0.0,0.0,0.0,0.0,0.0,0.0,0.0,0.0,0.0,0.0,0.0,0.0,0.0,0.0,0.0,0.0,0.0,0.0,0.0,0.0,0.0,0.0,0.0,0.0,0.0,0.0,0.0,0.0,0.0,0.0,0.0,0.0,0.0,0.0,0.0,0.0,6.1581,7.1306,7.9131,8.2708,8.417,8.544,8.6786,8.4555,8.0439,7.4245,0.0,0.0,0.0,0.0,0.0,0.0,0.0,0.0,0.0,0.0,0.0,0.0,0.0,0.0,0.0,0.0,0.0,0.0,0.0,0.0,0.0,0.0,0.0,0.0,0.0,0.0,0.0,0.0,0.0,0.0,0.0,0.0,0.0,0.0,0.0,0.0,0.0,0.0,0.0,0.0,0.0,0.0,0.0,0.0,0.0,0.0,0.0,0.0,0.0,0.0,0.0,0.0,0.0,0.0,0.0,0.0,0.0,0.0,0.0,0.0,0.0,0.0,0.0,0.0,0.0,0.0,0.0,0.0,0.0,0.0,0.0,0.0,0.0,0.0,0.0,0.0,0.0,0.0,0.0,0.0,0.0,0.0,0.0,0.0,0.0,0.0,0.0,0.0,0.0,0.0,0.0,0.0,0.0,0.0,0.0,0.0,0.0,0.0,0.0,0.0,0.0,0.0,6.2037,7.1995,7.9669,8.2362,8.4055,8.5363,8.617,8.4016,8.0823,7.6562,0.0,0.0,0.0,0.0,0.0,0.0,0.0,0.0,0.0,0.0,0.0,0.0,0.0,0.0,0.0,0.0,0.0,0.0,0.0,0.0,0.0,0.0,0.0,0.0,0.0,0.0,0.0,0.0,0.0,0.0,0.0,0.0,0.0,0.0,0.0,0.0,0.0,0.0,0.0,0.0,0.0,0.0,0.0,0.0,0.0,0.0,0.0,0.0,0.0,0.0,0.0,0.0,0.0,0.0,0.0,0.0,0.0,0.0,0.0,0.0,4.5355,0.0,0.0,0.0,0.0,0.0,0.0,0.0,0.0,0.0,0.0,0.0,0.0,0.0,0.0,0.0,0.0,0.0,0.0,0.0,0.0,0.0,0.0,0.0,0.0,0.0,0.0,0.0,0.0,0.0,0.0,0.0,0.0,0.0,0.0,0.0,0.0,0.0,0.0,0.0,0.0,0.0,6.5417,7.3954,8.1016,8.4901,8.5632,8.6209,8.7055,8.6017,8.267,7.6476,7.1014,0.0,0.0,0.0,0.0,0.0,0.0,0.0,0.0,0.0,0.0,0.0,0.0,0.0,0.0,0.0,0.0,0.0,0.0,0.0,0.0,0.0,0.0,0.0,0.0,0.0,0.0,0.0,0.0,0.0,0.0,0.0,0.0,0.0,0.0,0.0,0.0,0.0,0.0,0.0,0.0,0.0,0.0,0.0,0.0,0.0,0.0,0.0,0.0,0.0,0.0,0.0,0.0,0.0,0.0,0.0,0.0,0.0,0.0,0.0,0.0,4.7586,0.0,0.0,0.0,0.0,0.0,0.0,0.0,0.0,0.0,0.0,0.0,0.0,0.0,0.0,0.0,0.0,0.0,0.0,0.0,0.0,0.0,0.0,0.0,0.0,0.0,0.0,0.0,0.0,0.0,0.0,0.0,0.0,0.0,0.0,0.0,0.0,0.0,0.0,0.0,0.0,6.6683,7.4702,8.1439,8.567,8.6478,8.6901,8.7363,8.6594,8.4099,7.9453,7.4187,0.0,0.0,0.0,0.0,0.0,0.0,0.0,0.0,0.0,0.0,0.0,0.0,0.0,0.0,0.0,0.0,0.0,0.0,0.0,0.0,0.0,0.0,0.0,0.0,0.0,0.0,0.0,0.0,0.0,0.0,0.0,0.0,0.0,0.0,0.0,0.0,0.0,0.0,0.0,0.0,0.0,0.0,0.0,0.0,0.0,0.0,0.0,0.0,0.0,0.0,0.0,0.0,0.0,5.7703,5.8973,5.9011,5.9011,6.055,6.2858,5.7242,5.5472,5.6203,5.1318,0.0,0.0,0.0,0.0,0.0,0.0,0.0,0.0,0.0,0.0,0.0,0.0,0.0,0.0,0.0,0.0,0.0,0.0,0.0,0.0,0.0,0.0,0.0,0.0,6.0935,6.1012,0.0,0.0,0.0,0.0,0.0,0.0,0.0,0.0,0.0,0.0,0.0,0.0,6.8279,7.5756,8.1977,8.5901,8.7094,8.7632,8.7632,8.6978,8.5522,8.3149,7.7662,7.3091,0.0,0.0,0.0,0.0,0.0,0.0,0.0,0.0,0.0,0.0,0.0,0.0,0.0,0.0,0.0,0.0,0.0,0.0,0.0,0.0,0.0,0.0,0.0,0.0,0.0,0.0,0.0,0.0,0.0,0.0,0.0,0.0,4.3782,4.397,0.0,0.0,0.0,0.0,0.0,0.0,0.0,0.0,0.0,0.0,0.0,0.0,0.0,5.4203,5.5972,5.9973,6.1973,6.2012,6.532,6.6898,6.6898,6.6898,6.7128,6.7513,6.6628,0.0,6.005,5.9281,0.0,0.0,0.0,0.0,0.0,0.0,0.0,0.0,0.0,0.0,0.0,0.0,0.0,0.0,0.0,0.0,0.0,0.0,0.0,0.0,0.0,0.0,6.7898,6.8013,6.8821,6.9321,0.0,6.0719,5.3695,5.29,5.2126,0.0,0.0,0.0,0.0,0.0,0.0,0.0,7.3433,7.9479,8.417,8.694,8.8017,8.8517,8.8517,8.8402,8.7286,8.4753,8.2682,7.9103,7.3557,6.9348,0.0,0.0,0.0,0.0,0.0,0.0,0.0,0.0,0.0,0.0,0.0,0.0,0.0,0.0,0.0,0.0,0.0,0.0,0.0,0.0,0.0,0.0,0.0,0.0,0.0,0.0,0.0,0.0,0.0,4.3232,4.5554,4.7645,4.5663,4.3662,0.0,0.0,0.0,0.0,0.0,0.0,0.0,0.0,0.0,5.7896,5.8965,6.0473,6.2666,6.5936,6.759,6.759,7.009,7.1283,7.1283,7.1283,7.1283,7.1283,7.1283,7.0014,6.7628,6.3782,6.0473,5.7511,0.0,0.0,0.0,0.0,5.3857,5.4203,5.778,5.955,0.0,5.805,0.0,0.0,0.0,0.0,0.0,0.0,0.0,0.0,0.0,0.0,0.0,7.2052,7.2783,7.3168,7.3668,6.9975,6.5295,0.0,5.9317,5.7196,5.2518,0.0,0.0,0.0,0.0,6.9743,7.5686,8.0645,8.4747,8.7786,8.8863,8.9363,8.9363,8.9363,8.8709,8.7132,8.5368,8.2968,7.9843,7.4954,6.9522,0.0,0.0,0.0,0.0,0.0,0.0,0.0,0.0,0.0,0.0,0.0,0.0,0.0,0.0,0.0,0.0,0.0,0.0,0.0,0.0,0.0,0.0,0.0,0.0,0.0,0.0,0.0,0.0,4.6733,4.9116,5.1682,5.0702,4.8817,0.0,0.0,0.0,0.0,0.0,0.0,5.6319,5.7434,5.9935,6.4205,6.4936,6.6359,6.8706,7.0629,7.1591,7.1591,7.3091,7.3822,7.3822,7.4053,7.413,7.413,7.413,7.413,7.3707,6.8205,6.5397,6.4282,6.1127,5.9396,5.8858,6.0742,6.0781,6.055,6.5013,6.6705,6.6551,6.4666,0.0,6.3743,5.9127,0.0,0.0,0.0,0.0,6.4128,6.7321,6.9898,7.2283,7.4784,7.5515,7.5861,7.6515,7.6476,7.4514,0.0,6.6859,6.4666,5.8742,0.0,0.0,0.0,0.0,7.3392,7.7985,8.19,8.5286,8.8055,8.9286,8.9902,8.9902,8.9902,8.9556,8.8748,8.6906,8.5323,8.4254,7.9795,7.5243,7.0742,0.0,0.0,0.0,0.0,0.0,0.0,0.0,0.0,0.0,0.0,0.0,0.0,0.0,0.0,0.0,0.0,0.0,0.0,0.0,0.0,0.0,0.0,0.0,0.0,0.0,0.0,0.0,0.0,0.0,5.5511,5.6819,0.0,0.0,0.0,0.0,5.4049,5.6434,5.9011,6.1589,6.3281,6.609,7.0321,7.0514,7.136,7.3168,7.3322,7.336,7.3399,7.4245,7.463,7.4668,7.5515,7.5861,7.5861,7.5861,7.5861,7.5707,7.3783,7.1091,6.8129,6.7898,6.5859,6.3281,6.5782,6.7205,6.8205,7.0898,7.236,7.3053,7.2899,7.0744,6.7936,6.6821,6.5359,0.0,0.0,6.909,7.0975,7.3591,7.5592,7.6938,7.713,7.7746,7.8323,7.8361,7.7746,7.663,0.0,7.4822,7.4207,7.0629,0.0,7.186,7.2629,7.4409,7.7254,8.1516,8.4362,8.6363,8.7363,8.894,8.9902,8.9902,8.9902,8.9556,8.8748,8.7487,8.5989,8.4293,8.2768,7.9811,7.5191,7.0797,0.0,0.0,0.0,0.0,0.0,0.0,0.0,0.0,0.0,0.0,0.0,0.0,0.0,0.0,0.0,0.0,0.0,0.0,0.0,0.0,0.0,0.0,0.0,0.0,0.0,0.0,0.0,0.0,5.8912,6.0012,0.0,5.7896,5.8742,5.9588,6.0127,6.3051,6.5667,6.7667,6.8859,7.0437,7.2514,7.3091,7.363,7.4284,7.5399,7.5938,7.5976,7.6746,7.713,7.7169,7.7476,7.7592,7.7592,7.7592,7.7592,7.7553,7.6938,7.5361,7.3283,7.3283,7.1898,7.009,7.2091,7.236,7.1975,7.3976,7.4861,7.513,7.513,7.4284,7.3245,7.2937,7.2399,7.2129,7.3053,7.413,7.5361,7.6784,7.8015,7.9169,8.0246,8.0746,8.1093,8.167,8.1554,8.0977,7.9823,7.8092,7.6092,7.3745,7.5438,7.6823,7.6053,7.8284,8.1208,8.4324,8.6017,8.7478,8.8863,9.0056,9.0748,9.0748,9.0748,9.0633,9.0325,8.9017,8.7746,8.6687,8.5299,8.3208,8.0364,7.7666,7.2035,0.0,0.0,0.0,0.0,0.0,0.0,0.0,0.0,0.0,0.0,0.0,0.0,0.0,0.0,0.0,0.0,0.0,0.0,0.0,0.0,0.0,0.0,0.0,0.0,0.0,0.0,6.0764,6.1527,6.3435,6.3858,6.1858,6.3474,6.5013,6.582,6.8244,7.0321,7.1706,7.2591,7.3437,7.4322,7.5168,7.5707,7.5976,7.7438,7.813,7.8169,7.9246,7.9785,7.9785,8.0092,8.0208,8.0208,8.0208,8.0208,8.0208,8.0208,7.9554,7.8477,7.763,7.6592,7.5822,7.7207,7.7015,7.6207,7.7323,7.7323,7.6899,7.7207,7.7092,7.6899,7.7207,7.7284,7.7361,7.763,7.8323,7.9092,7.9631,8.0439,8.1439,8.2824,8.317,8.3401,8.4247,8.4439,8.4286,8.367,8.1323,7.8977,7.7515,7.94,8.0592,7.9208,8.1593,8.4093,8.5517,8.694,8.8248,8.9402,9.0248,9.0748,9.0748,8.9979,8.9863,9.071,8.8863,8.7897,8.8306,8.6125,8.4237,8.2937,8.0277,7.4784,6.632,0.0,0.0,0.0,0.0,0.0,0.0,0.0,0.0,0.0,0.0,0.0,0.0,0.0,0.0,0.0,0.0,0.0,0.0,0.0,0.0,0.0,0.0,0.0,5.5618,6.0085,6.3474,6.3551,6.7244,6.8821,6.6359,6.8359,7.0167,7.0975,7.1822,7.2706,7.3591,7.4399,7.5207,7.6092,7.6938,7.7784,7.8592,7.9477,7.9939,7.9939,8.1593,8.2362,8.2401,8.3285,8.367,8.367,8.367,8.367,8.367,8.367,8.367,8.3439,8.09,7.99,7.9977,8.0862,8.117,8.117,8.117,8.0054,7.8784,7.9631,7.9361,7.8823,7.9669,7.9939,8.0131,8.0977,8.1785,8.2401,8.2439,8.3093,8.3939,8.4824,8.5016,8.5247,8.6017,8.617,8.617,8.617,8.4863,8.3478,8.2593,8.317,8.3439,8.2631,8.4593,0.0,8.517,8.7209,8.8748,8.8748,8.944,8.9902,8.9902,8.7632,8.7286,8.9787,8.703,8.6488,8.8974,8.5268,8.3058,8.2771,7.8353,7.3976,6.9783,0.0,0.0,0.0,0.0,0.0,0.0,0.0,0.0,0.0,0.0,0.0,0.0,0.0,0.0,0.0,0.0,0.0,0.0,0.0,0.0,0.0,0.0,6.0517,6.0248,6.4141,6.7436,6.8667,7.0398,7.1475,7.1437,7.2052,7.2783,7.3591,7.4476,7.5322,7.6207,7.7015,7.7861,7.8746,7.9592,8.0439,8.1246,8.2131,8.2554,8.2554,8.367,8.4209,8.4209,8.5055,8.5401,8.5401,8.5401,8.5401,8.5401,8.5401,8.5401,8.5209,8.3285,8.217,8.1708,8.2593,8.2901,8.2901,8.2901,8.2593,8.2247,8.2477,8.2401,8.2247,8.2477,8.3016,8.3555,8.3785,8.4439,8.5209,8.5824,8.617,8.6594,8.744,8.7671,8.7709,8.794,8.7979,8.7979,8.7979,8.7594,8.7017,8.6132,8.6209,8.6478,8.6863,8.7517,0.0,8.8479,8.9133,8.9556,8.9556,8.9787,8.9902,8.9902,8.9248,8.944,9.0748,8.9444,8.906,9.0133,8.7935,8.6163,8.5014,7.9208,7.4758,0.0,0.0,0.0,0.0,0.0,0.0,0.0,0.0,0.0,0.0,0.0,0.0,0.0,0.0,0.0,0.0,0.0,0.0,0.0,0.0,0.0,0.0,6.1824,6.4974,6.5667,6.7898,6.9937,7.1283,7.2206,7.3091,7.3937,7.4014,7.4514,7.5707,7.6245,7.7053,7.8284,7.9131,8.0131,8.1362,8.1862,8.2554,8.3362,8.4209,8.4632,8.467,8.5901,8.6478,8.6517,8.6978,8.7171,0.0,8.7171,8.7171,8.7171,8.7171,8.7171,0.0,0.0,0.0,0.0,0.0,8.5517,8.5247,8.5593,8.5247,8.4709,8.5055,8.4939,8.4709,8.5093,8.5555,8.6017,8.6401,8.6824,8.7325,8.7825,8.794,8.8171,8.9017,8.921,8.9286,8.9671,8.9748,8.9748,8.9748,8.9748,0.0,8.9094,8.8402,8.7979,8.8132,8.8748,8.9248,8.9363,9.0017,9.0441,9.0441,9.0441,9.0441,9.0441,8.9479,0.0,0.0,0.0,8.8863,8.8863,8.8026,0.0,0.0,0.0,0.0,0.0,0.0,0.0,0.0,6.4743,6.3089,0.0,0.0,0.0,0.0,0.0,0.0,0.0,0.0,0.0,0.0,0.0,0.0,0.0,0.0,0.0,0.0,6.5767,6.9244,7.0821,7.1283,7.1745,7.2552,7.3322,7.413,7.5053,7.513,7.5861,7.7592,7.7707,7.8438,8.0131,0.0,0.0,0.0,0.0,8.4286,8.517,8.5978,8.6401,8.6401,8.8055,8.8825,8.8825,8.894,8.8979,8.8979,8.8979,8.8979,8.8979,8.8979,8.8979,8.8902,8.794,8.7555,8.7632,8.8402,8.8209,8.7671,8.844,0.0,0.0,8.7286,8.7017,8.6555,8.7325,8.7594,8.7825,8.8632,8.8902,8.8979,8.8979,8.8979,8.9171,8.9902,9.0056,9.0287,9.1018,9.121,9.121,9.121,9.121,9.121,9.121,8.9979,8.8709,8.794,8.9094,8.9787,8.9056,9.0287,9.1171,9.1056,0.0,0.0,9.1056,8.8979,8.8671,9.1056,8.9133,8.7622,8.6979,8.7174,8.6433,8.4566,8.3751,8.354,8.4055,8.2978,8.1785,8.0246,6.9206,6.6474,0.0,0.0,0.0,0.0,0.0,0.0,0.0,0.0,0.0,0.0,0.0,0.0,0.0,0.0,0.0,6.4693,6.8064,7.0783,7.1783,7.3707,7.5091,7.5245,7.5399,7.6092,7.763,7.7746,7.8477,8.0246,8.0362,8.1093,8.2785,8.3016,8.3593,8.4632,8.5286,8.6017,8.6901,8.7786,8.8209,8.8209,0.0,0.0,8.971,9.0402,9.071,9.071,9.071,9.071,9.071,9.071,9.0825,9.0787,8.9094,8.844,8.8479,8.8632,8.8594,8.8479,8.8632,8.8479,8.8209,8.8402,8.8325,8.8209,8.8402,8.8902,0.0,8.9633,9.0171,9.071,9.071,9.071,9.0748,9.0902,9.0941,9.0979,9.1171,9.121,9.121,9.121,9.121,9.121,9.121,9.0941,9.0671,9.0479,9.0748,9.0902,9.0748,9.1018,9.0941,9.0248,9.0171,9.0171,9.0171,8.971,8.994,9.1133,9.1095,9.0651,8.9856,9.0208,8.9859,8.8605,8.7603,8.7,8.6901,8.4516,8.3862,8.4747,7.9015,7.6515,0.0,0.0,0.0,0.0,0.0,0.0,0.0,0.0,0.0,0.0,0.0,5.778,0.0,0.0,6.5436,6.7975,7.0552,7.2668,7.3899,7.5553,7.6476,7.6053,7.6746,7.79,7.9631,7.9785,8.0516,8.2208,8.2362,8.2901,8.417,8.4632,8.544,8.6748,8.7171,8.7786,8.8632,8.9094,8.9286,8.9325,9.0171,9.0556,9.0556,9.1018,9.121,9.121,9.121,9.121,9.121,9.1325,9.1402,9.1433,9.0605,9.0209,9.0094,8.9979,8.994,8.994,8.994,8.994,8.994,8.994,8.994,8.994,8.994,9.0248,9.0556,9.0556,9.0864,9.121,9.121,9.121,9.121,9.121,9.121,9.121,9.121,9.121,9.121,9.121,9.121,9.121,9.121,9.121,9.121,9.121,9.121,9.121,9.121,9.121,9.1018,9.0594,9.0556,9.0556,9.0556,9.0556,9.0748,9.1171,9.1518,9.1561,9.1274,9.1559,9.1249,9.0159,8.9601,8.8979,8.8209,8.6824,8.6594,8.7363,8.5247,8.3324,0.0,0.0,0.0,0.0,0.0,0.0,0.0,5.3895,5.5241,5.9204,6.0781,6.2358,6.5282,6.6551,6.809,7.1168,7.2976,7.4514,7.6053,7.7284,7.7784,7.7053,7.8169,7.9669,8.14,8.1593,8.2208,8.3747,8.3978,8.4478,8.5363,8.617,8.7248,8.8671,8.8863,8.9248,8.9902,9.0094,9.0171,9.0171,9.0864,9.121,9.121,9.121,9.121,9.121,9.121,9.121,9.1287,9.1441,9.1556,9.166,9.1834,9.1766,9.1522,9.1356,9.1248,9.121,9.121,9.121,9.121,9.121,9.1248,9.1248,9.121,9.1248,9.1248,9.121,9.121,9.121,9.121,9.121,9.121,9.121,9.121,9.121,9.121,9.121,9.121,9.121,9.121,9.121,9.121,9.121,9.121,9.121,9.121,9.121,9.121,9.121,9.121,9.121,9.121,9.121,9.121,9.121,9.121,9.121,9.1402,9.1616,9.1915,9.2085,9.1775,9.0911,9.0865,9.0325,8.9248,8.9017,8.9017,8.9171,8.9017,8.7748,5.4507,5.3409,5.3315,5.5357,5.5857,5.7319,0.0,6.3089,6.282,6.5551,6.7436,6.8898,6.9975,7.0898,7.2091,7.3976,7.5091,7.6053,7.7015,7.9169,8.0631,8.0554,8.0708,8.1477,8.317,8.3324,8.3708,8.467,8.544,8.6209,8.7055,8.794,8.8479,8.8671,8.9402,8.9825,8.9902,9.0671,9.1056,9.1056,9.1171,9.121,9.121,9.121,9.121,9.121,9.121,9.1287,9.1479,9.1479,9.1748,9.2083,9.195,9.1878,9.182,9.1547,9.1364,9.121,9.121,9.121,9.121,9.121,9.1325,9.1441,9.1248,9.1325,9.1441,9.1248,9.121,9.121,9.121,9.121,9.121,9.121,9.121,9.121,9.121,9.121,9.121,9.121,9.121,9.121,9.121,9.121,9.121,9.121,9.121,9.121,9.121,9.121,9.121,9.121,9.121,9.121,9.121,9.121,9.121,9.121,9.1402,9.1626,9.1881,9.2105,9.2148,9.2028,9.1859,9.1556,9.1171,9.0248,9.0171,9.0902,9.0133,8.9248,6.1223,5.9341,5.7881,6.132,6.1781,6.232,6.582,6.6013,6.6397,6.9436,7.0629,7.1398,7.2245,7.3091,7.4053,0.0,7.6592,7.7938,7.9323,8.0823,8.217,8.3208,8.3708,8.4093,8.4324,8.4786,8.5401,8.6286,8.7132,8.7786,8.8132,8.894,8.9402,8.9402,9.021,9.0671,9.0671,9.1018,9.121,9.121,9.121,9.121,9.121,9.1325,9.1364,9.1364,9.1364,9.1402,9.1514,9.1666,9.189,9.2199,9.2299,9.2187,9.2015,9.1655,9.1364,9.121,9.121,9.121,9.121,9.1325,9.1441,9.1506,9.1604,9.1561,9.1479,9.1402,9.1287,9.121,9.121,9.121,9.121,9.121,9.121,9.121,9.121,9.121,9.121,9.121,9.121,9.121,9.121,9.121,9.121,9.121,9.121,9.121,9.121,9.121,9.121,9.121,9.121,9.121,9.121,9.121,9.121,9.121,9.1287,9.1479,9.1864,9.1976,9.2092,9.2187,9.212,9.1894,9.1479,9.1056,9.0979,9.121,9.0825,9.0479,6.4578,6.3271,6.2194,6.5436,6.6474,6.7013,6.8205,6.8667,6.9552,7.2052,7.2552,7.2899,7.3976,7.4861,7.5784,7.6861,7.8438,7.9977,8.1246,8.2362,8.3555,8.5055,8.5978,8.6363,8.6055,8.6517,8.7094,8.7709,8.8556,8.9017,8.9017,8.9825,9.0287,9.0287,9.0864,9.121,9.121,9.121,9.1248,9.1287,9.1248,9.1287,9.1402,9.1554,9.1608,9.1608,9.1583,9.1633,9.1703,9.189,9.2115,9.2314,9.2526,9.2432,9.2143,9.1823,9.1518,9.1287,9.1287,9.1287,9.1325,9.1441,9.1595,9.1727,9.1877,9.1993,9.203,9.1886,9.1941,9.1979,9.1902,9.1902,9.1902,9.1902,9.1902,9.1902,9.1902,9.1902,9.1902,9.1902,9.1902,9.1902,9.1902,9.1902,9.1902,9.1902,9.171,9.1479,9.1248,9.121,9.121,9.121,9.121,9.121,9.121,9.121,9.121,9.121,9.121,9.1364,9.1748,9.1859,9.1988,9.2187,9.2187,9.1993,9.1608,9.1539,9.1402,9.121,9.121,9.121,6.2858,6.4012,6.5936,6.6821,6.9552,7.1975,7.2014,7.2706,7.336,7.3437,7.3476,7.3976,7.563,7.663,7.7746,7.9438,8.1093,8.2208,8.2247,8.3747,8.5132,8.5978,8.6824,8.7748,0.0,8.8709,8.8632,8.8671,8.9402,8.9863,8.9863,9.071,9.1171,9.1171,9.121,9.121,9.121,9.121,9.1287,9.1479,9.1287,9.1441,9.1861,9.1882,9.1897,9.1917,9.1909,9.2014,9.2168,9.2203,9.2343,9.2577,9.2616,9.2421,9.2212,9.2173,9.1864,9.1479,9.1479,9.1479,9.1479,9.1479,9.1787,9.2145,9.1954,9.2627,9.3361,9.2896,9.3364,9.3977,9.3672,9.3633,9.3633,9.3633,9.3633,9.3633,9.3633,9.3633,9.3633,9.3633,9.3633,9.3633,9.3633,9.3633,9.3633,9.3633,9.2941,9.2172,9.1325,9.121,9.121,9.121,9.121,9.121,9.121,9.121,9.121,9.121,9.121,9.1287,9.1479,9.1781,9.1988,9.2187,9.2187,9.2105,9.1897,9.1629,9.1402,9.121,9.121,9.121,6.6769,6.7539,6.8385,7.086,7.2668,7.386,7.386,7.4514,7.5168,7.5168,7.563,7.6207,7.6746,7.8477,8.0015,8.0554,8.2054,8.3362,8.3939,8.4516,8.5247,8.6247,8.7594,0.0,0.0,0.0,0.0,8.9787,9.0902,9.1364,9.0787,9.1056,9.121,9.121,9.121,9.121,9.121,9.121,9.1248,9.1287,9.1364,9.1633,9.2091,9.2118,9.2092,9.2105,9.211,9.2131,9.2207,9.2207,9.2382,9.2656,9.3242,9.3398,9.3397,9.3973,9.399,9.3502,9.2216,9.1748,9.1787,9.1937,9.2091,9.2319,9.3002,9.3348,9.359,9.3993,9.4234,9.4323,9.4057,9.398,9.3941,9.3749,9.371,9.371,9.371,9.371,9.371,9.371,9.371,9.371,9.371,9.371,9.371,9.371,9.3018,9.2172,9.1325,9.121,9.121,9.121,9.121,9.121,9.121,9.121,9.121,9.121,9.121,9.1287,9.1479,9.1778,9.2016,9.2187,9.2383,9.234,9.2111,9.1876,9.1633,9.1402,9.1248,9.121,6.9993,7.0793,7.1269,7.4021,7.5274,7.5928,7.6236,7.6967,7.766,7.7968,7.7699,7.7583,7.8199,7.9323,8.0477,8.1362,8.3208,8.467,8.5247,8.5593,8.617,8.7171,8.832,8.9337,0.0,0.0,0.0,9.0783,9.1556,9.1787,9.1248,9.121,9.121,9.121,9.121,9.1248,9.1325,9.1325,9.1364,9.1441,9.1721,9.1992,9.2207,9.2599,9.2664,9.2383,9.3008,9.3084,9.2821,9.3131,9.338,9.3594,9.414,9.4375,9.4414,9.5,9.509,9.4757,9.3376,9.2943,9.2938,9.3089,9.3205,9.3396,9.4157,9.4453,9.4687,9.5117,9.5405,9.5452,9.5226,9.5147,9.5095,9.4903,9.4788,9.4749,9.4749,9.4672,9.4634,9.4634,9.4634,9.4634,9.4634,9.4634,9.4518,9.421,9.371,9.3095,9.221,9.2095,9.1979,9.171,9.1672,9.1556,9.1248,9.121,9.121,9.121,9.121,9.1248,9.1402,9.171,9.1967,9.2099,9.2416,9.2416,9.2105,9.1972,9.1732,9.1402,9.1248,9.121,7.2196,7.3625,7.4742,7.635,7.7483,7.8381,7.9201,8.002,8.0761,8.1377,7.9528,7.8219,7.9614,7.9238,7.9477,8.19,8.4439,8.6132,8.617,8.6863,8.7709,0.0,0.0,0.0,0.0,0.0,0.0,9.163,0.0,9.1287,9.121,9.121,9.1248,9.121,9.1248,9.1325,9.1518,9.1549,9.1664,9.1899,9.2366,9.2471,9.2261,9.3398,9.3437,9.2773,9.4453,9.4726,9.4023,9.4844,9.5195,9.5195,9.5234,9.5273,9.5273,9.5312,9.5312,9.5273,9.5039,9.4885,9.4839,9.4839,9.4989,9.5195,9.5234,9.5859,9.6445,9.625,9.6797,9.7335,9.7082,9.7018,9.701,9.7013,9.6784,9.663,9.6596,9.648,9.6326,9.6326,9.6326,9.6326,9.6326,9.6326,9.6019,9.5172,9.5057,9.4749,9.3826,9.371,9.3403,9.2633,9.2556,9.221,9.1325,9.1287,9.1248,9.121,9.121,9.121,9.121,9.1633,9.19,9.1914,9.234,9.239,9.1949,9.1897,9.168,9.1248,9.121,9.121,7.3627,7.595,7.8145,7.8579,8.0221,8.1718,8.1785,8.2437,8.2302,7.9827,7.9777,7.9584,7.7468,7.9361,8.1554,8.217,8.4439,8.6324,8.6978,8.7248,0.0,8.882,0.0,9.0479,9.116,9.1953,0.0,0.0,9.2441,9.2249,9.1248,9.1518,9.1633,9.1441,9.1595,9.1748,9.1787,9.1786,9.1902,9.213,9.2238,9.2345,9.2529,9.3468,9.3789,9.3633,9.4726,9.5078,9.4883,9.5117,9.5195,9.5273,9.5898,9.6172,9.625,9.6836,9.707,9.7031,9.6992,9.6153,9.5104,9.5104,9.5129,9.5312,9.5976,9.6328,9.6601,9.7148,9.7461,9.7577,9.7368,9.7291,9.7238,9.7069,9.6959,9.6889,9.693,9.6865,9.6826,9.6826,9.6634,9.6519,9.6519,9.6403,9.6211,9.6019,9.598,9.5403,9.3903,9.371,9.3633,9.3403,9.3403,9.3056,9.2249,9.2172,9.1902,9.1248,9.121,9.121,9.121,9.1633,9.19,9.1914,9.234,9.2537,9.2439,9.2222,9.1985,9.171,9.1518,9.1325,7.6843,7.919,8.125,8.125,8.2554,8.3614,8.2736,8.3077,8.2716,7.9576,7.9297,7.8853,7.6573,7.893,8.1439,8.217,8.4747,8.7094,8.8325,8.8171,8.8325,0.0,9.0013,0.0,9.1315,9.1798,9.2091,0.0,9.248,9.2305,9.155,9.1753,9.1837,9.1666,9.181,9.1947,9.2053,9.2151,9.2263,9.2365,9.2365,9.2432,9.2656,9.3906,9.4258,9.3984,0.0,9.6094,9.5781,9.6133,9.6289,9.6367,9.6836,9.7031,9.707,9.7539,9.7695,9.7695,9.7695,9.707,9.6289,9.6289,9.6289,9.6406,9.6875,9.7031,9.7109,9.7578,9.7695,9.7656,9.7578,9.7539,9.7496,9.7338,9.7231,9.7174,9.7173,9.7074,9.6996,9.6996,9.6761,9.6603,9.6594,9.6442,9.6288,9.6288,9.6288,9.5942,9.498,9.4826,9.4672,9.4287,9.4249,9.3941,9.3095,9.3018,9.2672,9.1825,9.1787,9.1595,9.121,9.1633,9.19,9.1914,9.234,9.2539,9.2422,9.2263,9.2083,9.1926,9.2029,9.2018,8.0351,8.2344,8.3789,8.3789,8.4492,8.4765,8.3008,8.2883,8.2301,7.9478,7.8006,7.691,7.5947,7.7852,8.0208,8.2016,8.5055,8.7863,8.9671,8.9286,8.9171,8.9979,9.0287,9.0844,9.182,9.1917,9.2002,9.2234,9.2066,9.1948,9.1897,9.1958,9.1968,9.1997,9.1997,9.2073,9.2226,9.25,9.2617,9.2617,9.2617,9.2617,9.2656,9.4414,9.4804,9.4219,9.664,0.0,9.6562,9.7383,9.7656,9.7539,9.7656,9.7695,9.7695,9.7695,9.7695,9.7695,9.7695,9.7695,9.7695,9.7695,9.7695,9.7695,9.7695,9.7695,9.7695,9.7695,9.7695,9.7695,9.7695,9.7695,9.7695,9.7695,9.7578,9.7452,9.7447,9.7255,9.7099,9.7099,9.6877,9.6732,9.6702,9.648,9.6326,9.6326,9.6326,9.6288,9.6288,9.6288,9.6019,9.5249,9.5172,9.4826,9.3941,9.3864,9.348,9.2556,9.2479,9.2095,9.1248,9.1633,9.19,9.1914,9.234,9.25,9.2265,9.2265,9.2156,9.1958,9.2556,9.2815,8.0664,8.2812,8.4687,8.4687,8.5859,8.6562,8.4648,8.3046,8.0784,7.6608,7.5466,7.4735,7.3196,7.6092,7.9515,8.19,8.4555,8.7171,8.9556,8.9787,9.0017,9.0864,9.1171,9.1433,9.1869,9.1882,0.0,0.0,9.2285,9.2054,9.1914,9.2267,9.2483,9.2486,9.2489,9.2482,9.2535,9.2572,9.2617,9.2617,9.2617,9.2617,9.2656,9.4414,9.5117,9.5078,9.6914,0.0,9.6562,9.7383,9.7304,9.6758,9.7422,9.7695,9.7695,9.7695,9.7695,9.7695,9.7695,9.7695,9.7695,9.7695,9.7695,9.7695,9.7695,9.7695,9.7695,9.7695,9.7695,9.7695,9.7695,9.7695,9.7695,9.7695,9.7656,9.7656,9.7648,9.7606,9.7567,9.7567,9.7407,9.7249,9.7259,9.6865,9.6557,9.6557,9.6403,9.6288,9.6288,9.6288,9.6249,9.6095,9.6057,9.5711,9.4826,9.4749,9.4095,9.2595,9.2479,9.2095,9.1248,9.1633,9.19,9.1914,9.234,9.2578,9.2539,9.2539,9.2382,9.2173,9.2799,9.3025,8.1328,8.3242,8.4883,8.4883,8.5859,8.5976,8.2773,8.0843,7.8357,7.3523,7.2619,7.236,7.1129,7.4707,7.84,8.0054,8.3555,8.6824,8.8979,8.9633,9.021,9.1095,9.1287,9.1479,9.1825,9.1754,9.1929,9.255,9.2364,9.2226,9.2247,9.2483,9.2624,9.2617,9.2617,9.2617,9.2617,9.2617,9.2617,9.2617,9.2617,9.2617,9.2656,9.4414,9.5195,9.5273,9.6953,0.0,9.7148,9.7539,9.7461,9.7148,9.7539,9.7695,9.7695,9.7695,9.7695,9.7695,9.7695,9.7695,9.7695,9.7695,9.7695,9.7695,9.7695,9.7695,9.7695,9.7695,9.7695,9.7695,9.7695,9.7695,9.7695,9.7695,9.7695,9.7695,9.7695,9.7695,9.7695,9.7695,9.7539,9.7407,9.7387,9.7076,9.6822,9.6784,9.6596,9.6442,9.6442,9.6365,9.6288,9.6288,9.6288,9.6134,9.5711,9.5672,9.5134,9.3864,9.3787,9.321,9.1941,9.2322,9.2364,9.1914,9.234,9.2617,9.2617,9.2617,9.2773,9.3085,9.3601,9.3981,8.1914,8.3711,8.5117,8.4961,8.5547,8.5117,8.0937,7.8611,7.6008,7.1178,7.0144,7.0014,6.9744,7.3437,7.6976,7.8515,8.2747,8.6517,8.844,8.9556,9.0441,9.1133,9.121,9.1364,9.1825,9.1633,0.0,9.2476,9.2303,9.2307,9.2577,9.2617,9.2617,9.2617,9.2617,9.2617,9.2617,9.2617,9.2617,9.2617,9.2617,9.2617,9.2656,9.4414,9.5195,9.5273,9.6953,0.0,0.0,9.7617,9.7617,9.7461,9.7617,9.7695,9.7695,9.7695,9.7695,9.7695,9.7695,9.7695,9.7695,9.7695,9.7695,9.7695,9.7695,9.7695,9.7695,9.7695,9.7695,9.7695,9.7695,9.7695,9.7695,9.7695,9.7695,9.7695,9.7695,9.7695,9.7695,9.7695,9.7578,9.7461,9.7461,9.7238,9.7069,9.7092,9.6822,9.6586,9.6594,9.6403,9.6288,9.6288,9.6288,9.6288,9.6288,9.6288,9.5942,9.5057,9.498,9.4249,9.2556,9.2938,9.2818,9.1914,9.234,9.2617,9.2617,9.2617,9.3047,9.3906,9.431,9.4934,8.2265,8.414,8.5898,8.5117,8.5547,8.5273,8.1679,7.8143,7.4607,7.0946,6.8719,6.7898,6.9436,7.1975,7.513,7.9054,8.267,8.5863,8.8363,9.0056,9.1133,9.121,9.121,9.1364,9.1825,9.1633,9.1672,9.2207,9.2191,9.2338,9.2578,9.2617,9.2617,9.2617,9.2617,9.2617,9.2617,9.2617,9.2617,9.2617,9.2617,9.2617,9.2656,9.4414,9.5195,9.5273,9.6953,0.0,0.0,9.7383,9.7265,9.6679,9.7422,9.7695,9.7695,9.7695,9.7695,9.7695,9.7695,9.7695,9.7695,9.7695,9.7695,9.7695,9.7695,9.7695,9.7695,9.7695,9.7695,9.7695,9.7695,9.7695,9.7695,9.7695,9.7695,9.7695,9.7695,9.7695,9.7695,9.7695,9.7695,9.7656,9.7656,9.7499,9.7377,9.7371,9.6943,9.6609,9.6592,9.6403,9.6288,9.6288,9.6288,9.6288,9.6288,9.6288,9.5942,9.5057,9.498,9.4249,9.2556,9.2938,9.2818,9.1914,9.234,9.2617,9.2617,9.2617,9.3047,9.3906,9.4496,9.5093,8.2812,8.4609,8.6133,8.5781,8.5156,8.3711,8.0273,7.6542,7.2881,6.9393,6.7449,6.6898,6.859,7.0167,7.2591,7.6823,7.9939,8.2708,8.5247,8.7979,8.9748,8.9859,9.0748,9.1556,9.2053,9.1976,9.2091,9.2399,9.2444,9.2479,9.2577,9.2617,9.2617,9.2617,9.2617,9.2617,9.2617,9.2617,9.2617,9.2617,9.2617,9.2851,9.3437,9.4648,9.5508,9.6054,9.7187,0.0,0.0,9.7578,9.75,9.7265,9.7578,9.7695,9.7695,9.7695,9.7695,9.7695,9.7695,9.7695,9.7695,9.7695,9.7695,9.7695,9.7695,9.7695,9.7695,9.7695,9.7695,9.7695,9.7695,9.7695,9.7695,9.7695,9.7695,9.7695,9.7695,9.7695,9.7695,9.7695,9.7695,9.7695,9.7695,9.7617,9.7578,9.7578,9.731,9.7099,9.7045,9.6711,9.648,9.648,9.6365,9.6288,9.6288,9.6288,9.6134,9.5788,9.5288,9.448,9.3249,9.321,9.2789,9.1914,9.234,9.2617,9.2617,9.2617,9.332,9.4687,9.4773,9.539,8.3203,8.5078,8.6523,8.625,8.4883,8.2695,7.9297,7.5527,7.1816,6.8405,6.6731,6.6397,6.809,6.9321,7.1283,7.5014,7.8207,8.1054,8.3632,8.6478,8.8556,8.9205,9.0364,9.1241,9.1631,9.1925,9.2216,9.2444,9.2504,9.2479,9.2468,9.256,9.2617,9.2617,9.2617,9.2617,9.2617,9.2617,9.2617,9.2617,9.2851,9.332,9.3945,9.5078,9.5781,9.6172,9.7226,0.0,0.0,9.7617,9.7695,9.7695,9.7695,9.7695,9.7695,9.7695,9.7695,9.7695,9.7695,9.7695,9.7695,9.7695,9.7695,9.7695,9.7695,9.7695,9.7695,9.7695,9.7695,9.7695,9.7695,9.7695,9.7695,9.7695,9.7695,9.7695,9.7695,9.7695,9.7695,9.7695,9.7695,9.7695,9.7695,9.7695,9.7695,9.7695,9.7539,9.7415,9.7402,9.7006,9.6718,9.6709,9.6519,9.6365,9.6326,9.6288,9.6288,9.6288,9.548,9.4595,9.3749,9.3403,9.2797,9.1914,9.234,9.2617,9.2617,9.2617,9.3359,9.4804,9.487,9.5664,8.3359,8.5508,8.7265,8.6406,8.4883,8.2695,7.9297,7.5527,7.1816,6.8405,6.6731,6.6397,6.809,6.9744,7.1745,7.4322,7.8284,8.1977,8.4516,8.6363,8.8017,8.971,9.0133,9.0288,9.0337,9.1269,9.1993,9.2182,9.2183,0.0,9.2203,9.2471,9.2617,9.2617,9.2617,9.2617,9.2617,9.2617,9.2617,9.2617,9.3476,9.3906,9.3945,9.5703,9.6015,9.5312,9.6992,9.7265,0.0,9.7383,9.7695,9.7695,9.7695,9.7695,9.7695,9.7695,9.7695,9.7695,9.7695,9.7695,9.7695,9.7695,9.7695,9.7695,9.7695,9.7695,9.7695,9.7695,9.7695,9.7695,9.7695,9.7695,9.7695,9.7695,9.7695,9.7695,9.7695,9.7695,9.7695,9.7695,9.7695,9.7695,9.7695,9.7695,9.7695,9.7695,9.7539,9.7383,9.7382,9.7171,9.6975,9.6975,9.6749,9.6519,9.6326,9.6288,9.6288,9.6288,9.548,9.4595,9.3749,9.3403,9.2797,9.1914,9.234,9.2617,9.2617,9.2617,9.3047,9.3945,9.4804,9.5862,8.1445,8.3281,8.4648,8.375,8.2226,8.0039,7.6601,7.3804,7.0961,6.7494,6.6346,6.6244,6.7321,6.8436,7.0783,7.5668,7.8092,8.0823,8.5132,8.7209,8.8551,8.9205,9.0654,9.1615,9.16,9.2093,9.235,9.2226,9.236,9.2476,9.2476,9.2549,9.2617,9.2617,9.2617,9.2617,9.2617,9.2617,9.2617,9.2617,9.3476,9.4219,9.4844,9.5976,9.664,9.6953,9.7461,9.7578,0.0,9.7578,9.7695,9.7695,9.7695,9.7695,9.7695,9.7695,9.7695,9.7695,9.7695,9.7695,9.7695,9.7695,9.7695,9.7695,9.7695,9.7695,9.7695,9.7695,9.7695,9.7695,9.7695,9.7695,9.7695,9.7695,9.7695,9.7695,9.7695,9.7695,9.7695,9.7695,9.7695,9.7695,9.7695,9.7695,9.7695,9.7695,9.7656,9.7617,9.7617,9.741,9.7252,9.7238,9.6861,9.6576,9.6517,9.6365,9.6057,9.5441,9.4595,9.3749,9.2903,9.2518,9.217,9.1914,9.234,9.2617,9.2617,9.2617,9.3359,9.4804,9.5508,9.5933,7.914,8.1328,8.2578,8.2344,8.0508,7.8125,7.5664,7.2514,6.9535,6.7386,6.6269,6.5936,6.7,6.8155,7.0387,7.4668,7.6861,7.9708,8.4478,8.6363,0.0,8.9431,9.0786,9.1788,9.2325,9.2416,9.2432,9.2343,9.2522,9.2593,9.2593,9.2585,9.2617,9.2617,9.2617,9.2617,9.2617,9.2617,9.2617,9.2617,9.3476,9.4375,9.5234,9.6094,9.6758,9.7265,9.7578,0.0,0.0,9.7578,9.7695,9.7695,9.7695,9.7695,9.7695,9.7695,9.7695,9.7695,9.7695,9.7695,9.7695,9.7695,9.7695,9.7695,9.7695,9.7695,9.7695,9.7695,9.7695,9.7695,9.7695,9.7695,9.7695,9.7695,9.7695,9.7695,9.7695,9.7695,9.7695,9.7695,9.7695,9.7695,9.7695,9.7695,9.7695,9.7695,9.7695,9.7695,9.7695,9.7578,9.75,9.7514,9.7145,9.6859,9.6784,9.648,9.6057,9.5518,9.4672,9.3826,9.2979,9.2592,9.2248,9.1914,9.234,9.2617,9.2617,9.2617,9.332,9.4726,9.5078,9.5294,0.0,7.914,8.0703,8.1484,7.9336,7.6758,7.5742,7.168,0.0,6.775,6.6357,6.5615,6.7102,6.8719,7.0413,7.2245,7.5322,7.8977,8.3247,8.4709,0.0,0.0,9.0734,9.121,9.2525,9.2403,9.23,9.256,9.2577,9.2617,9.2617,9.2617,9.2617,9.2617,9.2617,9.2617,9.2617,9.2617,9.2617,9.2617,9.3476,9.4375,9.5234,9.6094,9.6523,0.0,0.0,0.0,0.0,9.7344,9.7656,9.7695,9.7695,9.7695,9.7695,9.7695,9.7695,9.7695,9.7695,9.7695,9.7695,9.7695,9.7695,9.7695,9.7695,9.7695,9.7695,9.7695,9.7695,9.7695,9.7695,9.7695,9.7695,9.7695,9.7695,9.7695,9.7695,9.7695,9.7695,9.7695,9.7695,9.7695,9.7695,9.7695,9.7695,9.7695,9.7695,9.7695,9.7695,9.7695,9.7695,9.7695,9.7525,9.7328,9.7054,9.6596,9.6288,9.6211,9.5441,9.4557,9.3633,9.3361,9.2818,9.1914,9.234,9.2617,9.2617,9.2617,9.3047,9.3906,9.3906,9.4179,7.0487,0.0,7.5976,7.5547,7.5312,7.4648,0.0,7.0859,6.9088,6.6335,6.5829,6.6108,6.7012,6.8155,7.0541,7.5322,7.7968,8.1085,8.5824,8.8363,0.0,9.2069,9.1877,9.1977,9.2986,9.2721,9.2458,9.2277,9.25,9.2617,9.2617,9.2617,9.2617,9.2617,9.2617,9.2617,9.2617,9.2617,9.2617,9.2617,9.3476,9.4375,9.5234,9.6094,9.6836,0.0,0.0,0.0,9.7383,9.6953,9.7148,9.7695,9.7695,9.7695,9.7695,9.7695,9.7695,9.7695,9.7695,9.7695,9.7695,9.7695,9.7695,9.7695,9.7695,9.7695,9.7695,9.7695,9.7695,9.7695,9.7695,9.7695,9.7695,9.7695,9.7695,9.7695,9.7695,9.7695,9.7695,9.7695,9.7695,9.7695,9.7695,9.7695,9.7695,9.7695,9.7695,9.7695,9.7695,9.7695,9.7695,9.7695,9.7527,9.7355,9.728,9.6826,9.6172,9.5365,9.5095,9.4326,9.2826,9.3054,9.2818,9.1914,9.234,9.2617,9.2617,9.2617,9.3047,9.3906,9.3906,9.3867,6.7482,7.0885,7.3984,7.3906,7.3633,7.3125,7.2109,7.0,6.791,6.6648,6.6051,6.6041,6.7064,6.9321,7.2168,7.5726,7.9345,8.3317,0.0,0.0,9.2618,9.275,9.27,9.2663,9.2715,9.267,9.2546,9.2402,9.2522,9.2617,9.2617,9.2617,9.2617,9.2617,9.2617,9.2617,9.2617,9.2617,9.2617,9.2617,9.3086,9.3984,9.5234,9.5703,9.6562,0.0,0.0,0.0,9.7656,9.6836,9.6953,9.7695,9.7695,9.7695,9.7695,9.7695,9.7695,9.7695,9.7695,9.7695,9.7695,9.7695,9.7695,9.7695,9.7695,9.7695,9.7695,9.7695,9.7695,9.7695,9.7695,9.7695,9.7695,9.7695,9.7695,9.7695,9.7695,9.7695,9.7695,9.7695,9.7695,9.7695,9.7695,9.7695,9.7695,9.7695,9.7695,9.7695,9.7695,9.7695,9.7695,9.7695,9.7617,9.7505,9.7421,9.7109,9.6596,9.5788,9.5249,9.4403,9.3095,9.3169,9.2882,9.2237,9.2489,9.2617,9.2617,9.2617,9.2851,9.3281,9.3281,9.3242,6.6648,7.0121,7.3515,7.375,7.3008,7.2305,7.2656,6.9414,6.6614,6.7521,6.6699,6.6397,6.8205,7.1486,7.4447,7.6139,8.0808,8.5517,8.9363,9.2056,9.3438,9.2861,9.3059,9.3031,9.2436,9.2533,9.2617,9.2617,9.2617,9.2617,9.2617,9.2617,9.2617,9.2617,9.2617,9.2617,9.2617,9.2617,9.2617,9.2617,9.2617,9.3437,9.5,9.5156,9.6054,9.7461,0.0,0.0,9.7656,9.6836,9.6953,9.7695,9.7695,9.7695,9.7695,9.7695,9.7695,9.7695,9.7695,9.7695,9.7695,9.7695,9.7695,9.7695,9.7695,9.7695,9.7695,9.7695,9.7695,9.7695,9.7695,9.7695,9.7695,9.7695,9.7695,9.7695,9.7695,9.7695,9.7695,9.7695,9.7695,9.7695,9.7695,9.7695,9.7695,9.7695,9.7695,9.7695,9.7695,9.7695,9.7695,9.7695,9.7695,9.7617,9.7461,9.7409,9.721,9.6749,9.5672,9.4634,9.3672,9.3235,9.286,9.2617,9.2617,9.2617,9.2617,9.2617,9.2617,9.2617,9.2617,9.2617,6.8452,7.1711,7.3515,7.0937,7.1719,7.2578,7.0547,7.0,6.9335,6.7249,6.7619,6.9463,7.3147,7.4361,7.6447,8.1508,8.4824,8.7555,8.9633,9.0902,9.1941,9.271,9.2402,9.2469,9.3206,9.2873,9.2617,9.2617,9.2617,9.2617,9.2617,9.2617,9.2617,9.2617,9.2617,9.2617,9.2617,9.2617,9.2617,9.2617,9.2617,9.3125,9.4101,9.4844,9.5742,9.6679,0.0,9.6953,9.7656,9.6836,9.6953,9.7695,9.7695,9.7695,9.7695,9.7695,9.7695,9.7695,9.7695,9.7695,9.7695,9.7695,9.7695,9.7695,9.7695,9.7695,9.7695,9.7695,9.7695,9.7695,9.7695,9.7695,9.7695,9.7695,9.7695,9.7695,9.7695,9.7695,9.7695,9.7695,9.7695,9.7695,9.7695,9.7695,9.7695,9.7695,9.7695,9.7695,9.7695,9.7695,9.7695,9.7695,9.7695,9.7695,9.7656,9.7487,9.7364,9.7287,9.6094,9.4711,9.3326,9.2535,9.2235,9.2578,9.2617,9.2617,9.2617,9.2617,9.2617,9.2617,9.2617,9.2617,6.7386,7.0254,7.2588,7.1669,7.4101,7.6445,7.5273,7.4609,7.3555,7.125,7.1315,7.2507,7.4807,7.6996,8.0484,8.6709,8.8902,9.0171,9.1171,9.2018,9.2595,9.2787,9.2681,9.2654,9.2784,9.2664,9.2617,9.2617,9.2617,9.2617,9.2617,9.2617,9.2617,9.2617,9.2617,9.2617,9.2617,9.2617,9.2617,9.2617,9.2617,9.3047,9.3906,9.4297,9.4961,9.5781,0.0,9.6289,9.7031,9.664,9.6953,9.7695,9.7695,9.7695,9.7695,9.7695,9.7695,9.7695,9.7695,9.7695,9.7695,9.7695,9.7695,9.7695,9.7695,9.7695,9.7695,9.7695,9.7695,9.7695,9.7695,9.7695,9.7695,9.7695,9.7695,9.7695,9.7695,9.7695,9.7695,9.7695,9.7695,9.7695,9.7695,9.7695,9.7695,9.7695,9.7695,9.7695,9.7695,9.7304,9.7226,9.7656,9.7304,9.7226,9.7656,9.7221,9.6749,9.6361,9.5288,9.4247,9.3246,9.2363,9.2105,9.2578,9.2617,9.2617,9.2617,9.2617,9.2617,9.2617,9.2617,9.2617,6.7179,6.964,7.2469,7.3865,7.6349,7.8672,7.9492,7.8398,7.6875,7.5781,7.5697,7.6183,7.7316,8.0781,8.5099,9.0094,9.1364,9.1825,9.2133,9.271,9.2979,9.2633,9.2793,9.2734,9.2328,9.249,9.2617,9.2617,9.2617,9.2617,9.2617,9.2617,9.2617,9.2617,9.2617,9.2617,9.2617,9.2617,9.2617,9.2617,9.2617,9.2969,9.3594,9.3828,9.4258,9.4922,9.5312,9.5898,9.6523,9.6719,9.7148,9.7695,9.7695,9.7695,9.7695,9.7695,9.7695,9.7695,9.7695,9.7695,9.7695,9.7695,9.7695,9.7695,9.7695,9.7695,9.7695,9.7695,9.7695,9.7695,9.7695,9.7695,9.7695,9.7695,9.7695,9.7695,9.7695,9.7695,9.7695,9.7695,9.7695,9.7695,9.7695,9.7695,9.7695,9.7695,9.7695,9.7695,9.7695,9.7148,9.7031,9.7617,9.6992,9.6679,9.707,9.6562,9.5924,9.5308,9.4583,9.3785,9.29,9.2289,9.2168,9.2578,9.2617,9.2617,9.2617,9.2617,9.2617,9.2617,9.2617,9.2617,7.0028,7.2354,7.4475,7.6927,7.6105,7.5586,7.8945,7.8398,7.7617,7.9023,7.9842,8.105,8.3406,8.7041,8.9713,8.9979,9.071,9.1248,9.1287,9.1325,9.1518,9.1902,9.2004,9.2132,9.2525,9.2577,9.2617,9.2617,9.2617,9.2617,9.2617,9.2617,9.2617,9.2617,9.2617,9.2617,9.2617,9.2617,9.2617,9.2617,9.2617,9.2617,9.2734,9.3515,9.3945,9.4062,9.5703,9.6445,9.6562,9.7304,9.7656,9.7695,9.7695,9.7695,9.7695,9.7695,9.7695,9.7695,9.7695,9.7695,9.7695,9.7695,9.7695,9.7695,9.7695,9.7695,9.7695,9.7695,9.7695,9.7695,9.7695,9.7695,9.7695,9.7695,9.7695,9.7695,9.7695,9.7695,9.7695,9.7695,9.7695,9.7695,9.7695,9.7695,9.7695,9.7695,9.7695,9.7695,9.7695,9.7656,9.7656,9.7695,9.6992,9.6211,9.5429,9.5312,9.5162,9.4872,9.4528,9.3674,9.2091,9.2122,9.2309,9.2578,9.2617,9.2617,9.2617,9.2617,9.2617,9.2617,9.2617,9.2617,6.8535,7.1339,7.4166,7.5235,7.6516,7.8567,8.2764,8.2812,8.2617,8.4844,8.4687,8.4567,8.5885,8.8761,9.0817,9.0402,9.1056,9.1556,9.1402,9.1287,9.1364,9.1825,9.1888,9.2081,9.2537,9.2617,9.2617,9.2617,9.2617,9.2617,9.2617,9.2617,9.2617,9.2617,9.2617,9.2617,9.2617,9.2617,9.2617,9.2617,9.2617,9.2617,9.2617,9.2929,9.3086,9.3164,9.4375,9.5195,9.5742,9.6601,9.7265,9.7695,9.7695,9.7695,9.7695,9.7695,9.7695,9.7695,9.7695,9.7695,9.7695,9.7695,9.7695,9.7695,9.7695,9.7695,9.7695,9.7695,9.7695,9.7695,9.7695,9.7695,9.7695,9.7695,9.7695,9.7695,9.7695,9.7695,9.7695,9.7695,9.7695,9.7695,9.7695,9.7695,9.7695,9.7695,9.7265,9.7148,9.7656,9.6797,9.6367,9.6914,9.6211,9.5351,9.4453,9.4883,9.4606,9.3277,9.3594,9.3557,9.2943,9.2441,9.2324,9.2578,9.2617,9.2617,9.2617,9.2617,9.2617,9.2617,9.2617,9.2617,6.9292,7.2135,7.5374,7.603,7.8069,8.1011,8.5249,8.5547,8.5703,8.8515,8.7773,8.6875,8.7773,8.9274,9.0415,9.0576,9.132,9.1809,9.1514,9.1364,9.1441,9.1825,9.1888,9.2081,9.2537,9.2617,9.2617,9.2617,9.2617,9.2617,9.2617,9.2617,9.2617,9.2617,9.2617,9.2617,9.2617,9.2617,9.2617,9.2617,9.2617,9.2617,9.2617,9.2617,9.2617,9.2656,9.3515,9.4375,9.5273,9.6133,9.6953,9.7695,9.7695,9.7695,9.7695,9.7695,9.7695,9.7695,9.7695,9.7695,9.7695,9.7695,9.7695,9.7695,9.7695,9.7695,9.7695,9.7695,9.7695,9.7695,9.7695,9.7695,9.7695,9.7695,9.7695,9.7695,9.7695,9.7695,9.7695,9.7695,9.7695,9.7695,9.7695,9.7695,9.7617,9.7344,9.707,9.6992,9.7265,9.6523,9.6015,9.6094,9.5312,9.4453,9.3554,9.4023,9.3789,9.2422,9.2908,9.3203,9.3097,9.2605,9.2432,9.2617,9.2617,9.2617,9.2617,9.2617,9.2617,9.2617,9.2617,9.2617,7.3276,7.5581,7.8606,8.0332,8.0922,8.1964,8.5405,8.5547,8.5898,8.9297,8.8711,8.8008,8.9453,8.8984,8.8889,9.0376,9.1348,9.1816,9.1534,9.1514,9.1595,9.1864,9.1888,9.2081,9.2537,9.2617,9.2617,9.2617,9.2617,9.2617,9.2617,9.2617,9.2617,9.2617,9.2617,9.2617,9.2617,9.2617,9.2617,9.2617,9.2617,9.2617,9.2617,9.2617,9.2617,9.2656,9.3515,9.4375,9.5273,9.6133,9.6953,9.7695,9.7695,9.7695,9.7695,9.7695,9.7695,9.7695,9.7695,9.7695,9.7695,9.7695,9.7695,9.7695,9.7695,9.7695,9.7695,9.7695,9.7695,9.7695,9.7695,9.7695,9.7695,9.7695,9.7695,9.7695,9.7695,9.7695,9.7695,9.7695,9.7695,9.7695,9.7695,9.7695,9.7422,9.664,9.7187,9.7383,9.6601,9.7187,9.7031,9.5351,9.4414,9.3554,9.2656,9.2617,9.2617,9.2617,9.2617,9.249,9.2233,9.2444,9.2617,9.2617,9.2617,9.2617,9.2617,9.2617,9.2617,9.2617,9.2617,9.2617,6.8925,7.3262,7.8039,7.7344,8.1826,8.6386,8.6248,8.6914,8.8203,9.0469,9.1015,9.0859,9.0078,9.0195,9.0584,9.1033,9.1687,9.206,9.1993,9.1733,9.1633,9.2091,9.2004,9.2081,9.2537,9.2617,9.2617,9.2617,9.2617,9.2617,9.2617,9.2617,9.2617,9.2617,9.2617,9.2617,9.2617,9.2617,9.2617,9.2617,9.2617,9.2617,9.2617,9.2617,9.2617,9.2617,9.2851,9.3476,9.4414,9.5898,9.6953,9.7695,9.7695,9.7695,9.7695,9.7695,9.7695,9.7695,9.7695,9.7695,9.7695,9.7695,9.7695,9.7695,9.7695,9.7695,9.7695,9.7695,9.7695,9.7695,9.7695,9.7695,9.7695,9.7695,9.7695,9.7695,9.7695,9.7695,9.7695,9.7695,9.7695,9.7695,9.7695,9.7226,9.6953,9.7304,9.6523,9.5859,9.5625,9.5781,9.5508,9.4414,9.3515,9.289,9.2617,9.2617,9.2617,9.2617,9.2617,9.2567,9.2461,9.2564,9.2617,9.2617,9.2617,9.2617,9.2617,9.2617,9.2617,9.2617,9.2617,9.2617,7.2969,7.7192,8.1384,8.1345,8.4536,8.7812,8.8164,8.8476,8.9179,9.0937,9.1172,9.0937,9.0586,9.0664,9.1015,9.1719,9.2109,9.2304,9.2226,9.1976,9.1888,9.216,9.2113,9.2169,9.2574,9.2617,9.2617,9.2617,9.2617,9.2617,9.2617,9.2617,9.2617,9.2617,9.2617,9.2617,9.2617,9.2617,9.2617,9.2617,9.2617,9.2617,9.2617,9.2617,9.2617,9.2617,9.2969,9.3398,9.4023,9.539,9.6289,9.6719,9.6719,9.6719,9.6758,9.7109,9.7226,9.7265,9.7578,9.7695,9.7695,9.7695,9.7695,9.7695,9.7695,9.7695,9.7695,9.7695,9.7695,9.7695,9.7695,9.7695,9.7695,9.7695,9.7695,9.7695,9.7695,9.7695,9.7695,9.7695,9.7695,9.7695,9.7695,9.7304,9.7031,9.7187,9.6054,9.5195,9.5195,9.4883,9.4492,9.3945,9.3125,9.2617,9.2617,9.2617,9.2617,9.2617,9.2617,9.2617,9.2617,9.2617,9.2617,9.2617,9.2617,9.2617,9.2617,9.2617,9.2617,9.2617,9.2617,9.2617,8.0858,8.3945,8.6523,8.8828,8.7969,8.7344,9.0469,8.9961,8.9297,9.0976,8.9961,8.9336,9.0976,9.0664,9.0664,9.2344,9.2617,9.25,9.2265,9.2226,9.2194,9.2238,9.2233,9.2316,9.2572,9.2617,9.2617,9.2617,9.2617,9.2617,9.2617,9.2617,9.2617,9.2617,9.2617,9.2617,9.2617,9.2617,9.2617,9.2617,9.2617,9.2617,9.2617,9.2617,9.2617,9.2656,9.3437,9.3828,9.3984,9.4844,9.5234,9.5312,9.5312,9.5312,9.539,9.6133,9.6367,9.6484,9.7304,9.7578,9.7617,9.7695,9.7695,9.7695,9.7695,9.7695,9.7695,9.7695,9.7695,9.7695,9.7695,9.7695,9.7695,9.7695,9.7695,9.7695,9.7695,9.7695,9.7695,9.7695,9.7695,9.7695,9.7695,9.7656,9.7304,9.6484,9.5703,9.5156,9.5078,9.4375,9.3867,9.3789,9.3086,9.2617,9.2617,9.2617,9.2617,9.2617,9.2617,9.2617,9.2617,9.2617,9.2617,9.2617,9.2617,9.2617,9.2617,9.2617,9.2617,9.2617,9.2617,9.2617,7.313,7.8594,8.4297,8.4844,8.7109,8.9375,9.0117,9.0,9.0039,9.1094,9.0469,9.0039,9.1094,9.1133,9.1367,9.2422,9.2617,9.2578,9.2539,9.2344,9.2262,9.2482,9.2324,9.2316,9.2572,9.2617,9.2617,9.2617,9.2617,9.2617,9.2617,9.2617,9.2617,9.2617,9.2617,9.2617,9.2617,9.2617,9.2617,0.0,9.2617,9.2617,9.2617,9.2617,9.2617,9.2617,9.2812,9.3281,9.3984,9.4844,9.5586,9.6211,9.6211,9.6211,9.6172,9.5664,9.5469,9.5586,9.6445,9.6758,9.6875,9.75,9.7695,9.7695,9.7695,9.7695,9.7695,9.7695,9.7695,9.7695,9.7695,9.7695,9.7695,9.7695,9.7695,9.7695,9.7695,9.7695,9.7695,9.7695,9.7695,9.7695,9.7695,9.7187,9.6484,9.5625,9.5312,9.4961,9.4258,9.4023,9.3633,9.2969,9.2695,9.2617,9.2617,9.2617,9.2617,9.2617,9.2617,9.2617,9.2617,9.2617,9.2617,9.2617,9.2617,9.2617,9.2617,9.2617,9.2617,9.2617,9.2617,9.2617,7.4742,7.9899,8.4492,8.6211,8.8672,9.0508,9.0117,9.0312,9.0742,9.1211,9.0937,9.0742,9.1211,9.164,9.207,9.2539,9.2617,9.2617,9.2617,9.2461,9.2422,9.2578,9.2479,9.2444,9.2576,9.2617,9.2617,9.2617,9.2617,9.2617,9.2617,9.2617,9.2617,9.2617,9.2617,9.2617,9.2617,9.2617,9.2617,9.2617,9.2617,9.2617,9.2617,9.2617,9.2617,9.2617,9.2617,9.2851,9.332,9.3789,9.4219,9.4648,9.4648,9.4648,9.4648,9.4609,9.457,9.4687,9.5586,9.5898,9.5937,9.6367,9.6484,9.6562,9.6992,9.7148,9.7226,9.7578,9.7695,9.7695,9.7695,9.7695,9.7695,9.7695,9.7695,9.7695,9.7695,9.7695,9.7695,9.7695,9.7695,9.7695,9.7695,9.7031,9.6211,9.5312,9.4844,9.4258,9.3398,9.3281,9.3086,9.2656,9.2617,9.2617,9.2617,9.2617,9.2617,9.2617,9.2617,9.2617,9.2617,9.2617,9.2617,9.2617,9.2617,9.2617,9.2617,9.2617,9.2617,9.2617,9.2617,9.2617,7.7175,8.1597,8.4961,8.8984,9.0547,9.0898,9.0156,9.0781,9.1484,9.1328,9.1289,9.1367,9.1484,9.2109,9.2617,9.2617,9.2617,9.2617,9.2617,9.2617,9.2617,9.2617,9.2617,9.2617,9.2617,9.2617,9.2617,9.2617,9.2617,9.2617,9.2617,9.2617,9.2617,9.2617,9.2617,9.2617,9.2617,9.2617,9.2617,9.2617,9.2617,9.2617,9.2617,9.2617,9.2617,9.2617,9.2617,9.2617,9.2617,9.2773,9.2812,9.2812,9.2812,9.2812,9.289,9.3476,9.3672,9.3789,9.4687,9.4961,9.5,9.5156,9.5195,9.5312,9.6054,9.6367,9.6601,9.7109,9.7383,9.7461,9.7304,9.7383,9.75,9.75,9.7617,9.7695,9.7695,9.7695,9.7695,9.7695,9.7695,9.7695,9.7695,9.6914,9.6015,9.5312,9.4336,9.3437,9.2695,9.2617,9.2617,9.2617,9.2617,9.2617,9.2617,9.2617,9.2617,9.2617,9.2617,9.2617,9.2617,9.2617,9.2617,9.2617,9.2617,9.2617,9.2617,9.2617,9.2617,9.2617,9.2617,9.2617,6.9219,7.5392,8.2851,8.8554,9.0078,9.0156,9.0039,9.125,9.2226,9.1445,9.1289,9.1523,9.2304,9.2539,9.2617,9.2617,9.2617,9.2617,9.2617,9.2617,9.2617,9.2617,9.2617,9.2617,9.2617,9.2617,9.2617,9.2617,9.2617,9.2617,9.2617,9.2617,9.2617,9.2617,9.2617,9.2617,9.2617,9.2617,9.2617,9.2617,9.2617,9.2617,9.2617,9.2617,9.2617,9.2617,9.2617,9.2617,9.2656,9.3398,9.3711,9.3711,9.3711,9.3711,9.3633,9.3008,9.2773,9.289,9.3789,9.4062,9.4219,9.4961,9.5195,9.5234,9.5351,9.5898,9.6367,9.5703,9.6094,9.6484,9.5742,9.6094,9.664,9.664,9.7187,9.7695,9.7695,9.7695,9.7695,9.7695,9.7695,9.7695,9.7695,9.6406,9.5312,9.5234,9.3828,9.2734,9.2617,9.2617,9.2617,9.2617,9.2617,9.2617,9.2617,9.2617,9.2617,9.2617,9.2617,9.2617,9.2617,9.2617,9.2617,9.2617,9.2617,9.2617,9.2617,9.2617,9.2617,9.2617,9.2617,9.2617,7.1688,7.7443,8.2969,8.8594,9.0,9.0,9.0,9.1367,9.2344,9.1484,9.1679,9.2148,9.2539,9.2617,9.2617,9.2617,9.2617,9.2617,9.2617,9.2617,9.2617,9.2617,9.2617,9.2617,9.2617,9.2617,9.2617,9.2617,9.2617,9.2617,9.2617,9.2617,9.2617,9.2617,9.2617,9.2617,9.2617,9.2617,9.2617,9.2617,9.2617,9.2617,9.2617,9.2617,9.2617,9.2617,9.2617,9.2617,9.2617,9.3008,9.3164,9.3164,9.3164,9.3164,9.3125,9.2734,9.2617,9.2656,9.3047,9.3164,9.3242,9.3633,9.375,9.3828,9.4336,9.4726,9.5156,9.5742,9.6211,9.6523,9.6562,9.6562,9.6601,9.707,9.7109,9.7031,9.7031,9.7383,9.7695,9.7695,9.7695,9.7578,9.7109,9.6015,9.5039,9.4531,9.3398,9.2617,9.2617,9.2617,9.2617,9.2617,9.2617,9.2617,9.2617,9.2617,9.2617,9.2617,9.2617,9.2617,9.2617,9.2617,9.2617,9.2617,9.2617,9.2617,9.2617,9.2617,9.2617,9.2617,9.2617,9.2617,7.3061,7.7636,8.0937,8.7109,8.8984,8.9492,8.9883,9.1367,9.2344,9.1484,9.1992,9.2617,9.2617,9.2617,9.2617,9.2617,9.2617,9.2617,9.2617,9.2617,9.2617,9.2617,9.2617,9.2617,9.2617,9.2617,9.2617,9.2617,9.2617,9.2617,9.2617,9.2617,9.2617,9.2617,9.2617,9.2617,9.2617,9.2617,9.2617,9.2617,9.2617,9.2617,9.2617,9.2617,9.2617,9.2617,9.2617,9.2617,9.2617,9.2617,9.2617,9.2617,9.2617,9.2617,9.2617,9.2617,9.2617,9.2617,9.2617,9.2617,9.2656,9.2851,9.2929,9.3047,9.3711,9.4219,9.4687,9.5312,9.5976,9.6484,9.6406,9.6289,9.6289,9.664,9.6445,9.6289,9.6719,9.6953,9.7148,9.7344,9.7226,9.6875,9.6289,9.5469,9.4648,9.3984,9.3164,9.2617,9.2617,9.2617,9.2617,9.2617,9.2617,9.2617,9.2617,9.2617,9.2617,9.2617,9.2617,9.2617,9.2617,9.2617,9.2617,9.2617,9.2617,9.2617,9.2617,9.2617,9.2617,9.2617,9.2617,9.2617,6.828,7.1368,7.4375,8.2773,8.6289,8.8047,8.9648,9.1367,9.2344,9.1484,9.1992,9.2617,9.2617,9.2617,9.2617,9.2617,9.2617,9.2617,9.2617,9.2617,9.2617,9.2617,9.2617,9.2617,9.2617,9.2617,9.2617,9.2617,9.2617,9.2617,9.2617,9.2617,9.2617,9.2617,9.2617,9.2617,9.2617,9.2617,9.2617,9.2617,9.2617,9.2617,9.2617,9.2617,9.2617,9.2617,9.2617,9.2617,9.2617,9.2617,9.2617,9.2617,9.2617,9.2617,9.2617,9.2617,9.2617,9.2617,9.2617,9.2617,9.2734,9.3554,9.3828,9.3828,9.3906,9.5039,9.5859,9.3476,9.4609,9.5937,9.3515,9.4062,9.5078,9.4297,9.4687,9.5703,9.7304,9.6406,9.5586,9.6406,9.5898,9.5312,9.5273,9.4531,9.3945,9.3906,9.3164,9.2617,9.2617,9.2617,9.2617,9.2617,9.2617,9.2617,9.2617,9.2617,9.2617,9.2617,9.2617,9.2617,9.2617,9.2617,9.2617,9.2617,9.2617,9.2617,9.2617,9.2617,9.2617,9.2617,9.2617,9.2617,6.6059,6.9071,7.2205,7.8681,8.255,8.5234,8.6992,8.9648,9.1679,9.1367,9.1992,9.2617,9.2617,9.2617,9.2617,9.2617,9.2617,9.2617,9.2617,9.2617,9.2617,9.2617,9.2617,9.2617,9.2617,9.2617,9.2617,9.2617,9.2617,9.2617,9.2617,9.2617,9.2617,9.2617,9.2617,9.2617,9.2617,9.2617,9.2617,9.2617,9.2617,9.2617,9.2617,9.2617,9.2617,9.2617,9.2617,9.2617,9.2617,9.2617,9.2617,9.2617,9.2617,9.2617,9.2617,9.2617,9.2617,9.2617,9.2617,9.2969,9.3476,9.3789,9.4297,9.4726,9.4726,9.5156,9.5586,9.5195,9.5781,9.6406,9.5976,9.5547,9.5117,9.4804,9.4961,9.5508,9.6679,9.6015,9.5273,9.5625,9.539,9.5039,9.4453,9.4101,9.3711,9.3164,9.2812,9.2617,9.2617,9.2617,9.2617,9.2617,9.2617,9.2617,9.2617,9.2617,9.2617,9.2617,9.2617,9.2617,9.2617,9.2617,9.2617,9.2617,9.2617,9.2617,9.2617,9.2617,9.2617,9.2617,9.2617,9.2617,6.3184,6.629,6.9972,7.5236,7.8791,8.1953,8.5504,8.8164,9.0195,9.1094,9.1992,9.2617,9.2617,9.2617,9.2617,9.2617,9.2617,9.2617,9.2617,9.2617,9.2617,9.2617,9.2617,9.2617,9.2617,9.2617,9.2617,9.2617,9.2617,0.0,9.2617,9.2617,9.2617,9.2617,9.2617,9.2617,9.2617,9.2617,9.2617,9.2617,9.2617,9.2617,9.2617,9.2617,9.2617,9.2617,9.2617,9.2617,9.2617,9.2617,9.2617,9.2617,9.2617,9.2617,9.2617,9.2617,9.2617,9.2656,9.2929,9.3437,9.3984,9.457,9.5156,9.5625,9.5625,9.582,9.6054,9.6054,9.6484,9.6914,9.6875,9.6015,9.5117,9.4844,9.4765,9.4844,9.5117,9.4726,9.4414,9.4726,9.4531,9.414,9.3554,9.3476,9.3281,9.2695,9.2617,9.2617,9.2617,9.2617,9.2617,9.2617,9.2617,9.2617,9.2617,9.2617,9.2617,9.2617,9.2617,9.2617,9.2617,9.2617,9.2617,9.2617,9.2617,9.2617,9.2617,9.2617,9.2617,9.2617,9.2617,9.2617,0.0,0.0,0.0,7.2327,7.5022,7.8239,8.5166,8.6875,8.7773,9.0625,9.1875,9.2461,9.2578,9.2617,9.2617,9.2617,9.2617,9.2617,9.2617,9.2617,9.2617,9.2617,9.2617,9.2617,9.2617,9.2617,9.2617,9.2617,9.2617,9.2617,9.2617,9.2617,9.2617,9.2617,9.2617,9.2617,9.2617,9.2617,9.2617,9.2617,9.2617,9.2617,9.2617,9.2617,9.2617,9.2617,9.2617,9.2617,9.2617,9.2617,9.2617,9.2617,9.2617,9.2617,9.2617,9.2617,9.2617,9.2734,9.3594,9.3906,9.4219,9.5937,9.6523,9.6523,9.6523,9.707,9.7344,9.5742,9.6445,9.7304,9.5625,9.5234,9.5,9.4101,9.3906,9.3672,9.2812,9.2617,9.2851,9.3711,9.3164,9.2617,9.2617,9.2617,9.2617,9.2617,9.2617,9.2617,9.2617,9.2617,9.2617,9.2617,9.2617,9.2617,9.2617,9.2617,9.2617,9.2617,9.2617,9.2617,9.2617,9.2617,9.2617,9.2617,9.2617,9.2617,9.2617,9.2617,9.2617,9.2617,9.2617,9.2617,6.0342,0.0,0.0,0.0,0.0,0.0,7.7733,8.0183,8.2969,8.7578,8.875,8.9687,9.2148,9.2617,9.2617,9.2617,9.2617,9.2617,9.2617,9.2617,9.2617,9.2617,9.2617,9.2617,9.2617,9.2617,9.2617,0.0,9.2617,9.2617,9.2617,9.2617,9.2617,9.2617,9.2617,9.2617,9.2617,9.2617,9.2617,9.2617,9.2617,9.2617,9.2617,9.2617,9.2617,9.2617,9.2617,9.2617,9.2617,9.2617,9.2617,9.2617,9.2617,9.2617,9.2617,9.2617,9.2617,9.2734,9.3594,9.4297,9.5039,9.6133,9.6875,9.7383,9.7383,9.7539,9.7617,9.7148,9.7344,9.7304,9.5625,9.5664,9.5742,9.4258,9.3906,9.3828,9.3594,9.3047,9.2656,9.289,9.2773,9.2617,9.2617,9.2617,9.2617,9.2617,9.2617,9.2617,9.2617,9.2617,9.2617,9.2617,9.2617,9.2617,9.2617,9.2617,9.2617,9.2617,9.2617,9.2617,9.2617,9.2617,9.2617,9.2617,9.2617,9.2617,9.2617,9.2617,9.2617,9.2617,9.2617,9.2617,0.0,0.0,0.0,6.6436,0.0,0.0,7.6573,7.8682,8.13,8.8085,8.9531,9.0234,9.2226,9.289,9.3125,9.3125,9.3437,9.3437,9.2695,9.2617,9.2617,9.2617,9.2617,9.2617,9.2617,9.2617,9.2617,9.2617,9.2617,9.2617,9.2617,9.2617,9.2617,9.2617,9.2617,9.2617,9.2617,9.2617,9.2617,9.2617,9.2617,9.2617,9.2617,9.2617,9.2617,9.2617,9.2617,9.2617,9.2617,9.2617,9.2617,9.2617,9.2617,9.2617,9.2617,9.2617,9.2617,9.2773,9.4023,9.4765,9.5351,9.6211,9.6836,9.7148,9.6758,9.664,9.6719,9.7109,9.7187,9.6875,9.5547,9.5586,9.5625,9.4219,9.3906,9.3789,9.3437,9.2969,9.2617,9.2617,9.2617,9.2617,9.2617,9.2617,9.2617,9.2617,9.2617,9.2617,9.2617,9.2617,9.2617,9.2617,9.2617,9.2617,9.2617,9.2617,9.2617,9.2617,9.2617,9.2617,9.2617,9.2617,9.2617,9.2617,9.2617,9.2617,9.2617,9.2617,9.2617,9.2617,9.2617,9.2617,0.0,0.0,0.0,0.0,0.0,0.0,7.7535,7.8912,8.0611,8.8705,9.0625,9.0976,9.1367,9.2187,9.2733,9.2609,9.3631,9.4062,9.289,9.2734,9.2695,9.2617,9.2617,9.2617,9.2617,9.2617,9.2617,9.2617,9.2617,9.2617,9.2617,9.2617,9.2617,9.2617,9.2617,9.2617,9.2617,9.2617,9.2617,9.2617,9.2617,9.2617,9.2617,9.2617,9.2617,9.2617,9.2617,9.2617,9.2617,9.2617,9.2617,9.2617,9.2617,9.2617,9.2617,9.2617,9.2617,9.2851,9.4492,9.5078,9.5195,9.6054,9.6367,9.6211,9.5429,9.5195,9.5351,9.6133,9.6367,9.6133,9.5273,9.5078,9.4844,9.3945,9.375,9.3554,9.2773,9.2617,9.2617,9.2617,9.2617,9.2617,9.2617,9.2617,9.2617,9.2617,9.2617,9.2617,9.2617,9.2617,9.2617,9.2617,9.2617,9.2617,9.2617,9.2617,9.2617,9.2617,9.2617,9.2617,9.2617,9.2617,9.2617,9.2617,9.2617,9.2617,9.2617,9.2617,9.2617,9.2617,9.2617,9.2617,0.0,0.0,0.0,0.0,0.0,0.0,6.8257,7.0542,7.3932,7.7989,7.9453,8.0859,8.3789,8.5039,8.5322,8.4456,8.7507,9.082,9.3281,9.3633,9.3398,9.2695,9.2617,9.2617,9.2617,9.2617,9.2617,9.2617,9.2617,9.2617,9.2617,9.2617,9.2617,9.2617,9.2617,9.2617,9.2617,9.2617,9.2617,9.2617,9.2617,9.2617,9.2617,9.2617,9.2617,9.2617,9.2617,9.2617,9.2617,9.2617,9.2617,9.2617,9.2617,9.2617,9.2617,9.2617,9.2617,9.2734,9.3789,9.414,9.4297,9.5156,9.5469,9.5429,9.5234,9.5195,9.5234,9.539,9.5469,9.5234,9.4375,9.414,9.3945,9.3047,9.2851,9.2812,9.2656,9.2617,9.2617,9.2617,9.2617,9.2617,9.2617,9.2617,9.2617,9.2617,9.2617,9.2617,9.2617,9.2617,9.2617,9.2617,9.2617,9.2617,9.2617,9.2617,9.2617,9.2617,9.2617,9.2617,9.2617,9.2617,9.2617,9.2617,9.2617,9.2617,9.2617,9.2617,9.2617,9.2617,9.2617,9.2617,0.0,0.0,0.0,6.8321,0.0,0.0,0.0,6.9925,7.1993,7.6976,7.8089,7.8906,8.1211,8.2344,8.2924,8.2816,8.6496,8.9525,8.9998,9.1914,9.3086,9.2656,9.2969,9.3086,9.2656,9.3008,9.3086,9.2617,9.2617,9.2617,9.2617,9.2617,9.2617,9.2617,9.2617,9.2617,9.2617,9.2617,9.2617,9.2617,9.2617,9.2617,9.2617,9.2617,9.2617,9.2617,9.2617,9.2617,9.2617,9.2617,9.2617,9.2617,9.2617,9.2617,9.2617,9.2617,9.2617,9.2734,9.3594,9.3906,9.3984,9.4414,9.4531,9.4453,9.4023,9.4219,9.4453,9.4023,9.4219,9.4336,9.3476,9.3242,9.3125,9.2695,9.2617,9.2617,9.2617,9.2617,9.2617,9.2617,9.2617,9.2617,9.2617,9.2617,9.2617,9.2617,9.2617,9.2617,9.2617,9.2617,9.2617,9.2617,9.2617,9.2617,9.2617,9.2617,9.2617,9.2617,9.2617,9.2617,9.2617,9.2617,9.2617,9.2617,9.2617,9.2617,9.2617,9.2617,9.2617,9.2617,9.2617,9.2617,0.0,0.0,0.0,0.0,0.0,6.8001,0.0,0.0,0.0,7.6746,7.7797,7.7923,7.8593,7.9453,8.0163,8.0514,8.4494,8.6683,8.4271,8.7768,9.0742,9.1094,9.2617,9.3242,9.2187,9.2578,9.289,9.2851,9.207,9.1992,9.2812,9.2695,9.2617,9.2617,9.2617,9.2617,9.2617,9.2617,9.2617,9.2617,9.2617,9.2617,9.2617,9.2617,9.2617,9.2617,9.2617,9.2617,9.2617,9.2617,9.2617,9.2617,9.2617,9.2617,9.2617,9.2617,9.2617,9.2695,9.3398,9.3633,9.3633,9.3633,9.3633,9.3515,9.2812,9.3086,9.3515,9.2812,9.3125,9.3476,9.2773,9.2617,9.2617,9.2617,9.2617,9.2617,9.2617,9.2617,9.2617,9.2617,9.2617,9.2617,9.2617,9.2617,9.2617,9.2617,9.2617,9.2617,9.2617,9.2617,9.2617,9.2617,9.2617,9.2617,9.2617,9.2617,9.2617,9.2617,9.2617,9.2617,9.2617,9.2617,9.2617,9.2617,9.2617,9.2617,9.2617,9.2617,9.2617,9.2617,9.2617,9.2617,0.0,0.0,0.0,0.0,7.1025,0.0,0.0,0.0,6.8655,6.8847,0.0,7.1107,7.0622,0.0,0.0,6.995,7.4722,7.7961,7.5939,8.0173,8.4023,8.5586,8.9883,9.2109,9.0469,8.9687,9.0547,9.3515,9.0234,8.9726,9.3554,9.3008,9.2617,9.2617,9.2617,9.2617,9.2617,9.2617,9.2617,9.2617,9.2617,9.2617,9.2617,9.2617,9.2617,9.2617,9.2617,9.2617,9.2617,9.2617,9.2617,9.2617,9.2617,9.2617,9.2617,9.2617,9.2617,9.2617,9.2695,9.2734,9.2734,9.2734,9.2734,9.2734,9.2617,9.2656,9.2734,9.2617,9.2656,9.2734,9.2617,9.2617,9.2617,9.2617,9.2617,9.2617,9.2617,9.2617,9.2617,9.2617,9.2617,9.2617,9.2617,9.2617,9.2617,9.2617,9.2617,9.2617,9.2617,9.2617,9.2617,9.2617,9.2617,9.2617,9.2617,9.2617,9.2617,9.2617,9.2617,9.2617,9.2617,9.2617,9.2617,9.2617,9.2617,9.2617,9.2617,9.2617,9.2617,9.2617,9.2617,9.2617,0.0,0.0,0.0,0.0,0.0,0.0,6.7832,0.0,6.582,0.0,0.0,0.0,0.0,0.0,0.0,0.0,7.193,7.4126,7.184,7.6454,8.0937,8.3125,8.5312,0.0,8.9765,8.8789,8.9844,9.4336,9.0625,8.9883,9.3711,9.3554,9.3125,9.2617,9.2617,9.2617,9.2617,9.2617,9.2617,9.2617,9.2617,9.2617,9.2617,9.2617,9.2617,9.2617,9.2617,9.2617,9.2617,9.2617,9.2617,9.2617,9.2617,9.2617,9.2617,9.2617,9.2617,9.2617,9.2617,9.2617,9.2617,9.2617,9.2617,9.2617,9.2617,9.2617,9.2617,9.2617,9.2617,9.2617,9.2617,9.2617,9.2617,9.2617,9.2617,9.2617,9.2617,9.2617,9.2617,9.2617,9.2617,9.2617,9.2617,9.2617,9.2617,9.2617,9.2617,9.2617,9.2617,9.2617,9.2617,9.2617,9.2617,9.2617,9.2617,9.2617,9.2617,9.2617,9.2617,9.2617,9.2617,9.2617,9.2617,9.2617,9.2617,9.2617,9.2617,9.2617,9.2617,9.2617,9.2617,9.2617,7.7773,0.0,0.0,0.0,0.0,0.0,0.0,0.0,0.0,0.0,0.0,0.0,0.0,0.0,0.0,0.0,0.0,7.1373,6.8798,7.2405,7.6336,7.914,8.0937,0.0,0.0,8.664,8.7812,9.3672,0.0,8.9453,9.4336,9.414,9.3594,9.2969,9.2734,9.2617,9.2617,9.2617,9.2617,9.2617,9.2617,9.2617,9.2617,9.2617,9.2617,9.2617,9.2617,9.2617,9.2617,9.2617,9.2617,9.2617,9.2617,9.2617,9.2617,9.2617,9.2617,9.2617,9.2617,9.2617,9.2617,9.2617,9.2617,9.2617,9.2617,9.2617,9.2617,9.2617,9.2617,9.2617,9.2617,9.2617,9.2617,9.2617,9.2617,9.2617,9.2617,9.2617,9.2617,9.2617,9.2617,9.2617,9.2617,9.2617,9.2617,9.2617,9.2617,9.2617,9.2617,9.2617,9.2617,9.2617,9.2617,9.2617,9.2617,9.2617,9.2617,9.2617,9.2617,9.2617,9.2617,9.2617,9.2617,9.2617,9.2617,9.2617,9.2617,9.2617,9.2617,9.2617,9.2617,9.2617,0.0,0.0,0.0,7.375,0.0,0.0,0.0,0.0,6.8448,0.0,0.0,0.0,0.0,0.0,0.0,0.0,0.0,0.0,0.0,6.6633,6.8541,7.1949,7.75,0.0,0.0,8.1953,8.3125,0.0,8.6679,0.0,9.5976,9.4804,9.3906,9.3867,9.3047,9.2617,9.2617,9.2617,9.2617,9.2617,9.2617,9.2617,9.2617,9.2617,9.2617,9.2617,9.2617,9.2617,9.2617,9.2617,9.2617,9.2617,9.2617,9.2617,9.2617,9.2617,9.2617,9.2617,9.2617,9.2617,9.2617,9.2617,9.2617,9.2617,9.2617,9.2617,9.2617,9.2617,9.2617,9.2617,9.2617,9.2617,9.2617,9.2617,9.2617,9.2617,9.2617,9.2617,9.2617,9.2617,9.2617,9.2617,9.2617,9.2617,9.2617,9.2617,9.2617,9.2617,9.2617,9.2617,9.2617,9.2617,9.2617,9.2617,9.2617,9.2617,9.2617,9.2617,9.2617,9.2617,9.2617,9.2617,9.2617,9.2617,9.2617,9.2617,9.2617,9.2617,9.2617,9.2617,9.2617,9.2617,0.0,0.0,8.3359,7.7031,0.0,0.0,0.0,0.0,0.0,0.0,0.0,0.0,0.0,0.0,0.0,0.0,0.0,0.0,0.0,6.5414,6.6587,6.8396,7.3342,7.6992,0.0,0.0,0.0,0.0,8.7969,0.0,0.0,9.4844,9.3906,9.3906,9.3047,9.2617,9.2617,9.2617,9.2617,9.2617,9.2617,9.2617,9.2617,9.2617,9.2617,9.2617,9.2617,9.2617,9.2617,9.2617,9.2617,9.2617,9.2617,9.2617,9.2617,9.2617,9.2617,9.2617,9.2617,9.2617,9.2617,9.2617,9.2617,9.2617,9.2617,9.2617,9.2617,9.2617,9.2617,9.2617,9.2617,9.2617,9.2617,9.2617,9.2617,9.2617,9.2617,9.2617,9.2617,9.2617,9.2617,9.2617,9.2617,9.2617,9.2617,9.2617,9.2617,9.2617,9.2617,9.2617,9.2617,9.2617,9.2617,9.2617,9.2617,9.2617,9.2617,9.2617,9.2617,9.2617,9.2617,9.2617,9.2617,9.2617,9.2617,9.2617,9.2617,9.2617,9.2617,9.2617,9.2617,9.2617,8.4844,8.582,0.0,7.9961,7.8437,0.0,7.2226,0.0,7.1546,0.0,0.0,0.0,0.0,0.0,0.0,0.0,0.0,0.0,0.0,6.4739,6.5635,6.6251,7.0016,7.3555,7.6172,0.0,0.0,0.0,0.0,0.0,0.0,0.0,9.4258,9.4375,9.3203,9.2617,9.2617,9.2617,9.2617,9.2617,9.2617,9.2617,9.2617,9.2617,9.2617,9.2617,9.2617,9.2617,9.2617,9.2617,9.2617,9.2617,9.2617,9.2617,9.2617,9.2617,9.2617,9.2617,9.2617,9.2617,9.2617,9.2617,9.2617,9.2617,9.2617,9.2617,9.2617,9.2617,9.2617,9.2617,9.2617,9.2617,9.2617,9.2617,9.2617,9.2617,9.2617,9.2617,9.2617,9.2617,9.2617,9.2617,9.2617,9.2617,9.2617,9.2617,9.2617,9.2617,9.2617,9.2617,9.2617,9.2617,9.2617,9.2617,9.2617,9.2617,9.2617,9.2617,9.2617,9.2617,9.2617,9.2617,9.2617,9.2617,9.2617,9.2617,9.2617,9.2617,9.2617,9.2617,9.2617,9.2617]},{"header":{"parameterUnit":"m.s-1","parameterCategory":1,"la1":30.6,"la2":29.2853,"lo1":-89.7004,"lo2":-87.6739,"dx":0.0162,"dy":0.0183,"nx":112,"ny":82,"refTime":"2022-12-24T18:00:00:Z","depth":0,"parameterNumber":3,"parameterNumberName":"V-component_of_WINDS"},"data":[0.0,0.0,0.0,0.0,0.0,0.0,0.0,0.0,0.0,0.0,0.0,0.0,0.0,0.0,0.0,0.0,0.0,0.0,0.0,0.0,0.0,0.0,0.0,0.0,0.0,0.0,0.0,0.0,0.0,0.0,0.0,0.0,0.0,0.0,0.0,0.0,0.0,0.0,0.0,0.0,0.0,0.0,0.0,0.0,0.0,0.0,0.0,0.0,0.0,0.0,0.0,0.0,0.0,0.0,0.0,0.0,0.0,0.0,0.0,0.0,0.0,0.0,0.0,0.0,0.0,0.0,0.0,0.0,0.0,0.0,0.0,0.0,0.0,0.0,0.0,0.0,0.0,0.0,0.0,0.0,0.0,0.0,0.0,0.0,0.0,0.0,0.0,0.0,0.0,0.0,-1.569,-1.5395,-1.4205,-1.3505,-1.3682,-1.3308,-1.2481,-1.1104,0.0,0.0,0.0,0.0,0.0,0.0,0.0,0.0,0.0,0.0,0.0,0.0,0.0,0.0,0.0,0.0,0.0,0.0,0.0,0.0,0.0,0.0,0.0,0.0,0.0,0.0,0.0,0.0,0.0,0.0,0.0,0.0,0.0,0.0,0.0,0.0,0.0,0.0,0.0,0.0,0.0,0.0,0.0,0.0,0.0,0.0,0.0,0.0,0.0,0.0,0.0,0.0,0.0,0.0,0.0,0.0,0.0,0.0,0.0,0.0,0.0,0.0,0.0,0.0,0.0,0.0,0.0,0.0,0.0,0.0,0.0,0.0,0.0,0.0,0.0,0.0,0.0,0.0,0.0,0.0,0.0,0.0,0.0,0.0,0.0,0.0,0.0,0.0,0.0,0.0,0.0,0.0,0.0,0.0,0.0,0.0,0.0,0.0,0.0,0.0,0.0,0.0,0.0,0.0,-1.3456,-1.3749,-1.3707,-1.3709,-1.398,-1.3709,-1.2895,-1.1416,0.0,0.0,0.0,0.0,0.0,0.0,0.0,0.0,0.0,0.0,0.0,0.0,0.0,0.0,0.0,0.0,0.0,0.0,0.0,0.0,0.0,0.0,0.0,0.0,0.0,0.0,0.0,0.0,0.0,0.0,0.0,0.0,0.0,0.0,0.0,0.0,0.0,0.0,0.0,0.0,0.0,0.0,0.0,0.0,0.0,0.0,0.0,0.0,0.0,0.0,0.0,0.0,0.0,0.0,0.0,0.0,0.0,0.0,0.0,0.0,0.0,0.0,0.0,0.0,0.0,0.0,0.0,0.0,0.0,0.0,0.0,0.0,0.0,0.0,0.0,0.0,0.0,0.0,0.0,0.0,0.0,0.0,0.0,0.0,0.0,0.0,0.0,0.0,0.0,0.0,0.0,0.0,0.0,0.0,0.0,0.0,0.0,0.0,0.0,0.0,0.0,0.0,0.0,-1.4567,-1.375,-1.3494,-1.3654,-1.3865,-1.417,-1.3851,-1.3057,-1.1714,-1.0507,0.0,0.0,0.0,0.0,0.0,0.0,0.0,0.0,0.0,0.0,0.0,0.0,0.0,0.0,0.0,0.0,0.0,0.0,0.0,0.0,0.0,0.0,0.0,0.0,0.0,0.0,0.0,0.0,0.0,0.0,0.0,0.0,0.0,0.0,0.0,0.0,0.0,0.0,0.0,0.0,0.0,0.0,0.0,0.0,0.0,0.0,0.0,0.0,0.0,0.0,0.0,0.0,0.0,0.0,0.0,0.0,0.0,0.0,0.0,0.0,0.0,0.0,0.0,0.0,0.0,0.0,0.0,0.0,0.0,0.0,0.0,0.0,0.0,0.0,0.0,0.0,0.0,0.0,0.0,0.0,0.0,0.0,0.0,0.0,0.0,0.0,0.0,0.0,0.0,0.0,0.0,0.0,0.0,0.0,0.0,0.0,0.0,0.0,0.0,0.0,0.0,0.0,-1.4929,-1.4637,-1.3734,-1.3838,-1.4055,-1.4326,-1.4,-1.3227,-1.1911,-1.0778,0.0,0.0,0.0,0.0,0.0,0.0,0.0,0.0,0.0,0.0,0.0,0.0,0.0,0.0,0.0,0.0,0.0,0.0,0.0,0.0,0.0,0.0,0.0,0.0,0.0,0.0,0.0,0.0,0.0,0.0,0.0,0.0,0.0,0.0,0.0,0.0,0.0,0.0,0.0,0.0,0.0,0.0,0.0,0.0,0.0,0.0,0.0,0.0,0.0,0.0,0.0,0.0,0.0,0.0,0.0,0.0,0.0,0.0,0.0,0.0,0.0,0.0,0.0,0.0,0.0,0.0,0.0,0.0,0.0,0.0,0.0,0.0,0.0,0.0,0.0,0.0,0.0,0.0,0.0,0.0,0.0,0.0,0.0,0.0,0.0,0.0,0.0,0.0,0.0,0.0,0.0,0.0,0.0,0.0,0.0,0.0,0.0,0.0,0.0,0.0,0.0,0.0,-1.5119,-1.5192,-1.3926,-1.4089,-1.4333,-1.4482,-1.4346,-1.3559,-1.1932,-1.0968,0.0,0.0,0.0,0.0,0.0,0.0,0.0,0.0,0.0,0.0,0.0,0.0,0.0,0.0,0.0,0.0,0.0,0.0,0.0,0.0,0.0,0.0,0.0,0.0,0.0,0.0,0.0,0.0,0.0,0.0,0.0,0.0,0.0,0.0,0.0,0.0,0.0,0.0,0.0,0.0,0.0,0.0,0.0,0.0,0.0,0.0,0.0,0.0,0.0,0.0,0.0,0.0,0.0,0.0,0.0,0.0,0.0,0.0,0.0,0.0,0.0,0.0,0.0,0.0,0.0,0.0,0.0,0.0,0.0,0.0,0.0,0.0,0.0,0.0,0.0,0.0,0.0,0.0,0.0,0.0,0.0,0.0,0.0,0.0,0.0,0.0,0.0,0.0,0.0,0.0,0.0,0.0,0.0,0.0,0.0,0.0,0.0,0.0,0.0,0.0,0.0,0.0,-1.3993,-1.3699,-1.3878,-1.417,-1.4394,-1.4631,-1.4346,-1.3614,-1.2332,0.0,0.0,0.0,0.0,0.0,0.0,0.0,0.0,0.0,0.0,0.0,0.0,0.0,0.0,0.0,0.0,0.0,0.0,0.0,0.0,0.0,0.0,0.0,0.0,0.0,0.0,0.0,0.0,0.0,0.0,0.0,0.0,0.0,0.0,0.0,0.0,0.0,0.0,0.0,0.0,0.0,0.0,0.0,0.0,0.0,0.0,0.0,0.0,0.0,0.0,0.0,0.0,0.0,0.0,0.0,0.0,0.0,0.0,0.0,0.0,0.0,0.0,0.0,0.0,0.0,0.0,0.0,0.0,0.0,0.0,0.0,0.0,0.0,0.0,0.0,0.0,0.0,0.0,0.0,0.0,0.0,0.0,0.0,0.0,0.0,0.0,0.0,0.0,0.0,0.0,0.0,0.0,0.0,0.0,0.0,0.0,0.0,0.0,0.0,0.0,0.0,0.0,-1.4391,-1.3475,-1.3085,-1.4041,-1.4319,-1.4543,-1.4794,-1.4441,-1.3722,-1.2576,0.0,0.0,0.0,0.0,0.0,0.0,0.0,0.0,0.0,0.0,0.0,0.0,0.0,0.0,0.0,0.0,0.0,0.0,0.0,0.0,0.0,0.0,0.0,0.0,0.0,0.0,0.0,0.0,0.0,0.0,0.0,0.0,0.0,0.0,0.0,0.0,0.0,0.0,0.0,0.0,0.0,0.0,0.0,0.0,0.0,0.0,0.0,0.0,0.0,0.0,0.0,0.0,0.0,0.0,0.0,0.0,0.0,0.0,0.0,0.0,0.0,0.0,0.0,0.0,0.0,0.0,0.0,0.0,0.0,0.0,0.0,0.0,0.0,0.0,0.0,0.0,0.0,0.0,0.0,0.0,0.0,0.0,0.0,0.0,0.0,0.0,0.0,0.0,0.0,0.0,0.0,0.0,0.0,0.0,0.0,0.0,0.0,0.0,0.0,0.0,0.0,0.0,-1.4484,-1.4083,-1.3804,-1.4258,-1.457,-1.4808,-1.4964,-1.4692,-1.3939,0.0,0.0,0.0,0.0,0.0,0.0,0.0,0.0,0.0,0.0,0.0,0.0,0.0,0.0,0.0,0.0,0.0,0.0,0.0,0.0,0.0,0.0,0.0,0.0,0.0,0.0,0.0,0.0,0.0,0.0,0.0,0.0,0.0,0.0,0.0,0.0,0.0,0.0,0.0,0.0,0.0,0.0,0.0,0.0,0.0,0.0,0.0,0.0,0.0,0.0,0.0,0.0,0.0,0.0,0.0,0.0,0.0,0.0,0.0,0.0,0.0,0.0,0.0,0.0,0.0,0.0,0.0,0.0,0.0,0.0,0.0,0.0,0.0,0.0,0.0,0.0,0.0,0.0,0.0,0.0,0.0,0.0,0.0,0.0,0.0,0.0,0.0,0.0,0.0,0.0,0.0,0.0,0.0,0.0,0.0,0.0,0.0,0.0,0.0,0.0,0.0,0.0,0.0,-1.4892,-1.423,-1.3878,-1.4536,-1.4787,-1.5004,-1.5262,-1.4909,-1.4095,-1.2745,0.0,0.0,0.0,0.0,0.0,0.0,0.0,0.0,0.0,0.0,0.0,0.0,0.0,0.0,0.0,0.0,0.0,0.0,0.0,0.0,0.0,0.0,0.0,0.0,0.0,0.0,0.0,0.0,0.0,0.0,0.0,0.0,0.0,0.0,0.0,0.0,0.0,0.0,0.0,0.0,0.0,0.0,0.0,0.0,0.0,0.0,0.0,0.0,0.0,0.0,0.0,0.0,0.0,0.0,0.0,0.0,0.0,0.0,0.0,0.0,0.0,0.0,0.0,0.0,0.0,0.0,0.0,0.0,0.0,0.0,0.0,0.0,0.0,0.0,0.0,0.0,0.0,0.0,0.0,0.0,0.0,0.0,0.0,0.0,0.0,0.0,0.0,0.0,0.0,0.0,0.0,0.0,0.0,0.0,0.0,0.0,0.0,0.0,0.0,0.0,0.0,0.0,-1.5069,-1.4345,-1.3953,-1.4584,-1.4841,-1.5065,-1.5303,-1.4909,-1.4183,-1.3091,0.0,0.0,0.0,0.0,0.0,0.0,0.0,0.0,0.0,0.0,0.0,0.0,0.0,0.0,0.0,0.0,0.0,0.0,0.0,0.0,0.0,0.0,0.0,0.0,0.0,0.0,0.0,0.0,0.0,0.0,0.0,0.0,0.0,0.0,0.0,0.0,0.0,0.0,0.0,0.0,0.0,0.0,0.0,0.0,0.0,0.0,0.0,0.0,0.0,0.0,0.0,0.0,0.0,0.0,0.0,0.0,0.0,0.0,0.0,0.0,0.0,0.0,0.0,0.0,0.0,0.0,0.0,0.0,0.0,0.0,0.0,0.0,0.0,0.0,0.0,0.0,0.0,0.0,0.0,0.0,0.0,0.0,0.0,0.0,0.0,0.0,0.0,0.0,0.0,0.0,0.0,0.0,0.0,0.0,0.0,0.0,0.0,0.0,0.0,0.0,0.0,0.0,-1.518,-1.4484,-1.4048,-1.4523,-1.4821,-1.5052,-1.5194,-1.4814,-1.4251,-1.3672,0.0,0.0,0.0,0.0,0.0,0.0,0.0,0.0,0.0,0.0,0.0,0.0,0.0,0.0,0.0,0.0,0.0,0.0,0.0,0.0,0.0,0.0,0.0,0.0,0.0,0.0,0.0,0.0,0.0,0.0,0.0,0.0,0.0,0.0,0.0,0.0,0.0,0.0,0.0,0.0,0.0,0.0,0.0,0.0,0.0,0.0,0.0,0.0,0.0,0.0,0.0,0.0,0.0,0.0,0.0,0.0,0.0,0.0,0.0,0.0,-0.7997,0.0,0.0,0.0,0.0,0.0,0.0,0.0,0.0,0.0,0.0,0.0,0.0,0.0,0.0,0.0,0.0,0.0,0.0,0.0,0.0,0.0,0.0,0.0,0.0,0.0,0.0,0.0,0.0,0.0,0.0,0.0,0.0,0.0,0.0,0.0,0.0,0.0,0.0,0.0,0.0,0.0,-1.6159,-1.5046,-1.4285,-1.497,-1.5099,-1.5201,-1.535,-1.5167,-1.4577,-1.3485,-1.2522,0.0,0.0,0.0,0.0,0.0,0.0,0.0,0.0,0.0,0.0,0.0,0.0,0.0,0.0,0.0,0.0,0.0,0.0,0.0,0.0,0.0,0.0,0.0,0.0,0.0,0.0,0.0,0.0,0.0,0.0,0.0,0.0,0.0,0.0,0.0,0.0,0.0,0.0,0.0,0.0,0.0,0.0,0.0,0.0,0.0,0.0,0.0,0.0,0.0,0.0,0.0,0.0,0.0,0.0,0.0,0.0,0.0,0.0,0.0,0.0,-0.8391,0.0,0.0,0.0,0.0,0.0,0.0,0.0,0.0,0.0,0.0,0.0,0.0,0.0,0.0,0.0,0.0,0.0,0.0,0.0,0.0,0.0,0.0,0.0,0.0,0.0,0.0,0.0,0.0,0.0,0.0,0.0,0.0,0.0,0.0,0.0,0.0,0.0,0.0,0.0,0.0,-1.5395,-1.469,-1.436,-1.5106,-1.5248,-1.5323,-1.5404,-1.5269,-1.5018,-1.4368,-1.3415,0.0,0.0,0.0,0.0,0.0,0.0,0.0,0.0,0.0,0.0,0.0,0.0,0.0,0.0,0.0,0.0,0.0,0.0,0.0,0.0,0.0,0.0,0.0,0.0,0.0,0.0,0.0,0.0,0.0,0.0,0.0,0.0,0.0,0.0,0.0,0.0,0.0,0.0,0.0,0.0,0.0,0.0,0.0,0.0,0.0,0.0,0.0,0.0,0.0,0.0,0.0,0.0,0.0,-1.0175,-1.0399,-1.0405,-1.0405,-1.0677,-1.1084,-1.0093,-0.9781,-0.991,-0.9049,0.0,0.0,0.0,0.0,0.0,0.0,0.0,0.0,0.0,0.0,0.0,0.0,0.0,0.0,0.0,0.0,0.0,0.0,0.0,0.0,0.0,0.0,0.0,0.0,-1.0744,-1.0758,0.0,0.0,0.0,0.0,0.0,0.0,0.0,0.0,0.0,0.0,0.0,0.0,-1.4513,-1.4383,-1.4455,-1.5147,-1.5357,-1.5452,-1.5452,-1.5337,-1.5272,-1.5223,-1.4394,-1.2888,0.0,0.0,0.0,0.0,0.0,0.0,0.0,0.0,0.0,0.0,0.0,0.0,0.0,0.0,0.0,0.0,0.0,0.0,0.0,0.0,0.0,0.0,0.0,0.0,0.0,0.0,0.0,0.0,0.0,0.0,0.0,0.0,-0.7917,-0.7753,0.0,0.0,0.0,0.0,0.0,0.0,0.0,0.0,0.0,0.0,0.0,0.0,0.0,-0.9557,-0.9869,-1.0575,-1.0928,-1.0934,-1.1518,-1.1796,-1.1796,-1.1796,-1.1837,-1.1904,-1.1748,0.0,-1.0588,-1.0453,0.0,0.0,0.0,0.0,0.0,0.0,0.0,0.0,0.0,0.0,0.0,0.0,0.0,0.0,0.0,0.0,0.0,0.0,0.0,0.0,0.0,0.0,-1.1972,-1.1993,-1.2135,-1.2223,0.0,-1.0843,-0.9952,-1.0763,-1.0842,0.0,0.0,0.0,0.0,0.0,0.0,0.0,-1.5441,-1.5089,-1.4841,-1.533,-1.552,-1.5608,-1.5608,-1.5588,-1.5391,-1.5135,-1.4951,-1.2706,-0.7569,-0.3028,0.0,0.0,0.0,0.0,0.0,0.0,0.0,0.0,0.0,0.0,0.0,0.0,0.0,0.0,0.0,0.0,0.0,0.0,0.0,0.0,0.0,0.0,0.0,0.0,0.0,0.0,0.0,0.0,0.0,-0.9288,-0.8855,-0.8508,-0.8052,-0.7699,0.0,0.0,0.0,0.0,0.0,0.0,0.0,0.0,0.0,-1.0861,-1.0663,-1.0663,-1.105,-1.1626,-1.1918,-1.1918,-1.2359,-1.2569,-1.2569,-1.2569,-1.2569,-1.2569,-1.2569,-1.2345,-1.1925,-1.1246,-1.0663,-1.0141,0.0,0.0,0.0,0.0,-0.9496,-0.9557,-1.0188,-1.05,0.0,-1.0236,0.0,0.0,0.0,0.0,0.0,0.0,0.0,0.0,0.0,0.0,0.0,-1.2705,-1.2834,-1.2901,-1.299,-1.2338,-1.166,0.0,-1.1128,-1.0988,-1.0685,0.0,0.0,0.0,0.0,-1.4189,-1.4541,-1.4583,-1.4943,-1.5479,-1.5669,-1.5757,-1.5757,-1.5757,-1.5642,-1.5364,-1.5245,-1.277,-0.7512,-0.2617,-0.258,0.0,0.0,0.0,0.0,0.0,0.0,0.0,0.0,0.0,0.0,0.0,0.0,0.0,0.0,0.0,0.0,0.0,0.0,0.0,0.0,0.0,0.0,0.0,0.0,0.0,0.0,0.0,0.0,-1.0467,-0.977,-0.9229,-0.894,-0.8608,0.0,0.0,0.0,0.0,0.0,0.0,-0.993,-1.0127,-1.0568,-1.1321,-1.145,-1.1701,-1.2115,-1.2454,-1.2623,-1.2623,-1.2888,-1.3017,-1.3017,-1.3057,-1.3071,-1.3071,-1.3071,-1.3071,-1.2996,-1.2026,-1.1531,-1.1335,-1.0778,-1.0473,-1.0378,-1.0711,-1.0717,-1.0677,-1.1463,-1.1762,-1.1735,-1.1402,0.0,-1.124,-1.0426,0.0,0.0,0.0,0.0,-1.1307,-1.187,-1.2325,-1.2745,-1.3186,-1.3315,-1.3376,-1.3492,-1.3485,-1.3139,0.0,-1.1789,-1.1402,-1.0358,0.0,0.0,0.0,0.0,-1.4266,-1.3926,-1.4441,-1.5038,-1.5527,-1.5744,-1.5852,-1.5852,-1.5852,-1.5791,-1.5649,-1.5519,-1.3132,-0.7742,-0.2787,-0.2135,-0.6656,0.0,0.0,0.0,0.0,0.0,0.0,0.0,0.0,0.0,0.0,0.0,0.0,0.0,0.0,0.0,0.0,0.0,0.0,0.0,0.0,0.0,0.0,0.0,0.0,0.0,0.0,0.0,0.0,0.0,-0.9788,-1.0019,0.0,0.0,0.0,0.0,-0.953,-0.9951,-1.0405,-1.086,-1.1158,-1.1653,-1.24,-1.2433,-1.2583,-1.2901,-1.2929,-1.2935,-1.2942,-1.3091,-1.3159,-1.3166,-1.3315,-1.3376,-1.3376,-1.3376,-1.3376,-1.3349,-1.301,-1.2535,-1.2013,-1.1972,-1.1613,-1.1158,-1.1599,-1.185,-1.2026,-1.2501,-1.2759,-1.2881,-1.2854,-1.2474,-1.1979,-1.1782,-1.1525,0.0,0.0,-1.2182,-1.2515,-1.2976,-1.3329,-1.3566,-1.36,-1.3709,-1.381,-1.3817,-1.3709,-1.3512,0.0,-1.3193,-1.3085,-1.2454,0.0,-1.2671,-1.2807,-1.3288,-1.3796,-1.4373,-1.4875,-1.5228,-1.5404,-1.5683,-1.5852,-1.5852,-1.5852,-1.5791,-1.5649,-1.582,-1.3427,-0.7745,-0.271,-0.2264,-0.6909,-1.1213,0.0,0.0,0.0,0.0,0.0,0.0,0.0,0.0,0.0,0.0,0.0,0.0,0.0,0.0,0.0,0.0,0.0,0.0,0.0,0.0,0.0,0.0,0.0,0.0,0.0,0.0,0.0,0.0,-1.052,-1.0582,0.0,-1.0209,-1.0358,-1.0507,-1.0602,-1.1118,-1.1579,-1.1932,-1.2142,-1.242,-1.2786,-1.2888,-1.2983,-1.3098,-1.3295,-1.339,-1.3397,-1.3532,-1.36,-1.3607,-1.3661,-1.3682,-1.3682,-1.3682,-1.3682,-1.3675,-1.3566,-1.3288,-1.2922,-1.2922,-1.2678,-1.2359,-1.2712,-1.2759,-1.2691,-1.3044,-1.32,-1.3247,-1.3247,-1.3098,-1.2915,-1.2861,-1.2766,-1.2718,-1.2881,-1.3071,-1.3288,-1.3539,-1.3756,-1.396,-1.415,-1.4238,-1.4299,-1.4401,-1.438,-1.4278,-1.4075,-1.377,-1.3417,-1.3003,-1.3302,-1.3546,-1.341,-1.3804,-1.4319,-1.4869,-1.5167,-1.5425,-1.5669,-1.5879,-1.6001,-1.6001,-1.6001,-1.5981,-1.5927,-1.5696,-1.331,-0.8156,-0.5965,-0.5636,-0.7384,-1.1781,-1.3026,0.0,0.0,0.0,0.0,0.0,0.0,0.0,0.0,0.0,0.0,0.0,0.0,0.0,0.0,0.0,0.0,0.0,0.0,0.0,0.0,0.0,0.0,0.0,0.0,0.0,0.0,-1.1674,-1.0987,-1.1185,-1.126,-1.0907,-1.1192,-1.1463,-1.1606,-1.2033,-1.24,-1.2644,-1.28,-1.2949,-1.3105,-1.3254,-1.3349,-1.3397,-1.3654,-1.3777,-1.3783,-1.3973,-1.4068,-1.4068,-1.4122,-1.4143,-1.4143,-1.4143,-1.4143,-1.4143,-1.4143,-1.4027,-1.3838,-1.3688,-1.3505,-1.337,-1.3614,-1.358,-1.3437,-1.3634,-1.3634,-1.3559,-1.3614,-1.3593,-1.3559,-1.3614,-1.3627,-1.3641,-1.3688,-1.381,-1.3946,-1.4041,-1.4183,-1.436,-1.4604,-1.4665,-1.4706,-1.4855,-1.4889,-1.4862,-1.4753,-1.434,-1.3926,-1.3668,-1.4,-1.4211,-1.3966,-1.4387,-1.4828,-1.5079,-1.533,-1.556,-1.5764,-1.5913,-1.6001,-1.6001,-1.5866,-1.5845,-1.5995,-1.5669,-1.4118,-1.0647,-0.8293,-0.7926,-0.9816,-1.2535,-1.3186,-1.1694,0.0,0.0,0.0,0.0,0.0,0.0,0.0,0.0,0.0,0.0,0.0,0.0,0.0,0.0,0.0,0.0,0.0,0.0,0.0,0.0,0.0,0.0,0.0,-1.1316,-1.1272,-1.1192,-1.1206,-1.1857,-1.2135,-1.1701,-1.2054,-1.2372,-1.2515,-1.2664,-1.282,-1.2976,-1.3119,-1.3261,-1.3417,-1.3566,-1.3715,-1.3858,-1.4014,-1.4095,-1.4095,-1.4387,-1.4523,-1.4529,-1.4685,-1.4753,-1.4753,-1.4753,-1.4753,-1.4753,-1.4753,-1.4753,-1.4713,-1.4265,-1.4089,-1.4102,-1.4258,-1.4312,-1.4312,-1.4312,-1.4116,-1.3892,-1.4041,-1.3994,-1.3899,-1.4048,-1.4095,-1.4129,-1.4278,-1.4421,-1.4529,-1.4536,-1.4652,-1.4801,-1.4957,-1.4991,-1.5031,-1.5167,-1.5194,-1.5194,-1.5194,-1.4964,-1.4719,-1.4563,-1.4665,-1.4713,-1.457,-1.4916,0.0,-1.5018,-1.5377,-1.5649,-1.5649,-1.5771,-1.5852,-1.5852,-1.5452,-1.5391,-1.5832,-1.5934,-1.564,-1.5488,-0.9715,-0.9096,-1.4223,-1.364,-1.3044,-1.2305,0.0,0.0,0.0,0.0,0.0,0.0,0.0,0.0,0.0,0.0,0.0,0.0,0.0,0.0,0.0,0.0,0.0,0.0,0.0,0.0,0.0,0.0,-1.108,-1.103,-1.1454,-1.1891,-1.2108,-1.2413,-1.2603,-1.2596,-1.2705,-1.2834,-1.2976,-1.3132,-1.3281,-1.3437,-1.358,-1.3729,-1.3885,-1.4034,-1.4183,-1.4326,-1.4482,-1.4557,-1.4557,-1.4753,-1.4848,-1.4848,-1.4997,-1.5059,-1.5059,-1.5059,-1.5059,-1.5059,-1.5059,-1.5059,-1.5025,-1.4685,-1.4489,-1.4407,-1.4563,-1.4618,-1.4618,-1.4618,-1.4563,-1.4502,-1.4543,-1.4529,-1.4502,-1.4543,-1.4638,-1.4733,-1.4774,-1.4889,-1.5025,-1.5133,-1.5194,-1.5269,-1.5418,-1.5459,-1.5466,-1.5506,-1.5513,-1.5513,-1.5513,-1.5445,-1.5343,-1.5187,-1.5201,-1.5248,-1.5316,-1.5432,0.0,-1.5601,-1.5716,-1.5791,-1.5791,-1.5832,-1.5852,-1.5852,-1.5737,-1.5771,-1.6001,-1.5973,-1.5904,-1.5893,-1.4124,-1.3069,-1.3085,-1.3966,-1.4193,0.0,0.0,0.0,0.0,0.0,0.0,0.0,0.0,0.0,0.0,0.0,0.0,0.0,0.0,0.0,0.0,0.0,0.0,0.0,0.0,0.0,0.0,-1.1319,-1.1457,-1.1579,-1.1972,-1.2332,-1.2569,-1.2732,-1.2888,-1.3037,-1.3051,-1.3139,-1.3349,-1.3444,-1.3587,-1.3804,-1.3953,-1.4129,-1.4346,-1.4434,-1.4557,-1.4699,-1.4848,-1.4923,-1.493,-1.5147,-1.5248,-1.5255,-1.5337,-1.5371,0.0,-1.5371,-1.5371,-1.5371,-1.5371,-1.5371,0.0,0.0,0.0,0.0,0.0,-1.5079,-1.5031,-1.5092,-1.5031,-1.4936,-1.4997,-1.4977,-1.4936,-1.5004,-1.5086,-1.5167,-1.5235,-1.5309,-1.5398,-1.5486,-1.5506,-1.5547,-1.5696,-1.573,-1.5744,-1.5811,-1.5825,-1.5825,-1.5825,-1.5825,0.0,-1.571,-1.5588,-1.5513,-1.554,-1.5649,-1.5737,-1.5757,-1.5872,-1.5947,-1.5947,-1.5947,-1.5947,-1.5947,-1.5778,0.0,0.0,0.0,-1.5669,-1.5669,-1.3548,0.0,0.0,0.0,0.0,0.0,0.0,0.0,0.0,-1.1416,-1.1124,0.0,0.0,0.0,0.0,0.0,0.0,0.0,0.0,0.0,0.0,0.0,0.0,0.0,0.0,0.0,0.0,-1.2338,-1.221,-1.2488,-1.2569,-1.2651,-1.2793,-1.2929,-1.3071,-1.3234,-1.3247,-1.3376,-1.3682,-1.3702,-1.3831,-1.4129,0.0,0.0,0.0,0.0,-1.4862,-1.5018,-1.516,-1.5235,-1.5235,-1.5527,-1.5662,-1.5662,-1.5683,-1.5689,-1.5689,-1.5689,-1.5689,-1.5689,-1.5689,-1.5689,-1.5676,-1.5506,-1.5438,-1.5452,-1.5588,-1.5554,-1.5459,-1.5594,0.0,0.0,-1.5391,-1.5343,-1.5262,-1.5398,-1.5445,-1.5486,-1.5628,-1.5676,-1.5689,-1.5689,-1.5689,-1.5723,-1.5852,-1.5879,-1.592,-1.6049,-1.6083,-1.6083,-1.6083,-1.6083,-1.6083,-1.6083,-1.5866,-1.5642,-1.5506,-1.571,-1.5832,-1.5703,-1.592,-1.6076,-1.6056,0.0,0.0,-1.6056,-1.5689,-1.5635,-1.6056,-1.5716,-1.5056,-1.4165,-0.9547,-0.7942,-1.0009,-0.9913,-1.1555,-1.4821,-1.4631,-1.4421,-1.415,-1.2203,-1.1721,0.0,0.0,0.0,0.0,0.0,0.0,0.0,0.0,0.0,0.0,0.0,0.0,0.0,0.0,0.0,-1.1698,-1.2155,-1.2481,-1.2657,-1.2996,-1.3241,-1.3268,-1.3295,-1.3417,-1.3688,-1.3709,-1.3838,-1.415,-1.417,-1.4299,-1.4597,-1.4638,-1.474,-1.4923,-1.5038,-1.5167,-1.5323,-1.5479,-1.5554,-1.5554,0.0,0.0,-1.5818,-1.594,-1.5995,-1.5995,-1.5995,-1.5995,-1.5995,-1.5995,-1.6015,-1.6008,-1.571,-1.5594,-1.5601,-1.5628,-1.5622,-1.5601,-1.5628,-1.5601,-1.5554,-1.5588,-1.5574,-1.5554,-1.5588,-1.5676,0.0,-1.5805,-1.59,-1.5995,-1.5995,-1.5995,-1.6001,-1.6029,-1.6035,-1.6042,-1.6076,-1.6083,-1.6083,-1.6083,-1.6083,-1.6083,-1.6083,-1.6035,-1.5988,-1.5954,-1.6001,-1.6029,-1.6001,-1.6049,-1.6035,-1.5913,-1.59,-1.59,-1.59,-1.5818,-1.5859,-1.6069,-1.6062,-1.3953,-0.9444,-0.4333,-0.5693,-1.4629,-1.4463,-1.4754,-1.5323,-1.4903,-1.4787,-1.4943,-1.3933,-1.3492,0.0,0.0,0.0,0.0,0.0,0.0,0.0,0.0,0.0,0.0,0.0,-1.0188,0.0,0.0,-1.1538,-1.1986,-1.244,-1.2813,-1.303,-1.3322,-1.3485,-1.341,-1.3532,-1.3736,-1.4041,-1.4068,-1.4197,-1.4496,-1.4523,-1.4618,-1.4841,-1.4923,-1.5065,-1.5296,-1.5371,-1.5479,-1.5628,-1.571,-1.5744,-1.575,-1.59,-1.5967,-1.5967,-1.6049,-1.6083,-1.6083,-1.6083,-1.6083,-1.6083,-1.6103,-1.6117,-1.5711,-1.2935,-1.3482,-1.5886,-1.5866,-1.5859,-1.5859,-1.5859,-1.5859,-1.5859,-1.5859,-1.5859,-1.5859,-1.5859,-1.5913,-1.5967,-1.5967,-1.6022,-1.6083,-1.6083,-1.6083,-1.6083,-1.6083,-1.6083,-1.6083,-1.6083,-1.6083,-1.6083,-1.6083,-1.6083,-1.6083,-1.6083,-1.6083,-1.6083,-1.6083,-1.6083,-1.6083,-1.6083,-1.6083,-1.6049,-1.5974,-1.5967,-1.5967,-1.5967,-1.5967,-1.6001,-1.6076,-1.6137,-1.3684,-0.8186,-0.2797,-0.3785,-1.187,-1.4592,-1.5689,-1.5554,-1.5309,-1.5269,-1.5404,-1.5031,-1.4692,0.0,0.0,0.0,0.0,0.0,0.0,0.0,-0.9503,-0.9741,-1.0439,-1.0717,-1.0995,-1.1511,-1.1735,-1.2006,-1.2549,-1.2868,-1.3139,-1.341,-1.3627,-1.3715,-1.3587,-1.3783,-1.4048,-1.4353,-1.4387,-1.4496,-1.4767,-1.4808,-1.4896,-1.5052,-1.5194,-1.5384,-1.5635,-1.5669,-1.5737,-1.5852,-1.5886,-1.59,-1.59,-1.6022,-1.6083,-1.6083,-1.6083,-1.6083,-1.6083,-1.6083,-1.6083,-1.6096,-1.6123,-1.6144,-1.5544,-1.0057,-1.0658,-1.47,-1.5698,-1.609,-1.6083,-1.6083,-1.6083,-1.6083,-1.6083,-1.609,-1.609,-1.6083,-1.609,-1.609,-1.6083,-1.6083,-1.6083,-1.6083,-1.6083,-1.6083,-1.6083,-1.6083,-1.6083,-1.6083,-1.6083,-1.6083,-1.6083,-1.6083,-1.6083,-1.6083,-1.6083,-1.6083,-1.6083,-1.6083,-1.6083,-1.6083,-1.6083,-1.6083,-1.6083,-1.6083,-1.6083,-1.6083,-1.6083,-1.6083,-1.6083,-1.6117,-1.4101,-0.9661,-0.3417,-0.2003,-0.6357,-1.277,-1.5927,-1.5737,-1.5696,-1.5696,-1.5723,-1.5696,-1.5472,-0.9856,-0.9778,-0.9641,-0.9761,-0.9849,-1.0107,0.0,-1.1124,-1.1077,-1.1558,-1.1891,-1.2149,-1.2338,-1.2501,-1.2712,-1.3044,-1.3241,-1.341,-1.358,-1.396,-1.4217,-1.4204,-1.4231,-1.4367,-1.4665,-1.4692,-1.476,-1.493,-1.5065,-1.5201,-1.535,-1.5506,-1.5601,-1.5635,-1.5764,-1.5839,-1.5852,-1.5988,-1.6056,-1.6056,-1.6076,-1.6083,-1.6083,-1.6083,-1.6083,-1.6083,-1.6083,-1.6096,-1.613,-1.613,-1.6178,-1.5616,-1.007,-0.8442,-0.9448,-1.4295,-1.611,-1.6083,-1.6083,-1.6083,-1.6083,-1.6083,-1.6103,-1.6123,-1.609,-1.6103,-1.6123,-1.609,-1.6083,-1.6083,-1.6083,-1.6083,-1.6083,-1.6083,-1.6083,-1.6083,-1.6083,-1.6083,-1.6083,-1.6083,-1.6083,-1.6083,-1.6083,-1.6083,-1.6083,-1.6083,-1.6083,-1.6083,-1.6083,-1.6083,-1.6083,-1.6083,-1.6083,-1.6083,-1.6083,-1.6083,-1.6083,-1.6083,-1.6117,-1.5744,-1.517,-0.5432,-0.0201,-0.0803,-1.0872,-1.6144,-1.6076,-1.5913,-1.59,-1.6029,-1.5893,-1.5737,-1.1347,-1.0998,-1.0728,-1.0812,-1.0894,-1.0989,-1.1606,-1.164,-1.1708,-1.2244,-1.2454,-1.2589,-1.2739,-1.2888,-1.3057,0.0,-1.3505,-1.3743,-1.3987,-1.4251,-1.4489,-1.4672,-1.476,-1.4828,-1.4869,-1.495,-1.5059,-1.5215,-1.5364,-1.5479,-1.554,-1.5683,-1.5764,-1.5764,-1.5906,-1.5988,-1.5988,-1.6049,-1.6083,-1.6083,-1.6083,-1.6083,-1.6083,-1.6103,-1.611,-1.611,-1.611,-1.6117,-1.5931,-1.2679,-1.3323,-1.5636,-1.0108,-0.8065,-0.8657,-1.4107,-1.611,-1.6083,-1.6083,-1.6083,-1.6083,-1.6103,-1.6123,-1.5518,-1.2263,-1.3684,-1.613,-1.6117,-1.6096,-1.6083,-1.6083,-1.6083,-1.6083,-1.6083,-1.6083,-1.6083,-1.6083,-1.6083,-1.6083,-1.6083,-1.6083,-1.6083,-1.6083,-1.6083,-1.6083,-1.6083,-1.6083,-1.6083,-1.6083,-1.6083,-1.6083,-1.6083,-1.6083,-1.6083,-1.6083,-1.6083,-1.6083,-1.6083,-1.6096,-1.613,-1.6198,-0.8654,-0.3216,-0.0,-0.4425,-0.9861,-1.613,-1.6056,-1.6042,-1.6083,-1.6015,-1.5954,-1.1678,-1.1441,-1.1247,-1.1538,-1.1721,-1.1816,-1.2026,-1.2108,-1.2264,-1.2705,-1.2793,-1.2854,-1.3044,-1.32,-1.3363,-1.3553,-1.3831,-1.4102,-1.4326,-1.4523,-1.4733,-1.4997,-1.516,-1.5228,-1.5174,-1.5255,-1.5357,-1.5466,-1.5615,-1.5696,-1.5696,-1.5839,-1.592,-1.592,-1.6022,-1.6083,-1.6083,-1.6083,-1.609,-1.6096,-1.609,-1.6096,-1.6117,-1.4501,-1.3895,-1.3895,-1.5531,-1.6157,-1.5757,-1.1894,-1.0699,-1.1335,-0.7282,-0.5856,-0.6645,-1.3518,-1.6137,-1.6096,-1.6096,-1.6096,-1.6103,-1.6123,-1.6151,-1.5144,-0.9657,-0.9669,-1.232,-1.5376,-1.6212,-1.6218,-1.6205,-1.6205,-1.6205,-1.6205,-1.6205,-1.6205,-1.6205,-1.6205,-1.6205,-1.6205,-1.6205,-1.6205,-1.6205,-1.6205,-1.6205,-1.6205,-1.6171,-1.613,-1.609,-1.6083,-1.6083,-1.6083,-1.6083,-1.6083,-1.6083,-1.6083,-1.6083,-1.6083,-1.6083,-1.611,-1.6178,-1.0872,-0.5425,-0.0201,0.0,-0.462,-1.3895,-1.5318,-1.6117,-1.6083,-1.6083,-1.6083,-1.1084,-1.1287,-1.1626,-1.1782,-1.2264,-1.2691,-1.2698,-1.282,-1.2935,-1.2949,-1.2956,-1.3044,-1.3336,-1.3512,-1.3709,-1.4007,-1.4299,-1.4496,-1.4502,-1.4767,-1.5011,-1.516,-1.5309,-1.5472,0.0,-1.5642,-1.5628,-1.5635,-1.5764,-1.5845,-1.5845,-1.5995,-1.6076,-1.6076,-1.6083,-1.6083,-1.6083,-1.6083,-1.6096,-1.613,-1.6096,-1.6123,-1.5991,-1.0672,-0.8242,-0.8446,-1.3736,-1.6018,-1.6045,-1.5843,-0.9706,-0.0404,-0.0404,-0.0202,-0.161,-1.2135,-1.6198,-1.613,-1.613,-1.613,-1.613,-1.613,-1.6185,-1.5007,-0.9665,-0.4449,-0.2649,-1.3469,-1.6463,-1.6359,-1.6517,-1.651,-1.651,-1.651,-1.651,-1.651,-1.651,-1.651,-1.651,-1.651,-1.651,-1.651,-1.651,-1.651,-1.651,-1.651,-1.6388,-1.6252,-1.6103,-1.6083,-1.6083,-1.6083,-1.6083,-1.6083,-1.6083,-1.6083,-1.6083,-1.6083,-1.6083,-1.6096,-1.613,-1.0863,-0.5425,-0.0201,0.0,-0.2814,-0.8242,-1.349,-1.6117,-1.6083,-1.6083,-1.6083,-1.1623,-1.1757,-1.1904,-1.2494,-1.2813,-1.3024,-1.3024,-1.3139,-1.3254,-1.3254,-1.3336,-1.3437,-1.3532,-1.3838,-1.4109,-1.4204,-1.4468,-1.4699,-1.4801,-1.4903,-1.5031,-1.5208,-1.5445,0.0,0.0,0.0,0.0,-1.5832,-1.6029,-1.611,-1.6008,-1.6056,-1.6083,-1.6083,-1.6083,-1.6083,-1.6083,-1.6083,-1.609,-1.6096,-1.611,-1.6157,-1.6031,-1.4178,-0.9476,-0.2814,-0.4626,-0.948,-1.6051,-1.6051,-0.971,0.0,0.0,0.0,-0.0408,-0.4103,-0.7604,-1.1274,-1.4812,-1.6178,-1.6185,-1.6004,-1.6031,-1.4415,-0.5485,-0.1426,-0.0817,-0.4515,-1.0737,-1.642,-1.6585,-1.6571,-1.6564,-1.653,-1.6524,-1.6524,-1.6524,-1.6524,-1.6524,-1.6524,-1.6524,-1.6524,-1.6524,-1.6524,-1.6524,-1.6524,-1.6402,-1.6252,-1.6103,-1.6083,-1.6083,-1.6083,-1.6083,-1.6083,-1.6083,-1.6083,-1.6083,-1.6083,-1.6083,-1.6096,-1.613,-1.4331,-0.9063,-0.0201,0.0,-0.0806,-0.2613,-1.1688,-1.6157,-1.6117,-1.609,-1.6083,-0.9993,-0.9634,-1.0175,-1.2553,-1.3104,-1.3217,-1.3271,-1.3398,-1.3519,-1.3573,-1.3526,-1.3506,-1.3613,-1.3987,-1.419,-1.4346,-1.4672,-1.493,-1.5031,-1.5092,-1.5194,-1.5371,-1.5375,-1.475,0.0,0.0,0.0,-1.5803,-1.6144,-1.6185,-1.609,-1.6083,-1.6083,-1.6083,-1.6083,-1.609,-1.6103,-1.6103,-1.611,-1.6123,-1.2279,-1.2315,-1.6051,-1.2191,-0.648,0.0,0.0,-0.3861,-1.0371,-1.0405,-0.6325,0.0,0.0,0.0,0.0,0.0,-0.2282,-0.5588,-0.9197,-1.2856,-1.6179,-1.5996,-1.3514,-0.8993,-0.2055,0.0,0.0,0.0,-0.5209,-1.1086,-1.3171,-1.5283,-1.6768,-1.6734,-1.6714,-1.6707,-1.6707,-1.6693,-1.6686,-1.6686,-1.6686,-1.6686,-1.6686,-1.6686,-1.6666,-1.6612,-1.6524,-1.6415,-1.6259,-1.6239,-1.6218,-1.6171,-1.6164,-1.6144,-1.609,-1.6083,-1.6083,-1.6083,-1.6083,-1.609,-1.6117,-1.6171,-1.1904,-0.3015,-0.1008,-0.1008,-0.2814,-0.987,-1.4119,-1.6117,-1.609,-1.6083,-0.6634,-0.5471,-0.6211,-1.107,-1.2445,-1.2765,-1.3076,-1.3391,-1.3696,-1.38,-1.3487,-1.3265,-1.368,-1.3794,-1.4014,-1.4441,-1.4889,-1.5187,-1.5194,-1.5316,-1.5466,0.0,0.0,0.0,0.0,0.0,0.0,-1.5951,0.0,-1.6096,-1.6083,-1.6083,-1.609,-1.6083,-1.609,-1.6103,-1.6137,-1.5731,-1.5751,-1.5998,-0.5649,-0.5858,-1.5026,-0.469,0.0,0.0,0.0,0.0,0.0,0.0,0.0,0.0,0.0,0.0,0.0,0.0,0.0,0.0,0.0,-0.6635,-1.5233,-1.5233,-0.831,0.0,0.0,0.0,0.0,0.0,0.0,-0.1274,-0.6576,-1.2127,-1.6234,-1.6452,-1.6631,-1.6604,-1.7032,-1.7012,-1.6985,-1.6985,-1.6985,-1.6985,-1.6985,-1.6985,-1.6931,-1.6781,-1.6761,-1.6707,-1.6544,-1.6524,-1.6469,-1.6334,-1.632,-1.6259,-1.6103,-1.6096,-1.609,-1.6083,-1.6083,-1.6083,-1.6083,-1.6157,-1.353,-0.8041,-0.2821,-0.2419,-0.764,-0.8242,-1.1054,-1.609,-1.6083,-1.6083,-0.8714,-0.5811,-0.1705,-0.2916,-0.5786,-0.8769,-1.0223,-1.067,-1.1384,-1.3359,-1.3887,-1.3854,-1.3485,-1.3994,-1.438,-1.4489,-1.4889,-1.5221,-1.5337,-1.5384,0.0,-1.5462,0.0,-1.3522,-0.8577,-0.8045,0.0,0.0,-1.63,-1.6266,-1.609,-1.6137,-1.6157,-1.6123,-1.6151,-1.6178,-1.6185,-1.2084,-1.2099,-1.6038,-1.3374,-0.9299,-0.404,-0.1224,0.0,0.0,0.0,0.0,0.0,0.0,0.0,0.0,0.0,0.0,0.0,0.0,0.0,0.0,0.0,-0.1888,-0.4152,-0.4152,-0.2283,0.0,0.0,0.0,0.0,0.0,0.0,-0.0426,-0.17,-0.3185,-0.5309,-0.956,-1.0619,-1.1897,-1.6003,-1.708,-1.7073,-1.7073,-1.7039,-1.7019,-1.7019,-1.6998,-1.6965,-1.6931,-1.6924,-1.6822,-1.6558,-1.6524,-1.651,-1.6469,-1.6469,-1.6408,-1.6266,-1.6252,-1.6205,-1.609,-1.6083,-1.6083,-1.6083,-1.6157,-1.353,-0.8041,-0.2821,-0.0606,-0.2017,-1.01,-1.4775,-1.6171,-1.6137,-1.6103,-0.5373,-0.3284,0.0,0.0,-0.1982,-0.4016,-0.506,-0.8549,-1.1809,-1.296,-1.3448,-1.3727,-1.3158,-1.374,-1.436,-1.4489,-1.4943,-1.5357,-1.5574,-1.5547,-1.5574,0.0,-1.5669,0.0,-0.8592,-0.8031,-0.8259,0.0,-1.3615,-1.524,-1.2663,-1.4738,-1.4957,-1.2679,-1.2495,-1.3742,-1.6024,-0.8467,-0.6047,-0.9097,-0.9097,-0.5856,0.0,0.0,0.0,0.0,0.0,0.0,0.0,0.0,0.0,0.0,0.0,0.0,0.0,0.0,0.0,0.0,0.0,0.0,0.0,0.0,0.0,0.0,0.0,0.0,0.0,0.0,0.0,0.0,0.0,0.0,-0.0851,-0.4037,-0.467,-0.6369,-1.2147,-1.3211,-1.3201,-1.3201,-1.403,-1.5084,-1.6815,-1.7005,-1.6978,-1.6978,-1.6978,-1.6917,-1.6748,-1.672,-1.6693,-1.6625,-1.6619,-1.6564,-1.6415,-1.6402,-1.6341,-1.6191,-1.6185,-1.6151,-1.6083,-1.6157,-1.353,-0.8041,-0.2821,0.0,-0.0,-0.6047,-1.0288,-1.2511,-1.4988,-1.6225,0.0,0.0,0.0,0.0,0.0,0.0,0.0,-0.6341,-1.2484,-1.2588,-1.2879,-1.3043,-1.288,-1.3552,-1.4143,-1.4462,-1.4997,-1.5493,-1.5811,-1.5744,-1.5723,-1.5866,-1.592,-1.3982,-0.9448,-0.8446,-0.6433,-0.2415,-1.0083,-1.2922,-0.8242,-1.3128,-1.3335,-0.7038,-0.7038,-0.9271,-1.3989,-0.4645,0.0,0.0,0.0,0.0,0.0,0.0,0.0,0.0,0.0,0.0,0.0,0.0,0.0,0.0,0.0,0.0,0.0,0.0,0.0,0.0,0.0,0.0,0.0,0.0,0.0,0.0,0.0,0.0,0.0,0.0,0.0,0.0,0.0,0.0,0.0,0.0,0.0,-0.1276,-0.6387,-0.7441,-0.7429,-0.7429,-0.8689,-1.1235,-1.6182,-1.7012,-1.6985,-1.6985,-1.6985,-1.6978,-1.6978,-1.6978,-1.6931,-1.6795,-1.6781,-1.672,-1.6564,-1.6551,-1.6483,-1.632,-1.6307,-1.6239,-1.609,-1.6157,-1.353,-0.8041,-0.2821,0.0,0.0,0.0,-0.2413,-0.7035,-1.2802,-1.574,0.0,0.0,0.0,0.0,0.0,0.0,0.0,-0.3626,-0.8313,-1.2476,-1.3137,-1.301,-1.2742,-1.3417,-1.4021,-1.4441,-1.4909,-1.5371,-1.5791,-1.5832,-1.5872,-1.6022,-1.6076,-1.5711,-1.4756,-1.0672,0.0,0.0,-1.0923,-0.9067,-0.8041,-1.3173,-1.156,-0.1614,-0.1413,-0.1816,-0.2827,-0.101,0.0,0.0,0.0,0.0,0.0,0.0,0.0,0.0,0.0,0.0,0.0,0.0,0.0,0.0,0.0,0.0,0.0,0.0,0.0,0.0,0.0,0.0,0.0,0.0,0.0,0.0,0.0,0.0,0.0,0.0,0.0,0.0,0.0,0.0,0.0,0.0,0.0,-0.0213,-0.1278,-0.1491,-0.149,-0.149,-0.17,-0.5097,-1.5187,-1.708,-1.7026,-1.7026,-1.6998,-1.6978,-1.6978,-1.6978,-1.6971,-1.6944,-1.6937,-1.6876,-1.672,-1.6707,-1.6592,-1.6327,-1.6307,-1.6239,-1.609,-1.6157,-1.353,-0.8041,-0.2821,0.0,0.0,0.0,-0.0403,-0.1609,-0.7303,-1.2247,0.0,0.0,0.0,0.0,0.0,0.0,0.0,-0.3,-0.7028,-1.1481,-1.2641,-1.2759,-1.2542,-1.3173,-1.3824,-1.4116,-1.4733,-1.5309,-1.5689,-1.5805,-1.5906,-1.6062,-1.6096,-1.613,-1.6191,-1.3713,-1.3329,-1.5903,-1.3598,-0.9693,-0.4229,-0.6264,-0.526,-0.0202,0.0,0.0,0.0,0.0,0.0,0.0,0.0,0.0,0.0,0.0,0.0,0.0,0.0,0.0,0.0,0.0,0.0,0.0,0.0,0.0,0.0,0.0,0.0,0.0,0.0,0.0,0.0,0.0,0.0,0.0,0.0,0.0,0.0,0.0,0.0,0.0,0.0,0.0,0.0,0.0,0.0,0.0,0.0,0.0,0.0,0.0,0.0,-0.17,-0.7237,-1.0632,-1.3607,-1.6631,-1.7032,-1.7005,-1.7005,-1.6992,-1.6978,-1.6978,-1.6978,-1.6951,-1.6876,-1.687,-1.6775,-1.6551,-1.6537,-1.6435,-1.6212,-1.6071,-1.3598,-0.8041,-0.2821,0.0,0.0,0.0,0.0,-0.0203,-0.593,-1.1539,0.0,0.0,0.0,0.0,0.0,0.0,0.0,-0.3089,-0.6984,-1.0796,-1.2053,-1.2345,-1.2298,-1.2949,-1.3573,-1.3844,-1.459,-1.5255,-1.5594,-1.5791,-1.5947,-1.6069,-1.6083,-1.611,-1.6191,-1.6157,0.0,-1.6098,-1.4001,-0.8888,-0.0404,0.0,0.0,0.0,0.0,0.0,0.0,0.0,0.0,0.0,0.0,0.0,0.0,0.0,0.0,0.0,0.0,0.0,0.0,0.0,0.0,0.0,0.0,0.0,0.0,0.0,0.0,0.0,0.0,0.0,0.0,0.0,0.0,0.0,0.0,0.0,0.0,0.0,0.0,0.0,0.0,0.0,0.0,0.0,0.0,0.0,0.0,0.0,0.0,0.0,0.0,0.0,0.0,-0.3608,-0.8279,-1.2782,-1.4686,-1.6163,-1.6815,-1.6998,-1.6978,-1.6978,-1.6978,-1.6978,-1.6978,-1.6978,-1.6917,-1.6761,-1.6748,-1.6619,-1.632,-1.6179,-1.3458,-0.8041,-0.2821,0.0,0.0,0.0,0.0,-0.0205,-0.7008,-1.2709,0.0,0.0,0.0,0.0,0.0,0.0,0.0,-0.307,-0.6855,-1.0761,-1.1808,-1.1972,-1.2244,-1.2691,-1.3247,-1.3939,-1.4577,-1.514,-1.5581,-1.5879,-1.6069,-1.6083,-1.6083,-1.611,-1.6191,-1.6157,-1.6164,-1.6051,-0.7053,-0.1007,-0.0,0.0,0.0,0.0,0.0,0.0,0.0,0.0,0.0,0.0,0.0,0.0,0.0,0.0,0.0,0.0,0.0,0.0,0.0,0.0,0.0,0.0,0.0,0.0,0.0,0.0,0.0,0.0,0.0,0.0,0.0,0.0,0.0,0.0,0.0,0.0,0.0,0.0,0.0,0.0,0.0,0.0,0.0,0.0,0.0,0.0,0.0,0.0,0.0,0.0,0.0,0.0,0.0,-0.0425,-0.1062,-0.1487,-0.7417,-1.3148,-1.6598,-1.6998,-1.6978,-1.6978,-1.6978,-1.6978,-1.6978,-1.6978,-1.6917,-1.6761,-1.6748,-1.6619,-1.632,-1.6179,-1.3458,-0.8041,-0.2821,0.0,0.0,0.0,0.0,-0.0205,-1.1184,-1.6554,0.0,0.0,0.0,0.0,0.0,0.0,0.0,-0.3007,-0.6857,-1.0836,-1.159,-1.1796,-1.2094,-1.2372,-1.28,-1.3546,-1.4095,-1.4584,-1.5031,-1.5513,-1.5825,-1.5643,-1.6001,-1.6144,-1.6024,-1.6011,-1.6031,-1.6085,-1.2171,-0.6872,-0.0404,0.0,0.0,0.0,0.0,0.0,0.0,0.0,0.0,0.0,0.0,0.0,0.0,0.0,0.0,0.0,0.0,0.0,0.0,0.0,0.0,0.0,0.0,0.0,0.0,0.0,0.0,0.0,0.0,0.0,0.0,0.0,0.0,0.0,0.0,0.0,0.0,0.0,0.0,0.0,0.0,0.0,0.0,0.0,0.0,0.0,0.0,0.0,0.0,0.0,0.0,0.0,0.0,0.0,0.0,0.0,-0.2548,-0.7429,-1.6022,-1.7053,-1.7012,-1.7012,-1.6992,-1.6978,-1.6978,-1.6978,-1.6951,-1.689,-1.6802,-1.6659,-1.6442,-1.6435,-1.366,-0.8041,-0.2821,0.0,0.0,0.0,0.0,-0.0207,-0.8083,-1.1924,0.0,0.0,0.0,0.0,0.0,0.0,0.0,-0.2967,-0.6915,-1.0834,-1.1616,-1.1708,-1.2006,-1.2223,-1.2569,-1.3227,-1.379,-1.4292,-1.4746,-1.5248,-1.5615,-1.5529,-1.5934,-1.5678,-1.4513,-1.5383,-1.4812,-1.1556,-1.4238,-1.2791,-0.5251,-0.1818,0.0,0.0,0.0,0.0,0.0,0.0,0.0,0.0,0.0,0.0,0.0,0.0,0.0,0.0,0.0,0.0,0.0,0.0,0.0,0.0,0.0,0.0,0.0,0.0,0.0,0.0,0.0,0.0,0.0,0.0,0.0,0.0,0.0,0.0,0.0,0.0,0.0,0.0,0.0,0.0,0.0,0.0,0.0,0.0,0.0,0.0,0.0,0.0,0.0,0.0,0.0,0.0,0.0,0.0,0.0,-0.2976,-1.0882,-1.3418,-1.5102,-1.6835,-1.7019,-1.6992,-1.6985,-1.6978,-1.6978,-1.6978,-1.6836,-1.668,-1.653,-1.6469,-1.3869,-0.8041,-0.2821,0.0,0.0,0.0,0.0,-0.0,-0.4142,-0.7739,0.0,0.0,0.0,0.0,0.0,0.0,0.0,-0.2967,-0.6915,-1.0834,-1.1616,-1.1708,-1.2006,-1.2298,-1.2651,-1.3105,-1.3804,-1.4455,-1.4903,-1.5228,-1.552,-1.5818,-1.5893,-1.4502,-1.1092,-1.4048,-1.1703,-0.1006,-1.0096,0.0,-1.5843,-0.5858,0.0,0.0,0.0,0.0,0.0,0.0,0.0,0.0,0.0,0.0,0.0,0.0,0.0,0.0,0.0,0.0,0.0,0.0,0.0,0.0,0.0,0.0,0.0,0.0,0.0,0.0,0.0,0.0,0.0,0.0,0.0,0.0,0.0,0.0,0.0,0.0,0.0,0.0,0.0,0.0,0.0,0.0,0.0,0.0,0.0,0.0,0.0,0.0,0.0,0.0,0.0,0.0,0.0,0.0,0.0,-0.0,-0.0212,-0.5093,-1.0835,-1.6446,-1.706,-1.7019,-1.6985,-1.6978,-1.6978,-1.6978,-1.6836,-1.668,-1.653,-1.6469,-1.3869,-0.8041,-0.2821,0.0,0.0,0.0,0.0,-0.0,-0.0,-0.6073,0.0,0.0,0.0,0.0,0.0,0.0,0.0,-0.3061,-0.6833,-1.0841,-1.1549,-1.1681,-1.187,-1.2067,-1.2481,-1.3342,-1.377,-1.4251,-1.5011,-1.5377,-1.5415,-1.5529,-0.9328,-0.7411,-1.369,-0.8665,-0.3628,-0.0201,-0.9911,-1.6098,-1.6098,-0.5863,0.0,0.0,0.0,0.0,0.0,0.0,0.0,0.0,0.0,0.0,0.0,0.0,0.0,0.0,0.0,0.0,0.0,0.0,0.0,0.0,0.0,0.0,0.0,0.0,0.0,0.0,0.0,0.0,0.0,0.0,0.0,0.0,0.0,0.0,0.0,0.0,0.0,0.0,0.0,0.0,0.0,0.0,0.0,0.0,0.0,0.0,0.0,0.0,0.0,0.0,0.0,0.0,0.0,0.0,0.0,0.0,0.0,-0.1488,-0.6374,-1.6054,-1.4692,-1.4218,-1.6802,-1.6992,-1.6937,-1.6829,-1.668,-1.653,-1.6381,-1.6313,-1.3569,-0.8041,-0.2821,0.0,0.0,0.0,0.0,0.0,0.0,-0.3979,0.0,0.0,0.0,0.0,0.0,0.0,0.0,-0.1899,-0.5167,-1.0522,-1.1536,-1.1626,-1.1663,-1.1864,-1.2253,-1.3166,-1.3553,-1.4055,-1.4896,-1.5228,0.0,-1.5367,-0.7943,-0.481,-0.95,-0.7679,-0.444,-0.0403,-0.6267,-0.9936,-0.9936,-0.3638,0.0,0.0,0.0,0.0,0.0,0.0,0.0,0.0,0.0,0.0,0.0,0.0,0.0,0.0,0.0,0.0,0.0,0.0,0.0,0.0,0.0,0.0,0.0,0.0,0.0,0.0,0.0,0.0,0.0,0.0,0.0,0.0,0.0,0.0,0.0,0.0,0.0,0.0,0.0,0.0,0.0,0.0,0.0,0.0,0.0,0.0,0.0,0.0,0.0,0.0,0.0,0.0,0.0,0.0,0.0,0.0,0.0,0.0,-0.2766,-0.9819,-1.1068,-1.2752,-1.6631,-1.7012,-1.6937,-1.6842,-1.6693,-1.6544,-1.6395,-1.6118,-1.3581,-0.8041,-0.2821,0.0,0.0,0.0,0.0,0.0,0.0,-0.1871,0.0,0.0,0.0,0.0,0.0,0.0,0.0,0.0,0.0,-0.9672,-1.1253,-1.1422,-1.153,-1.1808,-1.2099,-1.2739,-1.3281,-1.3926,-1.4679,-1.4936,0.0,0.0,-1.0739,-0.5978,-0.1615,-0.9508,-1.1129,-0.1818,-0.0404,0.0,0.0,0.0,0.0,0.0,0.0,0.0,0.0,0.0,0.0,0.0,0.0,0.0,0.0,0.0,0.0,0.0,0.0,0.0,0.0,0.0,0.0,0.0,0.0,0.0,0.0,0.0,0.0,0.0,0.0,0.0,0.0,0.0,0.0,0.0,0.0,0.0,0.0,0.0,0.0,0.0,0.0,0.0,0.0,0.0,0.0,0.0,0.0,0.0,0.0,0.0,0.0,0.0,0.0,0.0,0.0,0.0,0.0,0.0,0.0,0.0,0.0,0.0,-0.6392,-1.2166,-1.6677,-1.7032,-1.6978,-1.6965,-1.6829,-1.6673,-1.651,-1.6252,-1.3458,-0.8041,-0.2821,0.0,0.0,0.0,0.0,0.0,0.0,0.0,-0.1692,0.0,0.0,0.0,0.0,0.0,0.0,0.0,-0.1357,-0.5949,-0.7791,-0.9291,-1.1364,-1.1864,-1.228,-1.3281,-1.3573,-1.4115,-1.5133,-1.5581,0.0,-1.2326,-0.9657,-0.9059,-1.2242,-0.7297,-0.606,-1.1944,-0.4645,0.0,0.0,0.0,0.0,0.0,0.0,0.0,0.0,0.0,0.0,0.0,0.0,0.0,0.0,0.0,0.0,0.0,0.0,0.0,0.0,0.0,0.0,0.0,0.0,0.0,0.0,0.0,0.0,0.0,0.0,0.0,0.0,0.0,0.0,0.0,0.0,0.0,0.0,0.0,0.0,0.0,0.0,0.0,0.0,0.0,0.0,0.0,0.0,0.0,0.0,0.0,0.0,0.0,0.0,0.0,0.0,0.0,0.0,0.0,0.0,0.0,0.0,0.0,-0.149,-0.6594,-1.6279,-1.7073,-1.6958,-1.6815,-1.6768,-1.6632,-1.6368,-1.6199,-1.3458,-0.8041,-0.2821,0.0,0.0,0.0,0.0,0.0,0.0,0.0,-0.4275,-0.1392,0.0,0.0,0.0,0.0,0.0,0.0,-0.163,-0.7152,-0.8842,-1.0017,-1.1524,-1.2223,-1.2725,-1.3012,-1.3634,-1.4504,0.0,0.0,-1.5499,-1.3655,-1.2616,-1.1378,-0.9132,-0.3439,-0.2423,-0.8287,-0.3231,0.0,0.0,0.0,0.0,0.0,0.0,0.0,0.0,0.0,0.0,0.0,0.0,0.0,0.0,0.0,0.0,0.0,0.0,0.0,0.0,0.0,0.0,0.0,0.0,0.0,0.0,0.0,0.0,0.0,0.0,0.0,0.0,0.0,0.0,0.0,0.0,0.0,0.0,0.0,0.0,0.0,0.0,0.0,0.0,0.0,0.0,0.0,0.0,0.0,0.0,0.0,0.0,0.0,0.0,0.0,0.0,0.0,0.0,0.0,0.0,0.0,0.0,0.0,0.0,-0.2553,-0.8737,-1.408,-1.7032,-1.689,-1.6795,-1.6646,-1.6415,-1.6219,-1.2434,-0.443,-0.1413,0.0,0.0,0.0,0.0,0.0,0.0,0.0,-0.7152,-0.3215,0.0,0.0,0.0,0.0,0.0,0.0,-0.189,-0.844,-1.0863,-1.1708,-1.2026,-1.2766,-1.3295,-1.2912,-1.3885,-1.5079,-1.5757,-1.6232,-1.6266,-1.6165,-1.6618,-1.3075,-0.343,-0.1009,0.0,0.0,0.0,0.0,0.0,0.0,0.0,0.0,0.0,0.0,0.0,0.0,0.0,0.0,0.0,0.0,0.0,0.0,0.0,0.0,0.0,0.0,0.0,0.0,0.0,0.0,0.0,0.0,0.0,0.0,0.0,0.0,0.0,0.0,0.0,0.0,0.0,0.0,0.0,0.0,0.0,0.0,0.0,0.0,0.0,0.0,0.0,0.0,0.0,0.0,0.0,0.0,0.0,0.0,0.0,0.0,0.0,0.0,0.0,0.0,0.0,0.0,0.0,0.0,0.0,0.0,0.0,0.0,0.0,-1.0453,-1.6922,-1.706,-1.687,-1.6686,-1.6517,-1.5602,-1.0375,-0.0202,0.0,0.0,0.0,0.0,0.0,0.0,0.0,0.0,-0.886,-0.4229,0.0,0.0,0.0,0.0,0.0,0.0,-0.0303,-0.1467,-0.7256,-1.2092,-1.2569,-1.3112,-1.3652,-1.4189,-1.4957,-1.5438,-1.5805,-1.6029,-1.6212,-1.6347,-1.6293,-1.5681,-1.4554,-0.568,0.0,0.0,0.0,0.0,0.0,0.0,0.0,0.0,0.0,0.0,0.0,0.0,0.0,0.0,0.0,0.0,0.0,0.0,0.0,0.0,0.0,0.0,0.0,0.0,0.0,0.0,0.0,0.0,0.0,0.0,0.0,0.0,0.0,0.0,0.0,0.0,0.0,0.0,0.0,0.0,0.0,0.0,0.0,0.0,0.0,0.0,0.0,0.0,0.0,0.0,0.0,0.0,0.0,0.0,0.0,0.0,0.0,0.0,0.0,0.0,0.0,0.0,0.0,0.0,0.0,0.0,0.0,0.0,0.0,-1.0461,-1.6949,-1.6936,-1.6728,-1.67,-1.6456,-1.1772,-0.645,-0.0202,0.0,0.0,0.0,0.0,0.0,0.0,0.0,0.0,-1.0522,-0.8937,-0.6191,-0.1251,0.0,0.0,0.0,0.0,0.0,0.0,-0.6396,-1.2134,-1.2351,-1.323,-1.4373,-1.5289,-1.5676,-1.59,-1.6076,-1.6225,-1.6327,-1.6361,-1.3851,-1.3228,-1.6152,-0.648,0.0,0.0,0.0,0.0,0.0,0.0,0.0,0.0,0.0,0.0,0.0,0.0,0.0,0.0,0.0,0.0,0.0,0.0,0.0,0.0,0.0,0.0,0.0,0.0,0.0,0.0,0.0,0.0,0.0,0.0,0.0,0.0,0.0,0.0,0.0,0.0,0.0,0.0,0.0,0.0,0.0,0.0,0.0,0.0,0.0,0.0,0.0,0.0,0.0,0.0,0.0,0.0,0.0,0.0,0.0,0.0,0.0,0.0,0.0,0.0,0.0,0.0,0.0,0.0,0.0,0.0,0.0,0.0,0.0,-0.4882,-1.0382,-1.6558,-1.6802,-1.6406,-1.6232,-1.0932,-0.5432,-0.0202,0.0,0.0,0.0,0.0,0.0,0.0,0.0,0.0,-1.1544,-1.2436,-1.164,-0.4841,-0.1666,0.0,0.0,0.0,0.0,0.0,-0.4961,-0.9692,-1.121,-1.3337,-1.5197,-1.5886,-1.611,-1.6191,-1.6246,-1.6347,-1.6395,-1.6334,-1.1599,-0.9338,-1.2155,-0.4847,0.0,0.0,0.0,0.0,0.0,0.0,0.0,0.0,0.0,0.0,0.0,0.0,0.0,0.0,0.0,0.0,0.0,0.0,0.0,0.0,0.0,0.0,0.0,0.0,0.0,0.0,0.0,0.0,0.0,0.0,0.0,0.0,0.0,0.0,0.0,0.0,0.0,0.0,0.0,0.0,0.0,0.0,0.0,0.0,0.0,0.0,0.0,0.0,0.0,0.0,0.0,0.0,0.0,0.0,0.0,0.0,0.0,0.0,0.0,0.0,0.0,0.0,0.0,0.0,0.0,0.0,0.0,0.0,0.0,0.0,-0.4188,-1.4244,-1.5828,-1.6326,-1.6172,-1.215,-0.6849,-0.0202,0.0,0.0,0.0,0.0,0.0,0.0,0.0,0.0,-1.1562,-1.1622,-1.1962,-1.2701,-0.6324,0.0,0.0,0.0,0.0,0.0,-0.0523,-0.2653,-0.8399,-1.3008,-1.6021,-1.5866,-1.5995,-1.609,-1.6096,-1.6103,-1.6137,-1.6205,-1.1297,-0.6241,-0.1615,-0.0404,0.0,0.0,0.0,0.0,0.0,0.0,0.0,0.0,0.0,0.0,0.0,0.0,0.0,0.0,0.0,0.0,0.0,0.0,0.0,0.0,0.0,0.0,0.0,0.0,0.0,0.0,0.0,0.0,0.0,0.0,0.0,0.0,0.0,0.0,0.0,0.0,0.0,0.0,0.0,0.0,0.0,0.0,0.0,0.0,0.0,0.0,0.0,0.0,0.0,0.0,0.0,0.0,0.0,0.0,0.0,0.0,0.0,0.0,0.0,0.0,0.0,0.0,0.0,0.0,0.0,0.0,0.0,0.0,0.0,0.0,-0.2492,-0.83,-1.3917,-1.6728,-1.6031,-1.5623,-1.0721,-0.0202,0.0,0.0,0.0,0.0,0.0,0.0,0.0,0.0,-1.1008,-1.1778,-1.1415,-0.9404,-0.8549,-0.6874,-0.1264,0.0,0.0,0.0,0.0,-0.0738,-0.2999,-1.0113,-1.5605,-1.594,-1.6056,-1.6144,-1.6117,-1.6096,-1.611,-1.6191,-1.1282,-0.5834,-0.0606,0.0,0.0,0.0,0.0,0.0,0.0,0.0,0.0,0.0,0.0,0.0,0.0,0.0,0.0,0.0,0.0,0.0,0.0,0.0,0.0,0.0,0.0,0.0,0.0,0.0,0.0,0.0,0.0,0.0,0.0,0.0,0.0,0.0,0.0,0.0,0.0,0.0,0.0,0.0,0.0,0.0,0.0,0.0,0.0,0.0,0.0,0.0,0.0,0.0,0.0,0.0,0.0,0.0,0.0,0.0,0.0,0.0,0.0,0.0,0.0,0.0,0.0,0.0,0.0,0.0,0.0,0.0,0.0,0.0,0.0,0.0,-0.0826,-0.285,-1.1492,-1.6497,-1.6598,-1.63,-1.0927,-0.0202,0.0,0.0,0.0,0.0,0.0,0.0,0.0,0.0,-1.0201,-1.1748,-1.1265,-0.8327,-1.0625,-1.1025,-0.2046,0.0,0.0,0.0,0.0,0.0,0.0,-0.5656,-1.1102,-1.3133,-1.3444,-1.4131,-1.5931,-1.611,-1.6123,-1.6191,-1.1282,-0.5834,-0.0606,0.0,0.0,0.0,0.0,0.0,0.0,0.0,0.0,0.0,0.0,0.0,0.0,0.0,0.0,0.0,0.0,0.0,0.0,0.0,0.0,0.0,0.0,0.0,0.0,0.0,0.0,0.0,0.0,0.0,0.0,0.0,0.0,0.0,0.0,0.0,0.0,0.0,0.0,0.0,0.0,0.0,0.0,0.0,0.0,0.0,0.0,0.0,0.0,0.0,0.0,0.0,0.0,0.0,0.0,0.0,0.0,0.0,0.0,0.0,0.0,0.0,0.0,0.0,0.0,0.0,0.0,0.0,0.0,0.0,0.0,0.0,0.0,0.0,-0.6904,-1.2684,-1.6625,-1.3015,-0.7478,-0.0202,0.0,0.0,0.0,0.0,0.0,0.0,0.0,0.0,-0.9322,-1.1464,-1.1572,-1.1648,-1.2455,-1.0973,-0.205,0.0,0.0,0.0,0.0,0.0,0.0,0.0,-0.1746,-0.6716,-0.7791,-0.9853,-1.5112,-1.5931,-1.6151,-1.6198,-1.1282,-0.5834,-0.0606,0.0,0.0,0.0,0.0,0.0,0.0,0.0,0.0,0.0,0.0,0.0,0.0,0.0,0.0,0.0,0.0,0.0,0.0,0.0,0.0,0.0,0.0,0.0,0.0,0.0,0.0,0.0,0.0,0.0,0.0,0.0,0.0,0.0,0.0,0.0,0.0,0.0,0.0,0.0,0.0,0.0,0.0,0.0,0.0,0.0,0.0,0.0,0.0,0.0,0.0,0.0,0.0,0.0,0.0,0.0,0.0,0.0,0.0,0.0,0.0,0.0,0.0,0.0,0.0,0.0,0.0,0.0,0.0,0.0,0.0,0.0,0.0,0.0,0.0,-0.4847,-1.5434,-0.5654,0.0,0.0,0.0,0.0,0.0,0.0,0.0,0.0,0.0,0.0,-0.2859,-0.7377,-1.1663,-1.1559,-0.7699,-0.3205,-0.0564,0.0,0.0,0.0,0.0,0.0,0.0,0.0,-0.0593,-0.1986,-0.2401,-0.3014,-0.462,-1.1263,-1.6157,-1.6031,-1.1297,-0.5834,-0.0606,0.0,0.0,0.0,0.0,0.0,0.0,0.0,0.0,0.0,0.0,0.0,0.0,0.0,0.0,0.0,0.0,0.0,0.0,0.0,0.0,0.0,0.0,0.0,0.0,0.0,0.0,0.0,0.0,0.0,0.0,0.0,0.0,0.0,0.0,0.0,0.0,0.0,0.0,0.0,0.0,0.0,0.0,0.0,0.0,0.0,0.0,0.0,0.0,0.0,0.0,0.0,0.0,0.0,0.0,0.0,0.0,0.0,0.0,0.0,0.0,0.0,0.0,0.0,0.0,0.0,0.0,0.0,0.0,0.0,0.0,0.0,0.0,0.0,0.0,-0.1414,-0.4643,-0.1616,0.0,0.0,0.0,0.0,0.0,0.0,0.0,0.0,0.0,0.0,0.0,-0.337,-0.6941,-0.6938,-0.3506,0.0,0.0,0.0,0.0,0.0,0.0,0.0,0.0,0.0,0.0,0.0,0.0,0.0,0.0,-0.5626,-1.1282,-1.5629,-1.3151,-0.8266,-0.0808,0.0,0.0,0.0,0.0,0.0,0.0,0.0,0.0,0.0,0.0,0.0,0.0,0.0,0.0,0.0,0.0,0.0,0.0,0.0,0.0,0.0,0.0,0.0,0.0,0.0,0.0,0.0,0.0,0.0,0.0,0.0,0.0,0.0,0.0,0.0,0.0,0.0,0.0,0.0,0.0,0.0,0.0,0.0,0.0,0.0,0.0,0.0,0.0,0.0,0.0,0.0,0.0,0.0,0.0,0.0,0.0,0.0,0.0,0.0,0.0,0.0,0.0,0.0,0.0,0.0,0.0,0.0,0.0,0.0,0.0,0.0,0.0,0.0,0.0,0.0,0.0,0.0,0.0,0.0,0.0,0.0,0.0,0.0,0.0,0.0,0.0,0.0,-0.0353,0.0,0.0,0.0,0.0,0.0,0.0,0.0,0.0,0.0,0.0,0.0,0.0,0.0,0.0,0.0,0.0,0.0,0.0,0.0,-0.3622,-1.3374,-1.5434,-1.1949,-0.101,0.0,0.0,0.0,0.0,0.0,0.0,0.0,0.0,0.0,0.0,0.0,0.0,0.0,0.0,0.0,0.0,0.0,0.0,0.0,0.0,0.0,0.0,0.0,0.0,0.0,0.0,0.0,0.0,0.0,0.0,0.0,0.0,0.0,0.0,0.0,0.0,0.0,0.0,0.0,0.0,0.0,0.0,0.0,0.0,0.0,0.0,0.0,0.0,0.0,0.0,0.0,0.0,0.0,0.0,0.0,0.0,0.0,0.0,0.0,0.0,0.0,0.0,0.0,0.0,0.0,0.0,0.0,0.0,0.0,0.0,0.0,0.0,0.0,0.0,0.0,0.0,0.0,0.0,0.0,0.0,0.0,0.0,0.0,0.0,0.0,0.0,0.0,-0.2234,0.0,0.0,0.0,0.0,0.0,0.0,0.0,0.0,0.0,0.0,0.0,0.0,0.0,0.0,0.0,0.0,0.0,0.0,0.0,-0.0805,-0.323,-1.0927,-1.1949,-0.101,0.0,0.0,0.0,0.0,0.0,0.0,0.0,0.0,0.0,0.0,0.0,0.0,0.0,0.0,0.0,0.0,0.0,0.0,0.0,0.0,0.0,0.0,0.0,0.0,0.0,0.0,0.0,0.0,0.0,0.0,0.0,0.0,0.0,0.0,0.0,0.0,0.0,0.0,0.0,0.0,0.0,0.0,0.0,0.0,0.0,0.0,0.0,0.0,0.0,0.0,0.0,0.0,0.0,0.0,0.0,0.0,0.0,0.0,0.0,0.0,0.0,0.0,0.0,0.0,0.0,0.0,0.0,0.0,0.0,0.0,0.0,0.0,0.0,0.0,0.0,0.0,0.0,0.0,0.0,0.0,0.0,0.0,0.0,0.0,0.0,0.0,0.0,-0.5718,-0.1918,0.0,0.0,0.0,0.0,0.0,0.0,0.0,0.0,0.0,0.0,0.0,0.0,0.0,0.0,0.0,0.0,0.0,0.0,0.0,0.0,-0.5049,-0.6262,-0.0606,0.0,0.0,0.0,0.0,0.0,0.0,0.0,0.0,0.0,0.0,0.0,0.0,0.0,0.0,0.0,0.0,0.0,0.0,0.0,0.0,0.0,0.0,0.0,0.0,0.0,0.0,0.0,0.0,0.0,0.0,0.0,0.0,0.0,0.0,0.0,0.0,0.0,0.0,0.0,0.0,0.0,0.0,0.0,0.0,0.0,0.0,0.0,0.0,0.0,0.0,0.0,0.0,0.0,0.0,0.0,0.0,0.0,0.0,0.0,0.0,0.0,0.0,0.0,0.0,0.0,0.0,0.0,0.0,0.0,0.0,0.0,0.0,0.0,0.0,0.0,0.0,0.0,0.0,0.0,0.0,0.0,0.0,0.0,0.0,0.0,0.0,0.0,-0.9305,-0.4455,0.0,0.0,0.0,0.0,0.0,0.0,0.0,0.0,0.0,0.0,0.0,0.0,0.0,0.0,0.0,0.0,0.0,0.0,0.0,0.0,0.0,0.0,0.0,0.0,0.0,0.0,0.0,0.0,0.0,0.0,0.0,0.0,0.0,0.0,0.0,0.0,0.0,0.0,0.0,0.0,0.0,0.0,0.0,0.0,0.0,0.0,0.0,0.0,0.0,0.0,0.0,0.0,0.0,0.0,0.0,0.0,0.0,0.0,0.0,0.0,0.0,0.0,0.0,0.0,0.0,0.0,0.0,0.0,0.0,0.0,0.0,0.0,0.0,0.0,0.0,0.0,0.0,0.0,0.0,0.0,0.0,0.0,0.0,0.0,0.0,0.0,0.0,0.0,0.0,0.0,0.0,0.0,0.0,0.0,0.0,0.0,0.0,0.0,0.0,0.0,0.0,0.0,0.0,0.0,0.0,0.0,0.0,0.0,0.0,0.0,-1.1428,-0.5933,0.0,0.0,0.0,0.0,0.0,0.0,0.0,0.0,0.0,0.0,0.0,0.0,0.0,0.0,0.0,0.0,0.0,0.0,0.0,0.0,0.0,0.0,0.0,0.0,0.0,0.0,0.0,0.0,0.0,0.0,0.0,0.0,0.0,0.0,0.0,0.0,0.0,0.0,0.0,0.0,0.0,0.0,0.0,0.0,0.0,0.0,0.0,0.0,0.0,0.0,0.0,0.0,0.0,0.0,0.0,0.0,0.0,0.0,0.0,0.0,0.0,0.0,0.0,0.0,0.0,0.0,0.0,0.0,0.0,0.0,0.0,0.0,0.0,0.0,0.0,0.0,0.0,0.0,0.0,0.0,0.0,0.0,0.0,0.0,0.0,0.0,0.0,0.0,0.0,0.0,0.0,0.0,0.0,0.0,0.0,0.0,0.0,0.0,0.0,0.0,0.0,0.0,0.0,0.0,0.0,0.0,0.0,0.0,0.0,0.0,-0.912,-0.4567,0.0,0.0,0.0,0.0,0.0,0.0,0.0,0.0,0.0,0.0,0.0,0.0,0.0,0.0,0.0,0.0,0.0,0.0,0.0,0.0,0.0,0.0,0.0,0.0,0.0,0.0,0.0,0.0,0.0,0.0,0.0,0.0,0.0,0.0,0.0,0.0,0.0,0.0,0.0,0.0,0.0,0.0,0.0,0.0,0.0,0.0,0.0,0.0,0.0,0.0,0.0,0.0,0.0,0.0,0.0,0.0,0.0,0.0,0.0,0.0,0.0,0.0,0.0,0.0,0.0,0.0,0.0,0.0,0.0,0.0,0.0,0.0,0.0,0.0,0.0,0.0,0.0,0.0,0.0,0.0,0.0,0.0,0.0,0.0,0.0,0.0,0.0,0.0,0.0,0.0,0.0,0.0,0.0,0.0,0.0,0.0,0.0,0.0,0.0,0.0,0.0,0.0,0.0,0.0,0.0,0.0,0.0,0.0,0.0,0.0,-0.8163,-0.3899,0.0,0.0,0.0,0.0,0.0,0.0,0.0,0.0,0.0,0.0,0.0,0.0,0.0,0.0,0.0,0.0,0.0,0.0,0.0,0.0,0.0,0.0,0.0,0.0,0.0,0.0,0.0,0.0,0.0,0.0,0.0,0.0,0.0,0.0,0.0,0.0,0.0,0.0,0.0,0.0,0.0,0.0,0.0,0.0,0.0,0.0,0.0,0.0,0.0,0.0,0.0,0.0,0.0,0.0,0.0,0.0,0.0,0.0,0.0,0.0,0.0,0.0,0.0,0.0,0.0,0.0,0.0,0.0,0.0,0.0,0.0,0.0,0.0,0.0,0.0,0.0,0.0,0.0,0.0,0.0,0.0,0.0,0.0,0.0,0.0,0.0,0.0,0.0,0.0,0.0,0.0,0.0,0.0,0.0,0.0,0.0,0.0,0.0,0.0,0.0,0.0,0.0,0.0,0.0,0.0,0.0,0.0,0.0,0.0,0.0,-1.112,-0.5773,0.0,0.0,0.0,0.0,0.0,0.0,0.0,0.0,0.0,0.0,0.0,0.0,0.0,0.0,0.0,0.0,0.0,0.0,0.0,0.0,0.0,0.0,0.0,0.0,0.0,0.0,0.0,0.0,0.0,0.0,0.0,0.0,0.0,0.0,0.0,0.0,0.0,0.0,0.0,0.0,0.0,0.0,0.0,0.0,0.0,0.0,0.0,0.0,0.0,0.0,0.0,0.0,0.0,0.0,0.0,0.0,0.0,0.0,0.0,0.0,0.0,0.0,0.0,0.0,0.0,0.0,0.0,0.0,0.0,0.0,0.0,0.0,0.0,0.0,0.0,0.0,0.0,0.0,0.0,0.0,0.0,0.0,0.0,0.0,0.0,0.0,0.0,0.0,0.0,0.0,0.0,0.0,0.0,0.0,0.0,0.0,0.0,0.0,0.0,0.0,0.0,0.0,0.0,0.0,0.0,0.0,0.0,0.0,0.0,0.0,-1.0906,-0.9247,-0.6953,-0.4812,-0.2162,0.0,0.0,0.0,0.0,0.0,0.0,0.0,0.0,0.0,0.0,0.0,0.0,0.0,0.0,0.0,0.0,0.0,0.0,0.0,0.0,0.0,0.0,0.0,0.0,0.0,0.0,0.0,0.0,0.0,0.0,0.0,0.0,0.0,0.0,0.0,0.0,0.0,0.0,0.0,0.0,0.0,0.0,0.0,0.0,0.0,0.0,0.0,0.0,0.0,0.0,0.0,0.0,0.0,0.0,0.0,0.0,0.0,0.0,0.0,0.0,0.0,0.0,0.0,0.0,0.0,0.0,0.0,0.0,0.0,0.0,0.0,0.0,0.0,0.0,0.0,0.0,0.0,0.0,0.0,0.0,0.0,0.0,0.0,0.0,0.0,0.0,0.0,0.0,0.0,0.0,0.0,0.0,0.0,0.0,0.0,0.0,0.0,0.0,0.0,0.0,0.0,0.0,0.0,0.0,0.0,0.0,0.0,-1.0573,-1.0945,-1.0926,-0.9071,-0.6547,-0.3578,-0.0746,0.0,0.0,0.0,0.0,0.0,0.0,0.0,0.0,0.0,0.0,0.0,0.0,0.0,0.0,0.0,0.0,0.0,0.0,0.0,0.0,0.0,0.0,0.0,0.0,0.0,0.0,0.0,0.0,0.0,0.0,0.0,0.0,0.0,0.0,0.0,0.0,0.0,0.0,0.0,0.0,0.0,0.0,0.0,0.0,0.0,0.0,0.0,0.0,0.0,0.0,0.0,0.0,0.0,0.0,0.0,0.0,0.0,0.0,0.0,0.0,0.0,0.0,0.0,0.0,0.0,0.0,0.0,0.0,0.0,0.0,0.0,0.0,0.0,0.0,0.0,0.0,0.0,0.0,0.0,0.0,0.0,0.0,0.0,0.0,0.0,0.0,0.0,0.0,0.0,0.0,0.0,0.0,0.0,0.0,0.0,0.0,0.0,0.0,0.0,0.0,0.0,0.0,0.0,0.0,0.0,0.0,0.0,0.0,-1.2266,-1.2723,-1.0822,-0.223,-0.019,0.0,0.0,0.0,0.0,0.0,0.0,0.0,0.0,0.0,0.0,0.0,0.0,0.0,0.0,0.0,0.0,0.0,0.0,0.0,0.0,0.0,0.0,0.0,0.0,0.0,0.0,0.0,0.0,0.0,0.0,0.0,0.0,0.0,0.0,0.0,0.0,0.0,0.0,0.0,0.0,0.0,0.0,0.0,0.0,0.0,0.0,0.0,0.0,0.0,0.0,0.0,0.0,0.0,0.0,0.0,0.0,0.0,0.0,0.0,0.0,0.0,0.0,0.0,0.0,0.0,0.0,0.0,0.0,0.0,0.0,0.0,0.0,0.0,0.0,0.0,0.0,0.0,0.0,0.0,0.0,0.0,0.0,0.0,0.0,0.0,0.0,0.0,0.0,0.0,0.0,0.0,0.0,0.0,0.0,0.0,0.0,0.0,0.0,0.0,0.0,0.0,0.0,0.0,0.0,-1.0504,0.0,0.0,0.0,0.0,0.0,-0.9889,-0.4553,0.0,0.0,0.0,0.0,0.0,0.0,0.0,0.0,0.0,0.0,0.0,0.0,0.0,0.0,0.0,0.0,0.0,0.0,0.0,0.0,0.0,0.0,0.0,0.0,0.0,0.0,0.0,0.0,0.0,0.0,0.0,0.0,0.0,0.0,0.0,0.0,0.0,0.0,0.0,0.0,0.0,0.0,0.0,0.0,0.0,0.0,0.0,0.0,0.0,0.0,0.0,0.0,0.0,0.0,0.0,0.0,0.0,0.0,0.0,0.0,0.0,0.0,0.0,0.0,0.0,0.0,0.0,0.0,0.0,0.0,0.0,0.0,0.0,0.0,0.0,0.0,0.0,0.0,0.0,0.0,0.0,0.0,0.0,0.0,0.0,0.0,0.0,0.0,0.0,0.0,0.0,0.0,0.0,0.0,0.0,0.0,0.0,0.0,0.0,0.0,0.0,0.0,0.0,0.0,0.0,0.0,0.0,-1.1714,0.0,0.0,-1.3158,-0.7749,-0.2129,-0.0384,0.0,0.0,0.0,0.0,0.0,0.0,0.0,0.0,0.0,0.0,0.0,0.0,0.0,0.0,0.0,0.0,0.0,0.0,0.0,0.0,0.0,0.0,0.0,0.0,0.0,0.0,0.0,0.0,0.0,0.0,0.0,0.0,0.0,0.0,0.0,0.0,0.0,0.0,0.0,0.0,0.0,0.0,0.0,0.0,0.0,0.0,0.0,0.0,0.0,0.0,0.0,0.0,0.0,0.0,0.0,0.0,0.0,0.0,0.0,0.0,0.0,0.0,0.0,0.0,0.0,0.0,0.0,0.0,0.0,0.0,0.0,0.0,0.0,0.0,0.0,0.0,0.0,0.0,0.0,0.0,0.0,0.0,0.0,0.0,0.0,0.0,0.0,0.0,0.0,0.0,0.0,0.0,0.0,0.0,0.0,0.0,0.0,0.0,0.0,0.0,0.0,0.0,0.0,0.0,0.0,0.0,0.0,0.0,-1.3323,-1.0214,-0.5814,-0.0968,0.0,0.0,0.0,0.0,-0.0405,-0.1212,-0.0613,0.0,0.0,0.0,0.0,0.0,0.0,0.0,0.0,0.0,0.0,0.0,0.0,0.0,0.0,0.0,0.0,0.0,0.0,0.0,0.0,0.0,0.0,0.0,0.0,0.0,0.0,0.0,0.0,0.0,0.0,0.0,0.0,0.0,0.0,0.0,0.0,0.0,0.0,0.0,0.0,0.0,0.0,0.0,0.0,0.0,0.0,0.0,0.0,0.0,0.0,0.0,0.0,0.0,0.0,0.0,0.0,0.0,0.0,0.0,0.0,0.0,0.0,0.0,0.0,0.0,0.0,0.0,0.0,0.0,0.0,0.0,0.0,0.0,0.0,0.0,0.0,0.0,0.0,0.0,0.0,0.0,0.0,0.0,0.0,0.0,0.0,0.0,0.0,0.0,0.0,0.0,0.0,0.0,0.0,0.0,0.0,0.0,0.0,0.0,0.0,0.0,-1.1729,-1.1805,-0.9733,-0.1702,0.0,0.0,0.0,0.0,-0.2234,-0.8877,-0.4395,0.0,0.0,0.0,0.0,0.0,0.0,0.0,0.0,0.0,0.0,0.0,0.0,0.0,0.0,0.0,0.0,0.0,0.0,0.0,0.0,0.0,0.0,0.0,0.0,0.0,0.0,0.0,0.0,0.0,0.0,0.0,0.0,0.0,0.0,0.0,0.0,0.0,0.0,0.0,0.0,0.0,0.0,0.0,0.0,0.0,0.0,0.0,0.0,0.0,0.0,0.0,0.0,0.0,0.0,0.0,0.0,0.0,0.0,0.0,0.0,0.0,0.0,0.0,0.0,0.0,0.0,0.0,0.0,0.0,0.0,0.0,0.0,0.0,0.0,0.0,0.0,0.0,0.0,0.0,0.0,0.0,0.0,0.0,0.0,0.0,0.0,0.0,0.0,0.0,0.0,0.0,0.0,0.0,0.0,0.0,0.0,0.0,0.0,-1.2047,0.0,0.0,0.0,-1.2172,-1.1403,-0.7921,-0.3409,0.0,0.0,0.0,-0.2715,-1.1087,-0.89,-0.4692,-0.0589,0.0,0.0,0.0,0.0,0.0,0.0,0.0,0.0,0.0,0.0,0.0,0.0,0.0,0.0,0.0,0.0,0.0,0.0,0.0,0.0,0.0,0.0,0.0,0.0,0.0,0.0,0.0,0.0,0.0,0.0,0.0,0.0,0.0,0.0,0.0,0.0,0.0,0.0,0.0,0.0,0.0,0.0,0.0,0.0,0.0,0.0,0.0,0.0,0.0,0.0,0.0,0.0,0.0,0.0,0.0,0.0,0.0,0.0,0.0,0.0,0.0,0.0,0.0,0.0,0.0,0.0,0.0,0.0,0.0,0.0,0.0,0.0,0.0,0.0,0.0,0.0,0.0,0.0,0.0,0.0,0.0,0.0,0.0,0.0,0.0,0.0,0.0,0.0,0.0,0.0,0.0,0.0,0.0,0.0,0.0,0.0,0.0,0.0,-1.1837,0.0,0.0,0.0,-1.3532,-0.7149,-0.102,-0.0171,0.0,-0.2274,-0.8996,-1.1499,-1.0068,-0.3311,-0.0957,0.0,0.0,0.0,0.0,0.0,0.0,0.0,0.0,0.0,0.0,0.0,0.0,0.0,0.0,0.0,0.0,0.0,0.0,0.0,0.0,0.0,0.0,0.0,0.0,0.0,0.0,0.0,0.0,0.0,0.0,0.0,0.0,0.0,0.0,0.0,0.0,0.0,0.0,0.0,0.0,0.0,0.0,0.0,0.0,0.0,0.0,0.0,0.0,0.0,0.0,0.0,0.0,0.0,0.0,0.0,0.0,0.0,0.0,0.0,0.0,0.0,0.0,0.0,0.0,0.0,0.0,0.0,0.0,0.0,0.0,0.0,0.0,0.0,0.0,0.0,0.0,0.0,0.0,0.0,0.0,0.0,0.0,0.0,0.0,0.0,0.0,0.0,0.0,0.0,0.0,0.0,0.0,0.0,0.0,0.0,0.0,-1.2683,0.0,0.0,0.0,-1.1951,-1.1985,0.0,-0.4505,-0.0616,0.0,0.0,-0.1221,-0.7689,-1.2174,-1.118,-0.4728,0.0,0.0,0.0,0.0,0.0,0.0,0.0,0.0,0.0,0.0,0.0,0.0,0.0,0.0,0.0,0.0,0.0,0.0,0.0,0.0,0.0,0.0,0.0,0.0,0.0,0.0,0.0,0.0,0.0,0.0,0.0,0.0,0.0,0.0,0.0,0.0,0.0,0.0,0.0,0.0,0.0,0.0,0.0,0.0,0.0,0.0,0.0,0.0,0.0,0.0,0.0,0.0,0.0,0.0,0.0,0.0,0.0,0.0,0.0,0.0,0.0,0.0,0.0,0.0,0.0,0.0,0.0,0.0,0.0,0.0,0.0,0.0,0.0,0.0,0.0,0.0,0.0,0.0,0.0,0.0,0.0,0.0,0.0,0.0,0.0,0.0,0.0,0.0,0.0,0.0,0.0,0.0,0.0,0.0,0.0,0.0,0.0,0.0,-1.1199,0.0,-1.1606,0.0,0.0,0.0,0.0,0.0,0.0,0.0,-0.2983,-0.6974,-1.1861,-0.5346,0.0,0.0,0.0,0.0,0.0,0.0,0.0,0.0,0.0,0.0,0.0,0.0,0.0,0.0,0.0,0.0,0.0,0.0,0.0,0.0,0.0,0.0,0.0,0.0,0.0,0.0,0.0,0.0,0.0,0.0,0.0,0.0,0.0,0.0,0.0,0.0,0.0,0.0,0.0,0.0,0.0,0.0,0.0,0.0,0.0,0.0,0.0,0.0,0.0,0.0,0.0,0.0,0.0,0.0,0.0,0.0,0.0,0.0,0.0,0.0,0.0,0.0,0.0,0.0,0.0,0.0,0.0,0.0,0.0,0.0,0.0,0.0,0.0,0.0,0.0,0.0,0.0,0.0,0.0,0.0,0.0,0.0,0.0,0.0,0.0,0.0,0.0,0.0,0.0,0.0,0.0,0.0,0.0,0.0,0.0,0.0,0.0,0.0,0.0,0.0,0.0,0.0,0.0,0.0,0.0,0.0,0.0,0.0,0.0,-0.2181,-0.8295,-0.554,-0.2166,-0.0173,0.0,0.0,0.0,0.0,0.0,0.0,0.0,0.0,0.0,0.0,0.0,0.0,0.0,0.0,0.0,0.0,0.0,0.0,0.0,0.0,0.0,0.0,0.0,0.0,0.0,0.0,0.0,0.0,0.0,0.0,0.0,0.0,0.0,0.0,0.0,0.0,0.0,0.0,0.0,0.0,0.0,0.0,0.0,0.0,0.0,0.0,0.0,0.0,0.0,0.0,0.0,0.0,0.0,0.0,0.0,0.0,0.0,0.0,0.0,0.0,0.0,0.0,0.0,0.0,0.0,0.0,0.0,0.0,0.0,0.0,0.0,0.0,0.0,0.0,0.0,0.0,0.0,0.0,0.0,0.0,0.0,0.0,0.0,0.0,0.0,0.0,0.0,0.0,0.0,0.0,0.0,0.0,0.0,-0.0161,0.0,0.0,0.0,0.0,-1.2223,0.0,0.0,0.0,0.0,0.0,0.0,0.0,0.0,0.0,0.0,-0.6123,-0.7809,-0.0785,0.0,0.0,0.0,0.0,0.0,0.0,0.0,0.0,0.0,0.0,0.0,0.0,0.0,0.0,0.0,0.0,0.0,0.0,0.0,0.0,0.0,0.0,0.0,0.0,0.0,0.0,0.0,0.0,0.0,0.0,0.0,0.0,0.0,0.0,0.0,0.0,0.0,0.0,0.0,0.0,0.0,0.0,0.0,0.0,0.0,0.0,0.0,0.0,0.0,0.0,0.0,0.0,0.0,0.0,0.0,0.0,0.0,0.0,0.0,0.0,0.0,0.0,0.0,0.0,0.0,0.0,0.0,0.0,0.0,0.0,0.0,0.0,0.0,0.0,0.0,0.0,0.0,0.0,0.0,0.0,0.0,0.0,0.0,0.0,0.0,0.0,0.0,0.0,0.0,0.0,0.0,0.0,0.0,0.0,0.0,0.0,0.0,0.0,0.0,0.0,0.0,0.0,0.0,0.0,0.0,0.0,0.0,0.0,0.0,-0.6155,-0.9803,-0.734,-0.2882,0.0,0.0,0.0,0.0,0.0,0.0,0.0,0.0,0.0,0.0,0.0,0.0,0.0,0.0,0.0,0.0,0.0,0.0,0.0,0.0,0.0,0.0,0.0,0.0,0.0,0.0,0.0,0.0,0.0,0.0,0.0,0.0,0.0,0.0,0.0,0.0,0.0,0.0,0.0,0.0,0.0,0.0,0.0,0.0,0.0,0.0,0.0,0.0,0.0,0.0,0.0,0.0,0.0,0.0,0.0,0.0,0.0,0.0,0.0,0.0,0.0,0.0,0.0,0.0,0.0,0.0,0.0,0.0,0.0,0.0,0.0,0.0,0.0,0.0,0.0,0.0,0.0,0.0,0.0,0.0,0.0,0.0,0.0,0.0,0.0,0.0,0.0,0.0,0.0,0.0,0.0,0.0,0.0,0.0,0.0,0.0,0.0,-0.4376,0.0,0.0,0.0,0.0,0.0,0.0,0.0,0.0,0.0,0.0,-0.6234,-1.0836,-1.0938,-0.4436,0.0,0.0,0.0,0.0,0.0,0.0,0.0,0.0,0.0,0.0,0.0,0.0,0.0,0.0,0.0,0.0,0.0,0.0,0.0,0.0,0.0,0.0,0.0,0.0,0.0,0.0,0.0,0.0,0.0,0.0,0.0,0.0,0.0,0.0,0.0,0.0,0.0,0.0,0.0,0.0,0.0,0.0,0.0,0.0,0.0,0.0,0.0,0.0,0.0,0.0,0.0,0.0,0.0,0.0,0.0,0.0,0.0,0.0,0.0,0.0,0.0,0.0,0.0,0.0,0.0,0.0,0.0,0.0,0.0,0.0,0.0,0.0,0.0,0.0,0.0,0.0,0.0,0.0,0.0,0.0,0.0,0.0,0.0,0.0,0.0,0.0,0.0,0.0,0.0]}]]